[[{"header":{"parameterUnit":"m.s-1","parameterCategory":1,"la1":30.6,"la2":29.2853,"lo1":-89.7004,"lo2":-87.6739,"dy":0.0162,"dx":0.0183,"nx":112,"ny":82,"refTime":"2023-10-22T12:00:00:Z","depth":0,"parameterNumber":2,"parameterNumberName":"U-component_of_WINDS"},"data":[0.0,0.0,0.0,0.0,0.0,0.0,0.0,0.0,0.0,0.0,0.0,0.0,0.0,0.0,0.0,0.0,0.0,0.0,0.0,0.0,0.0,0.0,0.0,0.0,0.0,0.0,0.0,0.0,0.0,0.0,0.0,0.0,0.0,0.0,0.0,0.0,0.0,0.0,0.0,0.0,0.0,0.0,0.0,0.0,0.0,0.0,0.0,0.0,0.0,0.0,0.0,0.0,0.0,0.0,0.0,0.0,0.0,0.0,0.0,0.0,0.0,0.0,0.0,0.0,0.0,0.0,0.0,0.0,0.0,0.0,0.0,0.0,0.0,0.0,0.0,0.0,0.0,0.0,0.0,0.0,0.0,0.0,0.0,0.0,0.0,0.0,0.0,0.0,0.0,0.0,-2.8848,-2.9326,-3.1012,-3.2729,-3.4251,-3.3498,-3.2466,-3.1383,0.0,0.0,0.0,0.0,0.0,0.0,0.0,0.0,0.0,0.0,0.0,0.0,0.0,0.0,0.0,0.0,0.0,0.0,0.0,0.0,0.0,0.0,0.0,0.0,0.0,0.0,0.0,0.0,0.0,0.0,0.0,0.0,0.0,0.0,0.0,0.0,0.0,0.0,0.0,0.0,0.0,0.0,0.0,0.0,0.0,0.0,0.0,0.0,0.0,0.0,0.0,0.0,0.0,0.0,0.0,0.0,0.0,0.0,0.0,0.0,0.0,0.0,0.0,0.0,0.0,0.0,0.0,0.0,0.0,0.0,0.0,0.0,0.0,0.0,0.0,0.0,0.0,0.0,0.0,0.0,0.0,0.0,0.0,0.0,0.0,0.0,0.0,0.0,0.0,0.0,0.0,0.0,0.0,0.0,0.0,0.0,0.0,0.0,0.0,0.0,0.0,0.0,0.0,0.0,-2.9205,-3.0129,-3.1345,-3.2464,-3.3347,-3.3445,-3.2729,-3.1006,0.0,0.0,0.0,0.0,0.0,0.0,0.0,0.0,0.0,0.0,0.0,0.0,0.0,0.0,0.0,0.0,0.0,0.0,0.0,0.0,0.0,0.0,0.0,0.0,0.0,0.0,0.0,0.0,0.0,0.0,0.0,0.0,0.0,0.0,0.0,0.0,0.0,0.0,0.0,0.0,0.0,0.0,0.0,0.0,0.0,0.0,0.0,0.0,0.0,0.0,0.0,0.0,0.0,0.0,0.0,0.0,0.0,0.0,0.0,0.0,0.0,0.0,0.0,0.0,0.0,0.0,0.0,0.0,0.0,0.0,0.0,0.0,0.0,0.0,0.0,0.0,0.0,0.0,0.0,0.0,0.0,0.0,0.0,0.0,0.0,0.0,0.0,0.0,0.0,0.0,0.0,0.0,0.0,0.0,0.0,0.0,0.0,0.0,0.0,0.0,0.0,0.0,0.0,-2.944,-3.0048,-3.0367,-3.0964,-3.1811,-3.2996,-3.2811,-3.2004,-3.0576,-2.8458,0.0,0.0,0.0,0.0,0.0,0.0,0.0,0.0,0.0,0.0,0.0,0.0,0.0,0.0,0.0,0.0,0.0,0.0,0.0,0.0,0.0,0.0,0.0,0.0,0.0,0.0,0.0,0.0,0.0,0.0,0.0,0.0,0.0,0.0,0.0,0.0,0.0,0.0,0.0,0.0,0.0,0.0,0.0,0.0,0.0,0.0,0.0,0.0,0.0,0.0,0.0,0.0,0.0,0.0,0.0,0.0,0.0,0.0,0.0,0.0,0.0,0.0,0.0,0.0,0.0,0.0,0.0,0.0,0.0,0.0,0.0,0.0,0.0,0.0,0.0,0.0,0.0,0.0,0.0,0.0,0.0,0.0,0.0,0.0,0.0,0.0,0.0,0.0,0.0,0.0,0.0,0.0,0.0,0.0,0.0,0.0,0.0,0.0,0.0,0.0,0.0,0.0,-3.045,-3.0939,-3.0645,-3.0614,-3.1216,-3.2721,-3.2111,-3.1243,-3.0326,-2.8524,0.0,0.0,0.0,0.0,0.0,0.0,0.0,0.0,0.0,0.0,0.0,0.0,0.0,0.0,0.0,0.0,0.0,0.0,0.0,0.0,0.0,0.0,0.0,0.0,0.0,0.0,0.0,0.0,0.0,0.0,0.0,0.0,0.0,0.0,0.0,0.0,0.0,0.0,0.0,0.0,0.0,0.0,0.0,0.0,0.0,0.0,0.0,0.0,0.0,0.0,0.0,0.0,0.0,0.0,0.0,0.0,0.0,0.0,0.0,0.0,0.0,0.0,0.0,0.0,0.0,0.0,0.0,0.0,0.0,0.0,0.0,0.0,0.0,0.0,0.0,0.0,0.0,0.0,0.0,0.0,0.0,0.0,0.0,0.0,0.0,0.0,0.0,0.0,0.0,0.0,0.0,0.0,0.0,0.0,0.0,0.0,0.0,0.0,0.0,0.0,0.0,0.0,-3.1538,-3.16,-3.1264,-3.0686,-3.0898,-3.2313,-3.166,-3.0961,-3.051,-2.8375,0.0,0.0,0.0,0.0,0.0,0.0,0.0,0.0,0.0,0.0,0.0,0.0,0.0,0.0,0.0,0.0,0.0,0.0,0.0,0.0,0.0,0.0,0.0,0.0,0.0,0.0,0.0,0.0,0.0,0.0,0.0,0.0,0.0,0.0,0.0,0.0,0.0,0.0,0.0,0.0,0.0,0.0,0.0,0.0,0.0,0.0,0.0,0.0,0.0,0.0,0.0,0.0,0.0,0.0,0.0,0.0,0.0,0.0,0.0,0.0,0.0,0.0,0.0,0.0,0.0,0.0,0.0,0.0,0.0,0.0,0.0,0.0,0.0,0.0,0.0,0.0,0.0,0.0,0.0,0.0,0.0,0.0,0.0,0.0,0.0,0.0,0.0,0.0,0.0,0.0,0.0,0.0,0.0,0.0,0.0,0.0,0.0,0.0,0.0,0.0,0.0,0.0,-3.176,-3.2149,0.0,-3.1702,-3.1952,-3.2826,-3.2014,-3.1142,-3.0352,0.0,0.0,0.0,0.0,0.0,0.0,0.0,0.0,0.0,0.0,0.0,0.0,0.0,0.0,0.0,0.0,0.0,0.0,0.0,0.0,0.0,0.0,0.0,0.0,0.0,0.0,0.0,0.0,0.0,0.0,0.0,0.0,0.0,0.0,0.0,0.0,0.0,0.0,0.0,0.0,0.0,0.0,0.0,0.0,0.0,0.0,0.0,0.0,0.0,0.0,0.0,0.0,0.0,0.0,0.0,0.0,0.0,0.0,0.0,0.0,0.0,0.0,0.0,0.0,0.0,0.0,0.0,0.0,0.0,0.0,0.0,0.0,0.0,0.0,0.0,0.0,0.0,0.0,0.0,0.0,0.0,0.0,0.0,0.0,0.0,0.0,0.0,0.0,0.0,0.0,0.0,0.0,0.0,0.0,0.0,0.0,0.0,0.0,0.0,0.0,0.0,0.0,-3.0994,-3.1825,-3.2311,0.0,-3.2219,-3.2349,-3.287,-3.2065,-3.1207,-3.0446,0.0,0.0,0.0,0.0,0.0,0.0,0.0,0.0,0.0,0.0,0.0,0.0,0.0,0.0,0.0,0.0,0.0,0.0,0.0,0.0,0.0,0.0,0.0,0.0,0.0,0.0,0.0,0.0,0.0,0.0,0.0,0.0,0.0,0.0,0.0,0.0,0.0,0.0,0.0,0.0,0.0,0.0,0.0,0.0,0.0,0.0,0.0,0.0,0.0,0.0,0.0,0.0,0.0,0.0,0.0,0.0,0.0,0.0,0.0,0.0,0.0,0.0,0.0,0.0,0.0,0.0,0.0,0.0,0.0,0.0,0.0,0.0,0.0,0.0,0.0,0.0,0.0,0.0,0.0,0.0,0.0,0.0,0.0,0.0,0.0,0.0,0.0,0.0,0.0,0.0,0.0,0.0,0.0,0.0,0.0,0.0,0.0,0.0,0.0,0.0,0.0,0.0,-3.1409,-3.1774,-3.2065,-3.2454,-3.1968,-3.1808,-3.227,-3.1627,-3.1081,0.0,0.0,0.0,0.0,0.0,0.0,0.0,0.0,0.0,0.0,0.0,0.0,0.0,0.0,0.0,0.0,0.0,0.0,0.0,0.0,0.0,0.0,0.0,0.0,0.0,0.0,0.0,0.0,0.0,0.0,0.0,0.0,0.0,0.0,0.0,0.0,0.0,0.0,0.0,0.0,0.0,0.0,0.0,0.0,0.0,0.0,0.0,0.0,0.0,0.0,0.0,0.0,0.0,0.0,0.0,0.0,0.0,0.0,0.0,0.0,0.0,0.0,0.0,0.0,0.0,0.0,0.0,0.0,0.0,0.0,0.0,0.0,0.0,0.0,0.0,0.0,0.0,0.0,0.0,0.0,0.0,0.0,0.0,0.0,0.0,0.0,0.0,0.0,0.0,0.0,0.0,0.0,0.0,0.0,0.0,0.0,0.0,0.0,0.0,0.0,0.0,0.0,0.0,-3.0774,-3.1583,-3.2293,-3.2926,-3.2883,-3.2819,-3.2871,-3.2113,-3.1369,-3.0767,0.0,0.0,0.0,0.0,0.0,0.0,0.0,0.0,0.0,0.0,0.0,0.0,0.0,0.0,0.0,0.0,0.0,0.0,0.0,0.0,0.0,0.0,0.0,0.0,0.0,0.0,0.0,0.0,0.0,0.0,0.0,0.0,0.0,0.0,0.0,0.0,0.0,0.0,0.0,0.0,0.0,0.0,0.0,0.0,0.0,0.0,0.0,0.0,0.0,0.0,0.0,0.0,0.0,0.0,0.0,0.0,0.0,0.0,0.0,0.0,0.0,0.0,0.0,0.0,0.0,0.0,0.0,0.0,0.0,0.0,0.0,0.0,0.0,0.0,0.0,0.0,0.0,0.0,0.0,0.0,0.0,0.0,0.0,0.0,0.0,0.0,0.0,0.0,0.0,0.0,0.0,0.0,0.0,0.0,0.0,0.0,0.0,0.0,0.0,0.0,0.0,0.0,-3.0451,-3.1484,-3.2228,-3.2569,-3.2779,-3.2827,-3.2666,-3.2039,-3.1208,-3.0199,0.0,0.0,0.0,0.0,0.0,0.0,0.0,0.0,0.0,0.0,0.0,0.0,0.0,0.0,0.0,0.0,0.0,0.0,0.0,0.0,0.0,0.0,0.0,0.0,0.0,0.0,0.0,0.0,0.0,0.0,0.0,0.0,0.0,0.0,0.0,0.0,0.0,0.0,0.0,0.0,0.0,0.0,0.0,0.0,0.0,0.0,0.0,0.0,0.0,0.0,0.0,0.0,0.0,0.0,0.0,0.0,0.0,0.0,0.0,0.0,0.0,0.0,0.0,0.0,0.0,0.0,0.0,0.0,0.0,0.0,0.0,0.0,0.0,0.0,0.0,0.0,0.0,0.0,0.0,0.0,0.0,0.0,0.0,0.0,0.0,0.0,0.0,0.0,0.0,0.0,0.0,0.0,0.0,0.0,0.0,0.0,0.0,0.0,0.0,0.0,0.0,0.0,-3.0251,-3.1319,-3.1864,-3.1615,-3.1932,-3.2092,-3.1914,-3.1529,-3.0743,-2.9431,0.0,0.0,0.0,0.0,0.0,0.0,0.0,0.0,0.0,0.0,0.0,0.0,0.0,0.0,0.0,0.0,0.0,0.0,0.0,0.0,0.0,0.0,0.0,0.0,0.0,0.0,0.0,0.0,0.0,0.0,0.0,0.0,0.0,0.0,0.0,0.0,0.0,0.0,0.0,0.0,0.0,0.0,0.0,0.0,0.0,0.0,0.0,0.0,0.0,0.0,0.0,0.0,0.0,0.0,0.0,0.0,0.0,0.0,0.0,0.0,-3.7146,0.0,0.0,0.0,0.0,0.0,0.0,0.0,0.0,0.0,0.0,0.0,0.0,0.0,0.0,0.0,0.0,0.0,0.0,0.0,0.0,0.0,0.0,0.0,0.0,0.0,0.0,0.0,0.0,0.0,0.0,0.0,0.0,0.0,0.0,0.0,0.0,0.0,0.0,0.0,0.0,0.0,-2.9472,-3.0405,-3.0969,-3.0841,-3.1055,-3.1191,-3.1133,-3.0754,-3.029,-2.9734,-2.8264,0.0,0.0,0.0,0.0,0.0,0.0,0.0,0.0,0.0,0.0,0.0,0.0,0.0,0.0,0.0,0.0,0.0,0.0,0.0,0.0,0.0,0.0,0.0,0.0,0.0,0.0,0.0,0.0,0.0,0.0,0.0,0.0,0.0,0.0,0.0,0.0,0.0,0.0,0.0,0.0,0.0,0.0,0.0,0.0,0.0,0.0,0.0,0.0,0.0,0.0,0.0,0.0,0.0,0.0,0.0,0.0,0.0,0.0,0.0,0.0,-3.7041,0.0,0.0,0.0,0.0,0.0,0.0,0.0,0.0,0.0,0.0,0.0,0.0,0.0,0.0,0.0,0.0,0.0,0.0,0.0,0.0,0.0,0.0,0.0,0.0,0.0,0.0,0.0,0.0,0.0,0.0,0.0,0.0,0.0,0.0,0.0,0.0,0.0,0.0,0.0,0.0,-2.8981,-2.9755,-3.0077,-2.9601,-2.9854,-3.0105,-3.0164,-3.0048,-2.9653,-2.8936,-2.7775,0.0,0.0,0.0,0.0,0.0,0.0,0.0,0.0,0.0,0.0,0.0,0.0,0.0,0.0,0.0,0.0,0.0,0.0,0.0,0.0,0.0,0.0,0.0,0.0,0.0,0.0,0.0,0.0,0.0,0.0,0.0,0.0,0.0,0.0,0.0,0.0,0.0,0.0,0.0,0.0,0.0,0.0,0.0,0.0,0.0,0.0,0.0,0.0,0.0,0.0,0.0,0.0,0.0,-3.3093,-3.3362,-3.398,-3.434,-3.455,-3.4703,-3.5667,-3.6185,-3.6317,0.0,0.0,0.0,0.0,0.0,0.0,0.0,0.0,0.0,0.0,0.0,0.0,0.0,0.0,0.0,0.0,0.0,0.0,0.0,0.0,0.0,0.0,0.0,0.0,0.0,-2.6942,-2.7409,0.0,0.0,0.0,0.0,0.0,0.0,0.0,0.0,0.0,0.0,0.0,0.0,-2.8383,-2.9034,-2.9128,-2.8204,-2.8584,-2.8942,-2.905,-2.9187,-2.8858,-2.789,-2.7059,-2.606,0.0,0.0,0.0,0.0,0.0,0.0,0.0,0.0,0.0,0.0,0.0,0.0,0.0,0.0,0.0,0.0,0.0,0.0,0.0,0.0,0.0,0.0,0.0,0.0,0.0,0.0,0.0,0.0,0.0,0.0,0.0,0.0,-3.1716,-3.2138,0.0,0.0,0.0,0.0,0.0,0.0,0.0,0.0,0.0,0.0,0.0,0.0,0.0,0.0,-3.0755,-3.0819,-3.1128,-3.1731,-3.1731,-3.2041,-3.2567,-3.2635,-3.2857,-3.3254,-3.343,0.0,-3.5178,-3.4456,0.0,0.0,0.0,0.0,0.0,0.0,0.0,0.0,0.0,0.0,0.0,0.0,0.0,0.0,0.0,0.0,0.0,0.0,0.0,0.0,0.0,0.0,-2.5373,-2.5404,-2.5837,-2.6266,0.0,-2.6889,-2.7443,-2.7103,0.0,0.0,0.0,0.0,0.0,0.0,0.0,0.0,-2.7152,-2.7781,-2.7891,-2.7003,-2.7409,-2.7725,-2.775,-2.7883,-2.7853,-2.7555,-2.6494,-2.5579,-2.4994,-2.4028,0.0,0.0,0.0,0.0,0.0,0.0,0.0,0.0,0.0,0.0,0.0,0.0,0.0,0.0,0.0,0.0,0.0,0.0,0.0,0.0,0.0,0.0,0.0,0.0,0.0,0.0,0.0,0.0,0.0,-3.0016,-3.0904,-3.1719,-3.119,-3.056,0.0,0.0,0.0,0.0,0.0,0.0,0.0,0.0,0.0,-2.8787,-2.8869,-2.9206,-2.9877,-2.9835,-3.0127,-3.0659,-3.0659,-3.0653,-3.0742,-3.1019,-3.1085,-3.1,-3.1272,-3.1433,-3.1629,-3.2298,-3.1764,-3.0429,0.0,0.0,0.0,0.0,0.0,-2.7527,-2.7224,-2.7128,0.0,0.0,0.0,0.0,0.0,0.0,0.0,0.0,0.0,0.0,0.0,0.0,0.0,-2.3823,-2.4157,-2.4404,-2.4286,-2.4681,-2.5183,0.0,-2.5322,-2.4912,-2.4916,0.0,0.0,0.0,0.0,-2.6026,-2.5706,-2.6021,-2.5977,-2.5257,-2.5535,-2.5929,-2.6293,-2.6517,-2.6649,-2.6663,-2.5957,-2.5308,-2.4833,-2.3743,-2.2858,0.0,0.0,0.0,0.0,0.0,0.0,0.0,0.0,0.0,0.0,0.0,0.0,0.0,0.0,0.0,0.0,0.0,0.0,0.0,0.0,0.0,0.0,0.0,0.0,0.0,0.0,0.0,0.0,-2.9681,-3.0425,-3.1554,-3.1009,-3.0218,0.0,0.0,0.0,0.0,0.0,0.0,-2.7072,-2.7095,-2.7191,-2.7378,-2.7567,-2.7975,-2.8681,-2.8567,-2.8677,-2.8971,-2.9081,-2.8896,-2.8456,-2.8913,-2.8844,-2.8456,-2.8777,-2.8456,-2.7876,-2.9867,-2.9857,-2.8538,-2.7652,-2.6853,-2.6172,-2.6055,-2.5967,-2.5918,-2.5634,-2.5486,-2.5339,-2.5016,0.0,-2.3621,-2.2241,0.0,0.0,0.0,0.0,-2.097,-2.1141,-2.1498,-2.1917,-2.2094,-2.2359,-2.257,-2.257,-2.257,-2.2911,0.0,-2.4199,-2.4052,-2.3847,0.0,0.0,0.0,0.0,-2.4425,-2.4123,-2.4239,-2.4166,-2.3739,-2.3868,-2.42,-2.4697,-2.4994,-2.5259,-2.5466,-2.5184,-2.4865,-2.4603,-2.3464,-2.2582,-2.2024,0.0,0.0,0.0,0.0,0.0,0.0,0.0,0.0,0.0,0.0,0.0,0.0,0.0,0.0,0.0,0.0,0.0,0.0,0.0,0.0,0.0,0.0,0.0,0.0,0.0,0.0,0.0,0.0,0.0,-3.2124,-3.079,0.0,0.0,0.0,0.0,-2.5118,-2.4896,-2.5146,-2.5864,-2.547,-2.5814,-2.7107,-2.665,-2.662,-2.7114,-2.6844,-2.655,-2.6208,-2.6587,-2.6356,-2.5607,-2.5768,-2.5844,-2.5888,-2.563,-2.5192,-2.4841,-2.7512,-2.8096,-2.7155,-2.6803,-2.6338,-2.5937,-2.5886,-2.5886,-2.5876,-2.5857,-2.5645,-2.5355,-2.5077,-2.3608,-2.1674,-2.0179,-1.9352,0.0,0.0,-1.8557,-1.8926,-1.8972,-1.9675,-2.0428,-2.0419,-2.0772,-2.1123,-2.1123,-2.1123,-2.1516,0.0,-2.281,-2.2526,-2.2506,0.0,-2.1988,-2.1878,-2.2377,-2.2664,-2.2438,-2.2662,-2.2819,-2.2855,-2.2856,-2.29,-2.2942,-2.3242,-2.3607,-2.4086,-2.397,-2.4004,-2.4318,-2.3448,-2.2628,-2.1812,-2.0941,0.0,0.0,0.0,0.0,0.0,0.0,0.0,0.0,0.0,0.0,0.0,0.0,0.0,0.0,0.0,0.0,0.0,0.0,0.0,0.0,0.0,0.0,0.0,0.0,0.0,0.0,0.0,0.0,-2.9087,-2.8178,0.0,-2.6944,-2.5825,-2.4966,-2.4651,-2.4574,-2.4514,-2.4445,-2.4603,-2.4804,-2.5091,-2.519,-2.5294,-2.5439,-2.5386,-2.527,-2.5073,-2.527,-2.4968,-2.4386,-2.4421,-2.4058,-2.3355,-2.3302,-2.2872,-2.2403,-2.3236,-2.3673,-2.3864,-2.3749,-2.3345,-2.2863,-2.2863,-2.2863,-2.283,-2.2581,-2.2407,-2.2225,-2.1718,-2.0752,-1.9676,-1.9002,-1.8331,-1.7785,-1.7613,-1.7699,-1.7878,-1.8056,-1.8342,-1.8665,-1.8866,-1.8996,-1.9134,-1.9134,-1.9134,-1.9263,-1.9786,-2.0766,-2.1563,-2.1685,-2.1395,-2.1114,-2.1129,-2.1067,-2.0889,-2.0663,-2.0509,-2.0467,-2.0559,-2.0336,-2.0331,-2.0787,-2.1147,-2.1604,-2.2089,-2.2242,-2.2251,-2.2139,-2.152,-2.0863,-2.0194,-1.9575,-1.9062,0.0,0.0,0.0,0.0,0.0,0.0,0.0,0.0,0.0,0.0,0.0,0.0,0.0,0.0,0.0,0.0,0.0,0.0,0.0,0.0,0.0,0.0,0.0,0.0,0.0,0.0,-2.6357,-2.7062,-2.6257,-2.5459,-2.5094,-2.4104,-2.3358,-2.3035,-2.3035,-2.2885,-2.2534,-2.2783,-2.2886,-2.2741,-2.3022,-2.315,-2.315,-2.315,-2.3082,-2.2963,-2.3218,-2.3001,-2.2401,-2.2537,-2.2112,-2.1274,-2.1168,-2.0849,-2.0361,-2.0208,-2.0369,-2.0758,-2.131,-2.124,-2.0915,-2.0915,-2.0915,-2.0847,-2.034,-2.0106,-1.9925,-1.928,-1.8684,-1.8233,-1.7882,-1.7358,-1.6911,-1.6817,-1.6864,-1.6958,-1.7138,-1.7326,-1.752,-1.7667,-1.7725,-1.7688,-1.7688,-1.7644,-1.7568,-1.7568,-1.8822,-1.9889,-2.0016,-1.9752,-1.9497,-1.9396,-1.9241,-1.9088,-1.8926,-1.8797,-1.884,-1.9014,-1.8779,-1.8788,-1.9226,-1.9572,-1.9993,-2.0522,-2.0698,-2.0761,-2.0663,-2.0229,-1.9728,-1.9176,-1.8591,-1.8155,-1.7945,0.0,0.0,0.0,0.0,0.0,0.0,0.0,0.0,0.0,0.0,0.0,0.0,0.0,0.0,0.0,0.0,0.0,0.0,0.0,0.0,0.0,0.0,0.0,-2.4812,-2.5544,-2.5897,-2.6317,-2.5165,-2.3957,-2.2855,-2.1595,-2.0629,-2.0115,-2.0071,-2.0055,-2.0135,-2.0135,-2.0187,-2.0246,-2.0246,-2.0202,-2.0195,-2.0195,-2.0033,-1.971,-2.0379,-2.0297,-1.9532,-1.9963,-1.9934,-1.9598,-1.9346,-1.9027,-1.8745,-1.8745,-1.844,-1.8103,-1.9614,-2.0233,-2.0226,-2.0226,-2.0219,-2.0062,-1.9433,-1.906,-1.8751,-1.8138,-1.7723,-1.7375,-1.685,-1.6457,-1.613,-1.5879,-1.5981,-1.6177,-1.6177,-1.6555,-1.6979,-1.6965,-1.6907,-1.685,-1.6843,-1.6646,-1.647,-1.647,-1.7019,-1.7507,-1.756,-1.7366,-1.7021,-1.6656,-1.6985,0.0,-1.7261,-1.7576,-1.7958,-1.8364,-1.834,-1.8285,-1.8285,-1.8469,-1.8833,-1.9373,-1.9326,-1.9554,-2.0061,-1.9717,-1.9314,-1.8848,-1.7981,-1.745,-1.7187,0.0,0.0,0.0,0.0,0.0,0.0,0.0,0.0,0.0,0.0,0.0,0.0,0.0,0.0,0.0,0.0,0.0,0.0,0.0,0.0,0.0,0.0,-1.9752,-2.2116,-2.2614,-2.2745,-2.2931,-2.2234,-2.1539,-2.0985,-2.0226,-1.9583,-1.919,-1.9168,-1.9072,-1.8877,-1.887,-1.8812,-1.8655,-1.8655,-1.8447,-1.8074,-1.8074,-1.8032,-1.7896,-1.8124,-1.8182,-1.8139,-1.8261,-1.8145,-1.7815,-1.7721,-1.7562,-1.7296,-1.7296,-1.7201,-1.716,-1.8233,-1.8383,-1.8032,-1.8032,-1.7888,-1.7674,-1.7502,-1.7392,-1.7225,-1.6874,-1.6724,-1.6573,-1.6163,-1.5994,-1.5879,-1.5825,-1.5832,-1.5927,-1.5927,-1.6021,-1.6062,-1.5897,-1.5821,-1.575,-1.5576,-1.5466,-1.5411,-1.5411,-1.5383,-1.5664,-1.6647,-1.6743,-1.6564,-1.6143,-1.6219,0.0,-1.6136,-1.6034,-1.6023,-1.6293,-1.6042,-1.5902,-1.6062,-1.6407,-1.6713,-1.7024,-1.7276,-1.7428,-1.7423,-1.7516,-1.752,-1.7456,-1.6836,-1.6594,0.0,0.0,0.0,0.0,0.0,0.0,0.0,0.0,0.0,0.0,0.0,0.0,0.0,0.0,0.0,0.0,0.0,0.0,0.0,0.0,0.0,0.0,-1.7277,-1.7797,-1.887,-1.9828,-2.0397,-2.0334,-1.9707,-1.9124,-1.8628,-1.8074,-1.7609,-1.7323,-1.7309,-1.718,-1.688,-1.6866,-1.6755,-1.648,-1.6319,-1.6117,-1.5816,-1.5712,-1.5663,-1.5663,-1.5884,-1.6047,-1.6216,-1.6603,-1.6663,0.0,-1.667,-1.667,-1.6513,-1.6513,-1.6513,0.0,0.0,0.0,0.0,0.0,-1.678,-1.6526,-1.6526,-1.6446,-1.6313,-1.6139,-1.6086,-1.6052,-1.5879,-1.5784,-1.5784,-1.5784,-1.5784,-1.5784,-1.5784,-1.5784,-1.5711,-1.5464,-1.5304,-1.5137,-1.4843,-1.4683,-1.464,-1.464,0.0,0.0,-1.5345,-1.5504,-1.5397,-1.5163,-1.5213,-1.5226,-1.5173,-1.5158,-1.5205,-1.5335,-1.5189,-1.515,-1.527,-1.5484,0.0,0.0,0.0,-1.6324,-1.6364,-1.6503,0.0,0.0,0.0,-1.5877,-1.5885,0.0,0.0,0.0,-1.5374,-1.5034,0.0,0.0,0.0,0.0,0.0,0.0,0.0,0.0,0.0,0.0,0.0,0.0,0.0,0.0,0.0,0.0,-1.5524,-1.5646,-1.5513,-1.7043,-1.8155,-1.8106,-1.7488,-1.6844,-1.6218,-1.5727,-1.5329,-1.5097,-1.504,-1.4926,-1.4556,0.0,0.0,0.0,0.0,-1.3709,-1.3613,-1.3372,-1.3221,-1.3227,-1.3739,-1.3996,-1.415,-1.4939,-1.5306,-1.5413,-1.5871,-1.6071,-1.6071,-1.6071,-1.6071,-1.6077,-1.6397,-1.6554,-1.6597,-1.657,-1.6397,0.0,-1.6226,0.0,0.0,-1.5784,-1.5737,-1.5737,-1.5784,-1.5737,-1.5737,-1.5737,-1.5737,-1.5689,-1.5683,-1.5689,-1.5603,-1.5286,-1.506,-1.4781,-1.4499,-1.4226,-1.4046,-1.4088,-1.4088,-1.4088,-1.4088,-1.4088,-1.4088,-1.4088,-1.4243,-1.4356,-1.4356,-1.4748,-1.5006,-1.5006,0.0,0.0,-1.5235,-1.5235,-1.5365,-1.5641,-1.5655,-1.5807,-1.6109,-1.6087,-1.5961,-1.5707,-1.5432,-1.5078,-1.4722,-1.3865,-1.3229,-1.2829,-1.3265,-1.3235,0.0,0.0,0.0,0.0,0.0,0.0,0.0,0.0,0.0,0.0,0.0,0.0,0.0,0.0,0.0,-1.268,-1.2707,-1.2777,-1.2961,-1.3087,-1.3795,-1.5555,-1.5642,-1.5329,-1.4808,-1.4679,-1.4533,-1.4228,-1.4211,-1.41,-1.3748,-1.373,0.0,-1.3022,-1.2974,-1.2543,-1.1727,-1.1678,-1.1629,-1.1634,0.0,0.0,-1.2997,-1.3192,-1.3605,-1.4249,-1.4297,-1.4497,-1.4697,-1.4697,-1.4546,-1.4467,-1.5379,-1.5862,-1.6019,-1.5789,-1.5726,-1.5673,-1.5673,-1.5449,-1.5267,-1.5499,-1.5404,-1.5267,-1.5493,-1.541,0.0,-1.5226,-1.5226,-1.5172,-1.4975,-1.4927,-1.4801,-1.4258,-1.4055,-1.4008,-1.389,-1.3818,-1.3822,-1.4046,-1.4088,-1.4088,-1.4088,-1.4088,-1.4088,-1.4088,-1.4124,-1.4166,-1.4166,-1.425,-1.4292,-1.4292,-1.4334,-1.4334,-1.4334,-1.4334,-1.4457,-1.4706,-1.477,-1.4818,-1.4937,-1.4679,-1.455,-1.4608,-1.4146,-1.3755,-1.3431,-1.2475,-1.1731,-1.1238,-1.1764,-1.1721,0.0,0.0,0.0,0.0,0.0,0.0,0.0,0.0,0.0,0.0,0.0,-1.3075,0.0,0.0,-1.1476,-1.1393,-1.1449,-1.1423,-1.1381,-1.1291,-1.1773,-1.3231,-1.315,-1.2858,-1.2628,-1.246,-1.2348,-1.2187,-1.2181,-1.2131,-1.197,-1.1965,-1.1814,-1.157,-1.1424,-1.1086,-1.0609,-1.0462,-1.0413,-1.0413,-1.056,-1.0846,-1.1375,-1.177,-1.216,-1.2597,-1.3076,-1.3366,-1.3511,-1.3511,-1.3275,-1.3001,-1.3519,-1.4199,-1.491,-1.4923,-1.4921,-1.4921,-1.4921,-1.4825,-1.4736,-1.4873,-1.4831,-1.4688,-1.4675,-1.4634,-1.4496,-1.4346,-1.4298,-1.425,-1.4148,-1.41,-1.4005,-1.3565,-1.3568,-1.3562,-1.3249,-1.3386,-1.3595,-1.378,-1.4002,-1.4177,-1.4322,-1.4316,-1.4255,-1.4108,-1.4088,-1.4088,-1.4088,-1.4088,-1.4039,-1.3913,-1.3913,-1.3828,-1.361,-1.3696,-1.3881,-1.4111,-1.4298,-1.4352,-1.4263,-1.4002,-1.3761,-1.3567,-1.3005,-1.2506,-1.1965,-1.1194,-1.0511,-1.0019,-0.9913,-0.9922,0.0,0.0,0.0,0.0,0.0,0.0,0.0,0.0,-1.4212,-1.3482,-1.2552,-1.176,-1.1328,-1.0783,-1.0433,-1.0456,-1.052,-1.0457,-1.0144,-1.0254,-1.0484,-1.0957,-1.0768,-1.063,-1.0595,-1.0352,-1.0216,-1.0216,-1.0216,-1.0216,-1.0216,-1.0216,-1.0216,-1.0167,-0.9969,-0.9772,-0.9673,-0.9476,-0.9377,-0.9377,-0.9575,-0.9723,-0.9871,-1.0511,-1.085,-1.0998,-1.1863,-1.2247,-1.2247,-1.2198,-1.1965,-1.159,-1.159,-1.2262,-1.3221,-1.3763,-1.4004,-1.4004,-1.4004,-1.3908,-1.3859,-1.3956,-1.3908,-1.3811,-1.3709,-1.3613,-1.3474,-1.3275,-1.3227,-1.3173,-1.3076,-1.3028,-1.2967,-1.2725,-1.2858,-1.2973,-1.2619,-1.291,-1.3308,-1.3396,-1.3762,-1.4147,-1.4417,-1.4402,-1.4328,-1.4215,-1.4079,-1.3997,-1.3997,-1.3955,-1.3828,-1.361,-1.3519,-1.3307,-1.2924,-1.3126,-1.3411,-1.3586,-1.3843,-1.3828,-1.3642,-1.3372,-1.2968,-1.2387,-1.1921,-1.1277,-1.0489,-0.9958,-0.9425,-0.8935,-0.8367,-0.8392,-1.8064,-1.7221,-1.6354,-1.5246,-1.4648,-1.3986,0.0,0.0,-1.1859,-1.0974,-1.0791,-1.0543,-0.9847,-0.9754,-0.9548,-0.9015,-0.8977,-0.8915,-0.8741,-0.8619,-0.8601,-0.8653,-0.9466,-0.9924,-0.9772,-0.969,-0.9677,-0.9677,-0.9677,-0.9677,-0.9677,-0.9677,-0.9579,-0.9331,-0.9282,-0.9084,-0.8581,-0.8531,-0.8531,-0.8531,-0.8581,-0.8832,-0.9286,-0.9381,-0.9677,-1.0167,-1.0507,-1.0654,-1.0654,-1.0408,-1.0261,-1.0216,-1.0216,-1.0314,-1.065,-1.2296,-1.2877,-1.2877,-1.2877,-1.2597,-1.2316,-1.2737,-1.2597,-1.2316,-1.2737,-1.2549,-1.2219,-1.217,-1.217,-1.2073,-1.1585,-1.1438,-1.138,-1.1111,-1.1248,-1.1561,-1.1911,-1.241,-1.2819,-1.3001,-1.3278,-1.3562,-1.3824,-1.3896,-1.4008,-1.4385,-1.4035,-1.3737,-1.3737,-1.344,-1.3185,-1.3185,-1.279,-1.2448,-1.2143,-1.2418,-1.2701,-1.2921,-1.2774,-1.2697,-1.2653,-1.2159,-1.1591,-1.0855,-1.0586,-1.0138,-0.9375,-0.8863,-0.8447,-0.8117,-0.782,-0.7896,-1.516,-1.4058,-1.3005,-1.2082,-1.1433,-1.0775,-1.0023,-0.9783,-0.9684,-0.9469,-0.9545,-0.964,-0.9465,-0.9313,-0.9099,0.0,-0.8696,-0.8526,-0.8381,-0.8357,-0.8238,-0.8147,-0.8532,-0.8753,-0.8691,-0.8684,-0.8684,-0.8684,-0.8684,-0.8684,-0.8684,-0.8684,-0.8638,-0.8489,-0.8489,-0.8386,-0.8187,-0.8187,-0.8187,-0.8187,-0.8187,-0.8287,-0.8489,-0.8684,-0.9031,-0.9529,-0.9677,-0.9723,-0.9677,-0.9579,-0.9426,-0.9324,-0.9324,-0.9377,-0.9677,-1.089,-1.138,-1.138,-1.138,-1.1238,-1.1096,-1.1282,-1.1238,-1.1096,-1.1135,-1.0993,-1.0801,-1.0659,-1.0609,-1.0556,-1.0314,-1.0265,-1.0243,-1.0112,-1.0431,-1.0759,-1.0834,-1.1355,-1.1828,-1.1957,-1.2376,-1.2845,-1.3127,-1.3269,-1.3464,-1.3671,-1.3648,-1.349,-1.3155,-1.2881,-1.2534,-1.21,-1.137,-1.1025,-1.1154,-1.1065,-1.1123,-1.1516,-1.1429,-1.1341,-1.121,-1.0728,-1.0263,-0.98,-0.9431,-0.9024,-0.8481,-0.8294,-0.8016,-0.7785,-0.7555,-0.7591,-1.2142,-1.0947,-0.9836,-0.8884,-0.8195,-0.7674,-0.7122,-0.7166,-0.7371,-0.7547,-0.8085,-0.8608,-0.8864,-0.8881,-0.8794,-0.8767,-0.8567,-0.8374,-0.8228,-0.8208,-0.8167,-0.8005,-0.7988,-0.7988,-0.7988,-0.7942,-0.7892,-0.7892,-0.7739,-0.769,-0.7789,-0.769,-0.7743,-0.7892,-0.7892,-0.7942,-0.7988,-0.7988,-0.7988,-0.7988,-0.7988,-0.7988,-0.7988,-0.8187,-0.8485,-0.8886,-0.8886,-0.8886,-0.8886,-0.8886,-0.8733,-0.8581,-0.8581,-0.8684,-0.8935,-0.9525,-0.9867,-1.0068,-1.0068,-1.0015,-0.9965,-1.0019,-1.0015,-0.9916,-0.9821,-0.9723,-0.9624,-0.9426,-0.9377,-0.9377,-0.9278,-0.9278,-0.9278,-0.9278,-0.9673,-1.003,-0.9982,-1.0583,-1.1067,-1.101,-1.1484,-1.1965,-1.2221,-1.2454,-1.2605,-1.2681,-1.2734,-1.2684,-1.2517,-1.2076,-1.1484,-1.0722,-1.0024,-0.9724,-1.0024,-0.9724,-0.9724,-1.0111,-1.0072,-1.0028,-0.9898,-0.9467,-0.9098,-0.8833,-0.8436,-0.8045,-0.7745,-0.7745,-0.7656,-0.7472,-0.736,-0.7309,-0.8786,-0.7911,-0.6898,-0.5515,-0.5066,-0.4688,-0.3521,-0.4076,-0.4815,-0.4822,-0.6196,-0.742,-0.7642,-0.8221,-0.8625,-0.8336,-0.8333,-0.8221,-0.8019,-0.7995,-0.7995,-0.7988,-0.7988,-0.7988,0.0,-0.7743,-0.7596,-0.7596,-0.7144,-0.6942,-0.7188,-0.6992,-0.7095,-0.7596,-0.7596,-0.7746,-0.7988,-0.7988,-0.7988,-0.7988,-0.7988,-0.7988,-0.7988,-0.7988,-0.8041,-0.8038,-0.8038,-0.8038,-0.8038,-0.8038,-0.8038,-0.8038,-0.8038,-0.8038,-0.8038,-0.8038,-0.8588,-0.9236,-0.9236,-0.908,-0.8874,-0.9133,-0.908,-0.8874,-0.9133,-0.9031,-0.8825,-0.8825,-0.8825,-0.8775,-0.8482,-0.8432,-0.8432,-0.8432,-0.8832,-0.9282,-0.9571,-1.0256,-1.0748,-1.0453,-1.0645,-1.0944,-1.1194,-1.1238,-1.1356,-1.1615,-1.1185,-1.115,-1.1814,-1.095,-0.9936,-0.9082,-0.8934,-0.8851,-0.8679,-0.8636,-0.8719,-0.8934,-0.8763,-0.8763,-0.8934,-0.8504,-0.8113,-0.786,-0.7643,-0.7377,-0.7109,-0.7109,-0.7109,-0.7109,-0.7105,-0.7102,-0.5493,-0.4328,-0.319,-0.2167,-0.1916,-0.1871,-0.1487,-0.2356,-0.3437,-0.3819,-0.5398,-0.6856,-0.7248,-0.7936,-0.8387,-0.8337,-0.8184,-0.8099,-0.7995,-0.7988,-0.7988,-0.7988,-0.7988,0.0,0.0,0.0,0.0,-0.7341,-0.6839,-0.6489,-0.6389,-0.6342,-0.6442,-0.6789,-0.6992,-0.7294,-0.7746,-0.7746,-0.7842,-0.7988,-0.7988,-0.7988,-0.7988,-0.7988,-0.7988,-0.7988,-0.7988,-0.7988,-0.7988,-0.7988,-0.7988,-0.7988,-0.7988,-0.7988,-0.7988,-0.7988,-0.8187,-0.8389,-0.8389,-0.8336,-0.8283,-0.8386,-0.8336,-0.8283,-0.8386,-0.8336,-0.8283,-0.8283,-0.8283,-0.8237,-0.8137,-0.8137,-0.8137,-0.8137,-0.8386,-0.8684,-0.8783,-0.9171,-0.9468,-0.9369,-0.9571,-0.9776,-0.9875,-1.0019,-1.0096,-1.0028,-1.0183,-1.0315,-1.0204,-0.9578,-0.9009,-0.8612,-0.8278,-0.8098,-0.8124,-0.7984,-0.7984,-0.8201,-0.8157,-0.8157,-0.8245,-0.7896,-0.768,-0.7591,-0.7367,-0.7187,-0.7095,-0.7095,-0.7095,-0.7095,-0.7095,-0.7095,-0.2652,-0.1457,-0.0422,0.0323,0.0379,0.0271,0.0271,-0.0912,-0.2234,-0.3029,-0.4755,-0.6364,-0.6997,-0.7721,-0.8187,-0.8187,-0.8006,-0.7842,-0.7842,-0.7693,-0.759,-0.759,-0.749,-0.7338,0.0,0.0,0.0,-0.6637,-0.5937,-0.5486,-0.5288,-0.5085,-0.5284,-0.5934,-0.6239,-0.6742,-0.7444,-0.7547,-0.7746,-0.7988,-0.7988,-0.7988,-0.7988,-0.7988,-0.7988,-0.7988,-0.7988,-0.7988,-0.7988,-0.7988,-0.7988,-0.7988,-0.7988,-0.7988,-0.7988,-0.7988,-0.7988,-0.7988,-0.7988,-0.7988,-0.7988,-0.7988,-0.7988,-0.7988,-0.7988,-0.7988,-0.7988,-0.7988,-0.7988,-0.7988,-0.7988,-0.7988,-0.7988,-0.7988,-0.8187,-0.8382,-0.8382,-0.8627,-0.8775,-0.8676,-0.8783,-0.8935,-0.8935,-0.913,-0.9229,-0.8935,-0.9231,-0.9345,-0.8958,-0.8662,-0.8363,-0.8156,-0.7862,-0.7685,-0.7768,-0.7576,-0.7544,-0.7719,-0.7664,-0.7632,-0.7632,-0.7455,-0.7395,-0.7454,-0.7313,-0.7221,-0.7221,-0.7221,-0.7149,-0.7095,-0.7095,-0.7095,-0.0102,0.0827,0.1558,0.2063,0.1967,0.1754,0.1701,0.0372,-0.1221,-0.2333,-0.4235,-0.5992,0.0,0.0,-0.7992,-0.7992,-0.7743,-0.7547,-0.7547,-0.7095,-0.6745,0.0,0.0,0.0,0.0,0.0,0.0,-0.5434,0.0,-0.3932,-0.3932,-0.3426,-0.3725,-0.5029,-0.5334,-0.6037,-0.7086,-0.7444,-0.7746,-0.7992,-0.7988,-0.7988,-0.7988,-0.7988,-0.7988,-0.7988,-0.7988,-0.7988,-0.7988,-0.7988,-0.7988,-0.7988,-0.7988,-0.7988,-0.7988,-0.7988,-0.7988,-0.7988,-0.7988,-0.7988,-0.7988,-0.7988,-0.7988,-0.7988,-0.7988,-0.7988,-0.7988,-0.7988,-0.7988,-0.7988,-0.7988,-0.7988,-0.7988,-0.7988,-0.8187,-0.8382,-0.8382,-0.8581,-0.8676,-0.8432,-0.8382,-0.8382,-0.8382,-0.8577,-0.8676,-0.8432,-0.8382,-0.8333,-0.8191,-0.8174,-0.8017,-0.7675,-0.7611,-0.7607,-0.76,-0.7465,-0.7429,-0.7429,-0.7244,-0.7119,-0.7119,-0.7119,-0.7231,-0.7426,-0.7429,-0.7429,-0.7429,-0.7419,-0.7295,-0.7109,-0.7098,-0.7095,0.2965,0.3771,0.4412,0.4968,0.4573,0.3854,0.3024,0.1083,-0.0919,-0.2195,-0.4322,-0.6136,0.0,0.0,0.0,-0.7693,-0.7294,0.0,-0.6739,-0.6439,0.0,-0.5937,0.0,-0.5634,-0.5233,-0.4883,0.0,0.0,-0.3325,-0.3225,-0.2823,-0.247,-0.2621,-0.3377,-0.388,-0.4732,-0.5987,-0.7042,-0.7646,-0.7693,-0.7892,-0.7988,-0.7988,-0.7988,-0.7988,-0.7988,-0.7988,-0.7988,-0.7988,-0.7988,-0.7988,-0.7988,-0.7988,-0.7988,-0.7988,-0.7988,-0.7988,-0.7988,-0.7988,-0.7988,-0.7988,-0.7988,-0.7988,-0.7988,-0.7988,-0.7988,-0.7988,-0.7988,-0.7988,-0.7988,-0.7988,-0.7988,-0.7988,-0.7988,-0.8038,-0.8088,-0.8088,-0.8137,-0.8187,-0.8137,-0.8088,-0.8088,-0.8088,-0.8137,-0.8184,-0.8088,-0.8088,-0.8074,-0.8037,-0.8033,-0.7975,-0.7773,-0.7756,-0.7716,-0.7607,-0.7563,-0.7543,-0.7543,-0.7506,-0.7482,-0.7482,-0.7482,-0.7502,-0.7539,-0.7543,-0.7543,-0.7543,-0.7428,-0.7353,-0.7309,-0.7149,-0.7095,0.5273,0.5966,0.6345,0.6565,0.5914,0.4849,0.3423,0.1165,-0.1056,-0.2766,-0.4728,-0.6392,-0.7045,-0.7441,-0.7636,0.0,0.0,0.0,-0.6014,-0.5298,-0.4725,0.0,-0.4329,0.0,-0.3778,-0.3527,-0.2972,0.0,-0.2319,-0.2268,-0.1716,-0.1463,-0.1665,-0.2422,-0.2874,-0.3828,-0.5432,-0.6539,-0.7191,-0.7444,-0.7693,-0.7892,-0.7988,-0.7988,-0.7988,-0.7988,0.0,-0.7988,-0.7988,-0.7988,-0.7988,-0.7988,-0.7988,-0.7988,-0.7988,-0.7988,-0.7988,-0.7988,-0.7988,-0.7988,-0.7988,-0.7988,-0.7988,-0.7988,-0.7988,-0.7988,-0.7988,-0.7988,-0.7988,-0.7988,-0.7988,-0.7988,-0.7988,-0.7988,-0.7988,-0.7988,-0.7988,-0.7988,-0.7988,-0.7988,-0.7988,-0.7988,-0.7988,-0.7988,-0.7988,-0.7988,-0.7988,-0.7988,-0.7988,-0.7988,-0.7958,-0.7919,-0.7913,-0.7879,-0.7801,-0.7733,-0.7692,-0.7692,-0.7634,-0.76,-0.76,-0.76,-0.7631,-0.7692,-0.7692,-0.7692,-0.7692,-0.7543,-0.7438,-0.7412,-0.7214,-0.7095,0.727,0.7773,0.7875,0.758,0.6625,0.5218,0.3213,0.0854,-0.1509,-0.3671,-0.5381,-0.6689,-0.7444,-0.7689,-0.7623,-0.7334,0.0,-0.5641,-0.5201,-0.3992,-0.314,-0.299,-0.2575,-0.2269,-0.222,-0.2017,-0.1765,-0.1462,-0.1462,-0.1261,-0.0758,-0.0505,-0.0808,-0.1816,-0.2219,-0.3225,-0.4929,-0.5782,-0.6487,-0.7039,-0.7394,-0.7693,-0.7939,-0.7988,-0.7988,-0.7988,0.0,0.0,-0.7988,-0.7988,-0.7988,-0.7988,-0.7988,-0.7988,-0.7988,-0.7988,-0.7988,-0.7988,-0.7988,-0.7988,-0.7988,-0.7988,-0.7988,-0.7988,-0.7988,-0.7988,-0.7988,-0.7988,-0.7988,-0.7988,-0.7988,-0.7988,-0.7988,-0.7988,-0.7988,-0.7988,-0.7988,-0.7988,-0.7988,-0.7988,-0.7988,-0.7988,-0.7988,-0.7988,-0.7988,-0.7988,-0.7988,-0.7988,-0.7988,-0.7988,-0.7988,-0.7988,-0.7988,-0.7988,-0.7988,-0.787,-0.7841,-0.7841,-0.7726,-0.7658,-0.7658,-0.7658,-0.7716,-0.7838,-0.7841,-0.7831,-0.7811,-0.7668,-0.7519,-0.7412,-0.7214,-0.7105,0.9497,0.9895,0.9797,0.9312,0.7855,0.5854,0.3106,0.0452,0.0,-0.4221,-0.5782,-0.6892,-0.7497,-0.7459,-0.7157,-0.6702,-0.5759,-0.4754,-0.3805,-0.3086,-0.2434,0.0,-0.1781,-0.1665,-0.1414,-0.1364,0.0,0.0,0.0,-0.0555,-0.0455,-0.0202,-0.0353,-0.101,-0.1917,-0.2773,-0.3525,-0.4778,-0.5684,-0.6242,-0.6939,-0.7391,-0.7696,-0.7892,-0.7988,-0.7988,-0.7988,0.0,-0.7988,-0.7988,-0.7988,-0.7988,-0.7988,-0.7988,-0.7988,-0.7988,-0.7988,-0.7988,-0.7988,-0.7988,-0.7988,-0.7988,-0.7988,-0.7988,-0.7988,-0.7988,-0.7988,-0.7988,-0.7988,-0.7988,-0.7988,-0.7988,-0.7988,-0.7988,-0.7988,-0.7988,-0.7988,-0.7988,-0.7988,-0.7988,-0.7988,-0.7988,-0.7988,-0.7988,-0.7988,-0.7988,-0.7988,-0.7988,-0.7988,-0.7988,-0.7988,-0.7988,-0.7988,-0.7988,-0.7988,-0.7965,-0.7948,-0.7948,-0.7928,-0.7914,-0.7914,-0.7914,-0.7924,-0.7948,-0.7948,-0.7887,-0.7811,-0.7668,-0.7519,-0.7412,-0.7214,-0.721,1.1033,1.1331,1.1033,1.0243,0.8192,0.5579,0.237,0.0,0.0,-0.53,-0.6588,-0.7405,-0.773,-0.755,-0.7163,-0.6608,-0.5466,-0.4257,-0.3298,-0.2273,-0.1521,-0.1039,-0.0868,-0.0707,0.0,-0.0556,0.0,0.0,0.0,-0.0202,-0.0202,-0.0202,-0.0404,-0.0808,-0.1565,-0.2321,-0.2975,-0.4029,-0.4983,-0.5789,-0.6589,-0.7191,-0.7596,-0.7892,-0.7988,-0.7988,-0.7988,0.0,-0.7988,-0.7988,-0.7988,-0.7988,-0.7988,-0.7988,-0.7988,-0.7988,-0.7988,-0.7988,-0.7988,-0.7988,-0.7988,-0.7988,-0.7988,-0.7988,-0.7988,-0.7988,-0.7988,-0.7988,-0.7988,-0.7988,-0.7988,-0.7988,-0.7988,-0.7988,-0.7988,-0.7988,-0.7988,-0.7988,-0.7988,-0.7988,-0.7988,-0.7988,-0.7988,-0.7988,-0.7988,-0.7988,-0.7988,-0.7988,-0.7988,-0.7988,-0.7988,-0.7988,-0.7988,-0.7988,-0.7988,-0.7988,-0.7988,-0.7988,-0.7988,-0.7988,-0.7988,-0.7988,-0.7988,-0.7988,-0.7911,-0.7885,-0.7811,-0.759,-0.7444,-0.7415,-0.7295,-0.7299,1.2214,1.2462,1.1922,1.073,0.8076,0.4909,0.1413,-0.1847,-0.4633,-0.6546,-0.7421,-0.7903,-0.806,-0.773,-0.7256,0.0,-0.5349,-0.4087,-0.309,-0.1805,-0.0844,0.0,-0.0153,0.0,0.0,0.0,0.0,0.0,0.0,0.0,0.0,-0.0202,-0.0455,-0.0707,-0.1162,-0.1818,-0.2623,-0.3429,-0.4383,-0.5436,-0.6289,-0.6992,-0.7543,-0.7842,-0.7988,-0.7988,-0.7988,0.0,0.0,-0.7988,-0.7988,-0.7988,-0.7988,-0.7988,-0.7988,-0.7988,-0.7988,-0.7988,-0.7988,-0.7988,-0.7988,-0.7988,-0.7988,-0.7988,-0.7988,-0.7988,-0.7988,-0.7988,-0.7988,-0.7988,-0.7988,-0.7988,-0.7988,-0.7988,-0.7988,-0.7988,-0.7988,-0.7988,-0.7988,-0.7988,-0.7988,-0.7988,-0.7988,-0.7988,-0.7988,-0.7988,-0.7988,-0.7988,-0.7988,-0.7988,-0.7988,-0.7988,-0.7988,-0.7988,-0.7988,-0.7988,-0.7988,-0.7988,-0.7988,-0.7988,-0.7988,-0.7988,-0.7988,-0.7988,-0.7874,-0.7845,-0.7811,-0.7546,-0.7421,-0.7463,-0.7433,-0.745,1.3028,1.3184,1.2603,1.0814,0.7806,0.4201,0.0195,0.0,-0.5705,-0.7559,-0.7997,-0.8143,-0.8305,-0.7952,-0.7353,-0.6651,0.0,-0.4393,-0.3079,-0.1943,-0.104,-0.0467,0.0,0.0,0.0,0.0,0.0,0.0,0.0,0.0,0.0,0.0,-0.0152,-0.0404,-0.0707,-0.1262,-0.2068,-0.2875,-0.3831,-0.4885,-0.5937,-0.6736,-0.7238,-0.7789,-0.7988,-0.7988,-0.7988,0.0,0.0,-0.7988,-0.7988,-0.7988,-0.7988,-0.7988,-0.7988,-0.7988,-0.7988,-0.7988,-0.7988,-0.7988,-0.7988,-0.7988,-0.7988,-0.7988,-0.7988,-0.7988,-0.7988,-0.7988,-0.7988,-0.7988,-0.7988,-0.7988,-0.7988,-0.7988,-0.7988,-0.7988,-0.7988,-0.7988,-0.7988,-0.7988,-0.7988,-0.7988,-0.7988,-0.7988,-0.7988,-0.7988,-0.7988,-0.7988,-0.7988,-0.7988,-0.7988,-0.7988,-0.7988,-0.7988,-0.7988,-0.7988,-0.7988,-0.7988,-0.7988,-0.7988,-0.7988,-0.7988,-0.7988,-0.7988,-0.7975,-0.7901,-0.7811,-0.7655,-0.758,-0.7577,-0.7438,-0.7516,1.2646,1.2851,1.2209,1.016,0.6741,0.2863,-0.1051,0.0,-0.705,-0.8416,-0.8785,-0.8819,-0.8508,-0.8125,-0.7609,-0.6807,-0.5804,0.0,-0.3294,-0.2187,-0.1245,-0.0467,-0.0153,0.0,0.0,0.0,0.0,0.0,0.0,0.0,0.0,0.0,-0.0202,-0.0606,-0.0909,-0.1515,-0.2472,-0.3278,-0.4234,-0.5286,-0.6187,-0.6942,-0.7444,-0.7839,-0.7988,-0.7988,-0.7988,0.0,0.0,-0.7988,-0.7988,-0.7988,-0.7988,-0.7988,-0.7988,-0.7988,-0.7988,-0.7988,-0.7988,-0.7988,-0.7988,-0.7988,-0.7988,-0.7988,-0.7988,-0.7988,-0.7988,-0.7988,-0.7988,-0.7988,-0.7988,-0.7988,-0.7988,-0.7988,-0.7988,-0.7988,-0.7988,-0.7988,-0.7988,-0.7988,-0.7988,-0.7988,-0.7988,-0.7988,-0.7988,-0.7988,-0.7988,-0.7988,-0.7988,-0.7988,-0.7988,-0.7988,-0.7988,-0.7988,-0.7988,-0.7988,-0.7988,-0.7988,-0.7988,-0.7988,-0.7988,-0.7988,-0.7988,-0.7988,-0.7897,-0.7872,-0.7811,-0.7668,-0.76,-0.76,-0.7624,-0.7699,1.1244,1.1463,1.0711,0.8554,0.5034,0.1102,-0.2641,0.0,-0.8438,-0.944,-0.9605,-0.9422,-0.8844,-0.8378,-0.7889,-0.7144,-0.6156,-0.508,-0.3851,-0.2569,-0.1492,-0.0721,0.0,0.0,0.0,0.0,0.0,0.0,0.0,0.0,0.0,0.0,-0.0202,-0.0657,-0.101,-0.1667,-0.2674,-0.3629,-0.4634,-0.5636,-0.6489,-0.7144,-0.7596,-0.7892,-0.7988,-0.7988,0.0,0.0,0.0,-0.7988,-0.7988,-0.7988,-0.7988,-0.7988,-0.7988,-0.7988,-0.7988,-0.7988,-0.7988,-0.7988,-0.7988,-0.7988,-0.7988,-0.7988,-0.7988,-0.7988,-0.7988,-0.7988,-0.7988,-0.7988,-0.7988,-0.7988,-0.7988,-0.7988,-0.7988,-0.7988,-0.7988,-0.7988,-0.7988,-0.7988,-0.7988,-0.7988,-0.7988,-0.7988,-0.7988,-0.7988,-0.7988,-0.7988,-0.7988,-0.7988,-0.7988,-0.7988,-0.7988,-0.7988,-0.7988,-0.7988,-0.7988,-0.7988,-0.7988,-0.7988,-0.7988,-0.7988,-0.7988,-0.7988,-0.7884,-0.7879,-0.7879,-0.7733,-0.7685,-0.7733,-0.7787,-0.7834,0.8781,0.8826,0.7924,0.577,0.2543,-0.1055,-0.4806,-0.7601,-0.9665,-1.0666,-1.0469,-0.9932,-0.9415,-0.8815,-0.8233,-0.7696,-0.6695,-0.5691,-0.4887,-0.3175,-0.1817,0.0,0.0,0.0,0.0,0.0,0.0,0.0,0.0,0.0,0.0,0.0,-0.0101,-0.0404,-0.0909,-0.1565,-0.2422,-0.3726,-0.478,-0.5636,-0.6686,-0.7341,-0.7596,-0.7892,-0.7988,0.0,0.0,0.0,0.0,-0.7988,-0.7988,-0.7988,-0.7988,-0.7988,-0.7988,-0.7988,-0.7988,-0.7988,-0.7988,-0.7988,-0.7988,-0.7988,-0.7988,-0.7988,-0.7988,-0.7988,-0.7988,-0.7988,-0.7988,-0.7988,-0.7988,-0.7988,-0.7988,-0.7988,-0.7988,-0.7988,-0.7988,-0.7988,-0.7988,-0.7988,-0.7988,-0.7988,-0.7988,-0.7988,-0.7988,-0.7988,-0.7988,-0.7988,-0.7988,-0.7988,-0.7988,-0.7988,-0.7988,-0.7988,-0.7988,-0.7988,-0.7988,-0.7988,-0.7988,-0.7988,-0.7988,-0.7988,-0.7988,-0.7988,-0.7988,-0.7988,-0.7985,-0.7882,-0.7885,-0.7982,-0.7882,-0.7892,0.4491,0.4563,0.3818,0.1883,-0.0917,-0.3953,-0.6855,-0.9201,-1.0824,-1.1353,-1.1146,-1.0697,-0.9974,-0.9216,-0.8552,-0.7975,-0.6989,-0.5937,0.0,0.0,0.0,-0.1263,-0.0505,0.0,0.0,0.0,0.0,0.0,0.0,0.0,0.0,0.0,-0.0101,-0.0404,-0.0909,-0.1565,-0.2371,-0.3728,-0.478,-0.5636,-0.6686,-0.7341,-0.7596,-0.7892,0.0,0.0,0.0,0.0,0.0,-0.7988,-0.7988,-0.7988,-0.7988,-0.7988,-0.7988,-0.7988,-0.7988,-0.7988,-0.7988,-0.7988,-0.7988,-0.7988,-0.7988,-0.7988,-0.7988,-0.7988,-0.7988,-0.7988,-0.7988,-0.7988,-0.7988,-0.7988,-0.7988,-0.7988,-0.7988,-0.7988,-0.7988,-0.7988,-0.7988,-0.7988,-0.7988,-0.7988,-0.7988,-0.7988,-0.7988,-0.7988,-0.7988,-0.7988,-0.7988,-0.7988,-0.7988,-0.7988,-0.7988,-0.7988,-0.7988,-0.7988,-0.7988,-0.7988,-0.7988,-0.7988,-0.7988,-0.7988,-0.7988,-0.7988,-0.7988,-0.7988,-0.7988,-0.7941,-0.7941,-0.7988,-0.7941,-0.7944,-0.0736,-0.0297,-0.0937,-0.2304,-0.4538,0.0,-0.8963,-1.0676,-1.1886,-1.2057,-1.1855,-1.1368,-1.0403,-0.9616,-0.895,-0.8269,-0.7185,-0.6087,0.0,0.0,0.0,-0.0858,0.0,0.0,0.0,0.0,0.0,0.0,0.0,0.0,0.0,0.0,-0.0099,-0.0247,-0.0853,-0.1515,-0.2219,-0.3676,-0.478,-0.5636,-0.6686,-0.7341,-0.7596,-0.7892,0.0,0.0,0.0,0.0,0.0,-0.7988,-0.7988,-0.7988,-0.7988,-0.7988,-0.7988,-0.7988,-0.7988,-0.7988,-0.7988,-0.7988,-0.7988,-0.7988,-0.7988,-0.7988,-0.7988,-0.7988,-0.7988,-0.7988,-0.7988,-0.7988,-0.7988,-0.7988,-0.7988,-0.7988,-0.7988,-0.7988,-0.7988,-0.7988,-0.7988,-0.7988,-0.7988,-0.7988,-0.7988,-0.7988,-0.7988,-0.7988,-0.7988,-0.7988,-0.7988,-0.7988,-0.7988,-0.7988,-0.7988,-0.7988,-0.7988,-0.7988,-0.7988,-0.7988,-0.7988,-0.7988,-0.7988,-0.7988,-0.7988,-0.7988,-0.7988,-0.7988,-0.7988,-0.7988,-0.7988,-0.7988,-0.7988,-0.7988,0.0,-0.5728,-0.6056,-0.6633,-0.8114,-0.9775,-1.0935,-1.2006,0.0,-1.2705,-1.2491,-1.1925,-1.0648,-0.9979,-0.93,-0.8528,-0.7285,-0.6187,0.0,-0.3677,0.0,0.0,0.0,0.0,0.0,0.0,0.0,0.0,0.0,0.0,0.0,0.0,0.0,0.0,-0.0741,-0.1409,-0.1963,-0.3524,-0.468,-0.5536,-0.6637,-0.7288,-0.7596,-0.7892,0.0,0.0,0.0,0.0,0.0,-0.7988,-0.7988,-0.7988,-0.7988,-0.7988,-0.7988,-0.7988,-0.7988,-0.7988,-0.7988,-0.7988,-0.7988,-0.7988,-0.7988,-0.7988,-0.7988,-0.7988,-0.7988,-0.7988,-0.7988,-0.7988,-0.7988,-0.7988,-0.7988,-0.7988,-0.7988,-0.7988,-0.7988,-0.7988,-0.7988,-0.7988,-0.7988,-0.7988,-0.7988,-0.7988,-0.7992,-0.8005,-0.8005,-0.8005,-0.8005,-0.8005,-0.8002,-0.7992,-0.7988,-0.7988,-0.7988,-0.7988,-0.7988,-0.7988,-0.7988,-0.7988,-0.7988,-0.7988,-0.7988,-0.7988,-0.7988,-0.7988,-0.7988,-0.7988,-0.7988,-0.7988,-0.7988,-0.7988,-1.2729,0.0,-1.0109,-1.0274,-1.112,-1.1975,0.0,-1.2811,-1.3094,-1.2577,-1.2272,-1.1783,-1.0854,-0.997,-0.9166,-0.851,-0.7285,-0.6084,-0.5135,0.0,0.0,0.0,0.0,0.0,0.0,0.0,0.0,0.0,0.0,0.0,0.0,0.0,0.0,0.0,-0.0385,-0.0828,-0.1383,-0.2554,-0.3677,-0.468,-0.5984,-0.6836,-0.7291,-0.7789,0.0,0.0,0.0,0.0,-0.7988,-0.7988,-0.7988,-0.7988,-0.7988,-0.7988,-0.7988,-0.7988,-0.7988,-0.7988,-0.7988,-0.7988,-0.7988,-0.7988,-0.7988,-0.7988,-0.7988,-0.7988,-0.7988,-0.7988,-0.7988,-0.7988,-0.7988,-0.7988,-0.7988,-0.7988,-0.7988,-0.7988,-0.7988,-0.7988,-0.7988,-0.7988,-0.7988,-0.7988,-0.7988,-0.7988,-0.8029,-0.8197,-0.8214,-0.8214,-0.8214,-0.8214,-0.817,-0.8002,-0.7988,-0.7988,-0.7988,-0.7988,-0.7988,-0.7988,-0.7988,-0.7988,-0.7988,-0.7988,-0.7988,-0.7988,-0.7988,-0.7988,-0.7988,-0.7988,-0.7988,-0.7988,-0.7988,-0.7988,-1.5198,-1.4166,-1.3,-1.2636,-1.3083,-1.3477,-1.3106,-1.3206,-1.3222,-1.2534,-1.2185,-1.1706,-1.0685,-0.9815,-0.8961,-0.8166,-0.6933,0.0,0.0,0.0,-0.0909,0.0,0.0,0.0,0.0,0.0,0.0,0.0,0.0,0.0,0.0,0.0,0.0,0.0,-0.014,-0.0522,-0.1211,-0.2103,-0.3144,-0.4319,-0.559,-0.6503,-0.7196,-0.776,-0.7988,0.0,0.0,0.0,-0.7988,-0.7988,-0.7988,-0.7988,-0.7988,-0.7988,-0.7988,-0.7988,-0.7988,-0.7988,-0.7988,-0.7988,-0.7988,-0.7988,-0.7988,-0.7988,-0.7988,-0.7988,-0.7988,-0.7988,-0.7988,-0.7988,-0.7988,-0.7988,-0.7988,-0.7988,-0.7988,-0.7988,-0.7988,-0.7988,-0.7988,-0.7988,-0.7988,-0.7988,-0.7988,-0.7988,-0.8092,-0.8248,-0.8323,-0.8344,-0.836,-0.8367,-0.8309,-0.8163,-0.8147,-0.8116,-0.7995,-0.7988,-0.7988,-0.7988,-0.7988,-0.7988,-0.7988,-0.7988,-0.7988,-0.7988,-0.7988,-0.7988,-0.7988,-0.7988,-0.7988,-0.7988,-0.7988,-0.7988,-1.5417,-1.5166,-1.476,-1.4163,-1.4308,-1.441,-1.3619,-1.3296,-1.2979,-1.2324,-1.1909,-1.1262,0.0,-0.9361,0.0,0.0,0.0,0.0,-0.2278,-0.1467,0.0,0.0,0.0,0.0,0.0,0.0,0.0,0.0,0.0,0.0,0.0,0.0,0.0,-0.0045,-0.0046,-0.0418,-0.1181,-0.1852,-0.2809,-0.4047,-0.5239,-0.626,-0.704,-0.7724,-0.7988,0.0,0.0,0.0,-0.7988,-0.7988,-0.7975,-0.7955,-0.7955,-0.7955,-0.7955,-0.7955,-0.7971,-0.7988,-0.7988,-0.7988,-0.7988,-0.7988,-0.7988,-0.7988,-0.7988,-0.7988,-0.7988,-0.7988,-0.7988,-0.7988,-0.7988,-0.7988,-0.7988,-0.7988,-0.7988,-0.7988,-0.7988,-0.7988,-0.7988,-0.7988,-0.7988,-0.7988,-0.7988,-0.7988,-0.8099,-0.8275,-0.8354,-0.8353,-0.8499,-0.8516,-0.8462,-0.8371,-0.8333,-0.8218,-0.8035,-0.8005,-0.7988,-0.7988,-0.7988,-0.7988,-0.7988,-0.7988,-0.7988,-0.7988,-0.7988,-0.7988,-0.7988,-0.7988,-0.7988,-0.7988,-0.7988,-0.7988,-1.3884,-1.402,-1.4469,-1.5002,-1.4865,-1.441,-1.3642,-1.2824,-1.1991,-1.1287,-1.0572,-0.9766,0.0,-0.8107,-0.7241,0.0,0.0,0.0,0.0,0.0,0.0,0.0,0.0,0.0,0.0,0.0,0.0,0.0,0.0,0.0,0.0,0.0,-0.009,-0.0314,-0.036,-0.0587,-0.1132,-0.1453,-0.2192,-0.3287,-0.4848,-0.5966,-0.68,-0.7625,-0.7988,0.0,0.0,-0.7988,-0.7988,-0.7988,-0.7914,-0.7845,-0.7845,-0.7845,-0.7845,-0.7845,-0.788,-0.7988,-0.7988,-0.7988,-0.7988,-0.7988,-0.7988,-0.7988,-0.7988,-0.7988,-0.7988,-0.7988,-0.7988,-0.7988,-0.7988,-0.7988,-0.7988,-0.7988,-0.7988,-0.7988,-0.7988,-0.7988,-0.7988,-0.7988,-0.7988,-0.7988,-0.7988,-0.7988,-0.8083,-0.8408,-0.8452,-0.8506,-0.8655,-0.8676,-0.8618,-0.8465,-0.8343,-0.8313,-0.8238,-0.8113,-0.7988,-0.7988,-0.7988,-0.7988,-0.7988,-0.7988,-0.7988,-0.7988,-0.7988,-0.7988,-0.7988,-0.7988,-0.7988,-0.7988,-0.7988,-0.7988,-1.2892,-1.3076,-1.3426,-1.4075,-1.4226,-1.4018,-1.3246,-1.2506,-1.1697,-1.0677,-0.9837,-0.895,0.0,0.0,-0.5955,-0.445,0.0,0.0,0.0,0.0,0.0,0.0,0.0,0.0,0.0,0.0,0.0,0.0,0.0,0.0,0.0,0.0,-0.0314,-0.0538,-0.0718,-0.0987,-0.148,-0.1873,-0.2489,-0.3364,-0.4697,-0.5863,-0.6843,-0.7557,-0.7911,-0.7985,0.0,-0.7916,-0.7909,-0.7834,-0.776,-0.7695,-0.7695,-0.7695,-0.7706,-0.7784,-0.7909,-0.7988,-0.7988,-0.7988,-0.7988,-0.7988,-0.7988,-0.7988,-0.7988,-0.7988,-0.7988,-0.7988,-0.7988,-0.7988,-0.7988,-0.7988,-0.7988,-0.7988,-0.7988,-0.7988,-0.7988,-0.7988,-0.7988,-0.7988,-0.7988,-0.7988,-0.7988,-0.8109,-0.8235,-0.8448,-0.8554,-0.8662,-0.8815,-0.8832,-0.8774,-0.8621,-0.8547,-0.8442,-0.8337,-0.8204,-0.813,-0.7995,-0.7988,-0.7988,-0.7988,-0.7988,-0.7988,-0.7988,-0.7988,-0.7988,-0.7988,-0.7988,-0.7988,-0.7988,-0.7988,-0.7988,-1.1742,-1.1851,-1.1965,-1.221,-1.2914,-1.3333,-1.2669,-1.1989,-1.1134,-1.0068,0.0,0.0,0.0,-0.5608,0.0,-0.2757,0.0,0.0,0.0,0.0,0.0,0.0,0.0,0.0,0.0,0.0,0.0,0.0,0.0,0.0,0.0,0.0,-0.0533,-0.0839,-0.1154,-0.1558,-0.2092,-0.258,-0.3074,-0.3624,-0.4751,-0.5814,-0.6801,-0.7457,-0.7824,-0.788,-0.7814,-0.7763,-0.7753,-0.7645,-0.758,-0.7546,-0.7546,-0.7567,-0.7617,-0.7756,-0.7909,-0.7988,-0.7988,-0.7988,-0.7988,-0.7988,-0.7988,-0.7988,-0.7988,-0.7988,-0.7988,-0.7988,-0.7988,-0.7988,-0.7988,-0.7988,-0.7988,-0.7988,-0.7988,-0.7988,-0.7988,-0.8019,-0.8092,-0.8092,-0.8119,-0.8093,-0.8093,-0.8241,-0.837,-0.8513,-0.8635,-0.8764,-0.8865,-0.8885,-0.8838,-0.8777,-0.873,-0.8591,-0.8347,-0.8323,-0.8204,-0.8002,-0.7988,-0.7988,-0.7988,-0.7988,-0.7988,-0.7988,-0.7988,-0.7988,-0.7988,-0.7988,-0.7988,-0.7988,-0.7988,-0.7988,-0.9933,-0.9996,-1.0066,-0.9597,-1.0939,-1.233,-1.2131,-1.0936,-0.969,-0.9108,0.0,0.0,0.0,-0.3676,-0.2138,-0.1539,0.0,0.0,0.0,0.0,0.0,0.0,0.0,0.0,0.0,0.0,0.0,0.0,0.0,0.0,0.0,0.0,0.0,-0.1225,-0.168,-0.2263,-0.3002,-0.3481,-0.369,-0.3624,-0.4929,-0.5861,-0.6388,-0.7219,-0.7621,-0.7631,-0.7617,-0.7614,-0.7614,-0.7604,-0.7516,-0.7433,-0.7433,-0.7475,-0.7617,-0.7756,-0.7909,-0.7988,-0.7988,-0.7988,-0.7988,-0.7988,-0.7988,-0.7988,-0.7988,-0.7988,-0.7988,-0.7988,-0.7988,-0.7988,-0.7988,-0.7988,-0.7988,-0.7988,-0.7988,-0.7988,-0.7988,-0.8153,-0.8255,-0.8255,-0.836,-0.8448,-0.8448,-0.8459,-0.852,-0.8672,-0.8703,-0.8764,-0.8865,-0.8885,-0.8878,-0.8868,-0.8794,-0.8591,-0.8347,-0.8323,-0.8204,-0.8002,-0.7988,-0.7988,-0.7988,-0.7988,-0.7988,-0.7988,-0.7988,-0.7988,-0.7988,-0.7988,-0.7988,-0.7988,-0.7988,-0.7988,-0.9211,-0.8946,-0.8736,-0.8649,-0.8965,-0.9375,-0.981,-0.9368,-0.8601,-0.7537,-0.6462,0.0,0.0,0.0,-0.0887,0.0,0.0,0.0,0.0,0.0,0.0,0.0,0.0,0.0,0.0,0.0,0.0,0.0,0.0,0.0,0.0,0.0,0.0,-0.1513,-0.2372,-0.3147,-0.3825,-0.4351,-0.4745,-0.5041,-0.5463,-0.6057,-0.6737,-0.7247,-0.7509,-0.7594,-0.7499,-0.7458,-0.7451,-0.7353,-0.7278,-0.7227,-0.7227,-0.7322,-0.7475,-0.7624,-0.7773,-0.7913,-0.7958,-0.7988,-0.7988,-0.7988,-0.7988,-0.7988,-0.7988,-0.7988,-0.7988,-0.7988,-0.7988,-0.7988,-0.7988,-0.7988,-0.7988,-0.7988,-0.7988,-0.7988,-0.7988,-0.816,-0.8323,-0.8323,-0.8384,-0.8482,-0.8482,-0.856,-0.8645,-0.8703,-0.8791,-0.8817,-0.8875,-0.8885,-0.8885,-0.8885,-0.8801,-0.8665,-0.8554,-0.8459,-0.8377,-0.8319,-0.8093,-0.7988,-0.7988,-0.7988,-0.7988,-0.7988,-0.7988,-0.7988,-0.7988,-0.7988,-0.7988,-0.7988,-0.7988,-0.7988,-0.8407,-0.8018,-0.7552,-0.7428,-0.7041,-0.6688,-0.6924,-0.7321,-0.7322,-0.6232,-0.5131,-0.374,-0.1794,0.0,0.0,0.0,0.0,0.0,0.0,0.0,0.0,0.0,0.0,0.0,0.0,0.0,0.0,0.0,0.0,0.0,0.0,0.0,0.0,0.0,-0.2938,-0.382,-0.4566,-0.5053,-0.5596,-0.6104,-0.6019,-0.6308,-0.6944,-0.7208,-0.7356,-0.7448,-0.7343,-0.7299,-0.7288,-0.7139,-0.7095,-0.7095,-0.7095,-0.7234,-0.7436,-0.7543,-0.7689,-0.7831,-0.7938,-0.7988,-0.7988,-0.7988,-0.7988,-0.7988,-0.7988,-0.7988,-0.7988,-0.7988,-0.7988,-0.7988,-0.7988,-0.7988,-0.7988,-0.7988,-0.7988,-0.7988,-0.7988,-0.816,-0.8337,-0.8381,-0.8455,-0.857,-0.8618,-0.8713,-0.8781,-0.8781,-0.8817,-0.8885,-0.8885,-0.8885,-0.8885,-0.8885,-0.879,-0.8764,-0.8713,-0.8615,-0.8533,-0.8486,-0.8292,-0.818,-0.818,-0.8136,-0.8113,-0.8113,-0.8015,-0.7988,-0.7988,-0.7988,-0.7988,-0.7988,-0.7988,-0.7988,-0.7479,-0.7004,-0.6516,-0.5697,-0.5235,-0.47,-0.3624,-0.4714,-0.5829,-0.5279,-0.3676,-0.2069,-0.096,0.0,0.0,0.0,0.0,0.0,0.0,0.0,0.0,0.0,0.0,0.0,0.0,0.0,0.0,0.0,0.0,0.0,0.0,0.0,0.0,0.0,-0.3363,-0.4252,-0.5184,-0.5586,-0.6087,-0.6619,-0.6619,-0.6653,-0.6795,-0.701,-0.7095,-0.7095,-0.7095,-0.7095,-0.7095,-0.7095,-0.7095,-0.7095,-0.7095,-0.7234,-0.7433,-0.7543,-0.7689,-0.7831,-0.7934,-0.7988,-0.7988,-0.7988,-0.7988,-0.7988,-0.7988,-0.7988,-0.7988,-0.7988,-0.7988,-0.7988,-0.7988,-0.7988,-0.7988,-0.7988,-0.7988,-0.7988,-0.7988,-0.816,-0.8364,-0.8452,-0.8604,-0.8757,-0.8854,-0.8881,-0.8885,-0.8885,-0.8885,-0.8885,-0.8885,-0.8885,-0.8885,-0.8885,-0.8885,-0.8821,-0.8726,-0.8713,-0.8648,-0.8496,-0.8486,-0.8486,-0.8482,-0.8347,-0.8323,-0.8323,-0.8119,-0.7992,-0.7988,-0.7988,-0.7988,-0.7988,-0.7988,-0.7988,-0.736,-0.6499,-0.5523,-0.4991,-0.4225,-0.3443,-0.2841,-0.341,-0.3775,0.0,-0.1765,-0.0707,0.0152,0.0,0.0,0.0,0.0,0.0,0.0,0.0,0.0,0.0,0.0,0.0,0.0,0.0,0.0,0.0,0.0,0.0,0.0,0.0,0.0,0.0,-0.3826,-0.4705,-0.5258,-0.594,-0.6407,-0.6682,-0.6747,-0.687,-0.701,-0.7051,-0.7095,-0.7095,-0.7095,-0.7095,-0.7095,-0.7095,-0.7095,-0.7095,-0.7095,-0.7125,-0.7227,-0.738,-0.7533,-0.7682,-0.7828,-0.7901,-0.7988,-0.7988,-0.7988,-0.7988,-0.7988,-0.7988,-0.7988,-0.7988,-0.7988,-0.7988,-0.7988,-0.7988,-0.7988,-0.7988,-0.7988,-0.7988,-0.7988,-0.816,-0.8333,-0.8378,-0.8537,-0.8723,-0.8771,-0.8811,-0.8885,-0.8885,-0.8885,-0.8885,-0.8885,-0.8885,-0.8885,-0.8885,-0.8885,-0.8865,-0.8821,-0.8814,-0.8852,-0.8808,-0.8804,-0.8706,-0.8489,-0.8442,-0.8374,-0.8323,-0.8225,-0.8147,-0.7988,-0.7988,-0.7988,-0.7988,-0.7988,-0.7988,-0.6776,-0.5812,-0.4822,-0.4127,-0.3302,-0.2438,-0.1762,0.0,0.0,0.0,-0.0656,0.0101,0.08,0.0,0.0,0.0,0.0,0.0,0.0,0.0,0.0,0.0,0.0,0.0,0.0,0.0,0.0,0.0,0.0,0.0,0.0,0.0,0.0,0.0,-0.4268,-0.5046,-0.5553,-0.6107,-0.6504,-0.661,-0.6705,-0.6824,-0.6927,-0.7045,-0.7095,-0.7095,-0.7095,-0.7095,-0.7095,-0.7095,-0.7095,-0.7095,-0.7095,-0.7095,-0.7115,-0.7316,-0.7468,-0.7621,-0.7763,-0.7913,-0.7988,-0.7988,-0.7988,-0.7988,-0.7988,-0.7988,-0.7988,-0.7988,-0.7988,-0.7988,-0.7988,-0.7988,-0.7988,-0.7988,-0.7988,-0.7988,-0.7988,-0.8113,-0.8197,-0.831,-0.8414,-0.8554,-0.8611,-0.8696,-0.8777,-0.8838,-0.8844,-0.8885,-0.8885,-0.8885,-0.8885,-0.8885,-0.8885,-0.8885,-0.8885,-0.8885,-0.8885,-0.8885,-0.8885,-0.8801,-0.8672,-0.8604,-0.8506,-0.8357,-0.835,-0.8194,-0.7988,-0.7988,-0.7988,-0.7988,-0.7988,-0.7988,-0.585,-0.5047,-0.4212,-0.3144,-0.2391,0.0,-0.0606,-0.0757,-0.1008,-0.0756,0.0,0.0601,0.1081,0.0,0.0,0.0,0.0,0.0,0.0,0.0,0.0,0.0,0.0,0.0,0.0,0.0,0.0,0.0,0.0,0.0,0.0,0.0,0.0,0.0,-0.4579,-0.5279,-0.5864,-0.6141,-0.6332,0.0,-0.6511,-0.6552,-0.6709,-0.6937,-0.7065,-0.7078,-0.7092,-0.7095,-0.7095,-0.7095,-0.7095,-0.7095,-0.7095,-0.7095,-0.7112,-0.7299,-0.7448,-0.76,-0.7743,-0.7892,-0.7971,-0.7985,-0.7988,-0.7988,-0.7988,-0.7988,-0.7988,-0.7988,-0.7988,-0.7988,-0.7988,-0.7988,-0.7988,-0.7988,-0.7988,-0.7988,-0.7988,-0.7988,-0.8029,-0.8221,-0.8262,-0.8364,-0.8438,-0.8472,-0.8533,-0.8686,-0.8828,-0.8868,-0.8881,-0.8885,-0.8885,-0.8885,-0.8885,-0.8885,-0.8885,-0.8885,-0.8885,-0.8885,-0.8885,-0.8885,-0.8885,-0.8804,-0.8659,-0.8506,-0.8364,-0.8214,-0.8012,-0.7995,-0.7988,-0.7988,-0.7988,-0.7988,-0.5313,-0.4283,-0.3149,-0.2397,-0.1459,-0.0606,-0.0202,-0.02,-0.0198,0.0099,0.0593,0.1129,0.0,0.0,0.0,0.0,0.0,0.0,0.0,0.0,0.0,0.0,0.0,0.0,0.0,0.0,0.0,0.0,0.0,0.0,0.0,0.0,0.0,-0.3763,-0.4426,-0.5051,-0.5676,-0.5867,-0.6169,0.0,-0.6511,-0.6552,-0.6702,-0.6766,-0.6861,-0.6937,-0.7048,-0.7095,-0.7095,-0.7095,-0.7095,-0.7095,-0.7095,-0.7095,-0.7098,-0.7132,-0.7288,-0.7441,-0.7594,-0.774,-0.7879,-0.7951,-0.7988,-0.7988,-0.7988,-0.7988,-0.7988,-0.7988,-0.7988,-0.7988,-0.7988,-0.7988,-0.7988,-0.7988,-0.7988,-0.7988,-0.7988,-0.7988,-0.8002,-0.8032,-0.8187,-0.833,-0.8364,-0.8408,-0.8533,-0.8686,-0.8737,-0.8804,-0.8868,-0.8885,-0.8885,-0.8885,-0.8885,-0.8885,-0.8885,-0.8885,-0.8885,-0.8885,-0.8885,-0.8885,-0.8885,-0.8851,-0.8818,-0.8665,-0.8513,-0.8367,-0.8221,-0.8099,-0.7988,-0.7988,-0.7988,-0.7988,-0.4177,-0.323,-0.2292,-0.146,0.0,-0.0152,-0.0051,0.0,0.0098,0.0485,0.092,0.0,0.0,0.0,0.0,0.0,0.0,0.0,0.0,0.0,0.0,0.0,0.0,0.0,0.0,0.0,0.0,0.0,0.0,0.0,0.0,-0.2005,-0.2875,-0.3785,-0.4387,-0.5019,-0.5689,-0.58,-0.6028,-0.6412,-0.6412,-0.6453,-0.6495,-0.6634,-0.6746,-0.6827,-0.693,-0.6997,-0.7001,-0.7068,-0.7095,-0.7095,-0.7095,-0.7095,-0.7095,-0.7095,-0.7238,-0.7439,-0.7546,-0.7692,-0.7834,-0.7941,-0.7988,-0.7988,-0.7988,-0.7988,-0.7988,-0.7988,-0.7988,-0.7988,-0.7988,-0.7988,-0.7988,-0.7988,-0.7988,-0.7988,-0.7988,-0.7988,-0.7988,-0.7988,-0.8106,-0.816,-0.816,-0.8282,-0.8408,-0.8486,-0.8557,-0.8655,-0.8811,-0.8828,-0.8804,-0.8875,-0.8885,-0.8885,-0.8885,-0.8885,-0.8885,-0.8885,-0.8885,-0.8885,-0.8885,-0.8885,-0.8811,-0.8713,-0.8632,-0.8486,-0.8323,-0.8187,-0.8113,-0.7988,-0.7988,-0.7988,-0.2933,-0.2214,-0.1513,-0.0555,-0.0152,0.0,0.0,0.005,0.0194,0.0622,0.0,0.0,0.0,0.0,0.0,0.0,0.0,0.0,0.0,0.0,0.0,0.0,0.0,0.0,0.0,0.0,0.0,0.0,0.0,0.0,-0.11,-0.1884,-0.2716,-0.3676,-0.4253,-0.4916,-0.5686,-0.5712,-0.5903,-0.6259,-0.6286,-0.63,-0.631,-0.6515,-0.6637,-0.6668,-0.6824,-0.6862,-0.6896,-0.7011,-0.7071,-0.7095,-0.7095,-0.7095,-0.7095,-0.7095,-0.7221,-0.7356,-0.7539,-0.7678,-0.7804,-0.7931,-0.7988,-0.7988,-0.7988,-0.7988,-0.7988,-0.7988,-0.7988,-0.7988,-0.7988,-0.7988,-0.7988,-0.7988,-0.7988,-0.7988,-0.7988,-0.7988,-0.7988,-0.7988,-0.7988,-0.7988,-0.7988,-0.8147,-0.8241,-0.832,-0.837,-0.8499,-0.8652,-0.8672,-0.872,-0.8845,-0.8828,-0.8844,-0.8844,-0.8868,-0.8885,-0.8885,-0.8885,-0.8885,-0.8885,-0.8885,-0.8824,-0.8754,-0.8723,-0.8591,-0.8347,-0.8347,-0.8204,-0.8029,-0.8002,-0.7988,-0.2299,-0.1395,-0.0505,-0.0152,-0.0051,0.0,0.0,0.0,0.043,0.0,0.0,0.0,0.0,0.0,0.0,0.0,0.0,0.0,0.0,0.0,0.0,0.0,0.0,0.0,0.0,0.0,0.0,0.0,0.0,0.0,-0.0909,-0.1521,-0.2303,-0.3234,-0.3708,-0.4367,-0.5288,-0.5445,-0.5704,-0.6023,-0.6235,-0.63,-0.6303,-0.634,-0.6426,-0.6552,-0.6664,-0.6807,-0.6886,-0.6906,-0.6987,-0.7095,-0.7095,-0.7095,-0.7095,-0.7095,-0.7109,-0.7169,-0.7502,-0.7611,-0.7675,-0.7901,-0.7988,-0.7988,-0.7988,-0.7988,-0.7988,-0.7988,-0.7988,-0.7988,-0.7988,-0.7988,-0.7988,-0.7988,-0.7988,-0.7988,-0.7988,-0.7988,-0.7988,-0.7988,-0.7988,-0.7988,-0.7988,-0.8008,-0.8116,-0.8252,-0.8337,-0.835,-0.8492,-0.8513,-0.852,-0.854,-0.8662,-0.874,-0.874,-0.8807,-0.8885,-0.8885,-0.8885,-0.8885,-0.8885,-0.8885,-0.8875,-0.8854,-0.8777,-0.8689,-0.8652,-0.8394,-0.831,-0.8238,-0.8102,-0.7988,-0.1681,-0.0753,-0.0152,-0.0051,0.0,0.0051,0.0202,0.0392,0.0715,0.0,0.0,0.0,0.0,0.0,0.0,0.0,0.0,0.0,0.0,0.0,0.0,0.0,0.0,0.0,0.0,0.0,0.0,0.0,0.0,-0.0339,-0.0816,-0.1375,-0.2123,-0.3064,-0.3619,-0.4308,-0.5147,-0.5318,-0.561,-0.5993,-0.6186,-0.63,-0.63,-0.63,-0.6334,-0.6402,-0.6549,-0.6661,-0.6807,-0.6852,-0.6967,-0.7095,-0.7095,-0.7095,-0.7095,-0.7095,-0.7095,-0.7129,-0.7394,-0.7529,-0.7634,-0.7845,-0.7921,-0.7988,-0.7988,-0.7988,-0.7988,-0.7988,-0.7988,-0.7988,-0.7988,-0.7988,-0.7988,-0.7988,-0.7988,-0.7988,-0.7988,-0.7988,-0.7988,-0.7988,-0.7988,-0.7988,-0.7988,-0.7988,-0.8012,-0.813,-0.814,-0.8194,-0.8343,-0.8431,-0.8516,-0.8601,-0.8747,-0.8838,-0.8838,-0.8844,-0.8885,-0.8885,-0.8885,-0.8885,-0.8885,-0.8885,-0.8885,-0.8885,-0.8817,-0.8798,-0.871,-0.8581,-0.8431,-0.832,-0.8201,-0.8123,-0.1143,-0.0453,-0.0101,0.0,0.0,0.0051,0.0,0.0,0.1097,0.0,0.0,0.0,0.0,0.0,0.0,0.0,0.0,0.0,0.0,0.0,0.0,0.0,0.0,0.0,0.0,0.0,0.0,0.0,0.0,-0.0225,-0.0693,-0.1209,-0.1902,-0.2891,-0.3558,-0.4235,-0.5008,-0.5287,-0.5626,-0.5993,-0.6186,-0.63,-0.63,-0.63,-0.63,-0.6306,-0.6412,-0.6545,-0.6654,-0.6807,-0.6913,-0.7048,-0.7082,-0.7095,-0.7095,-0.7095,-0.7095,-0.7119,-0.7319,-0.7448,-0.757,-0.7753,-0.7889,-0.7938,-0.7978,-0.7988,-0.7988,-0.7988,-0.7988,-0.7988,-0.7988,-0.7988,-0.7988,-0.7988,-0.7988,-0.7988,-0.7988,-0.7988,-0.7988,-0.7988,-0.7988,-0.7988,-0.7988,-0.7988,-0.7988,-0.7988,-0.7988,-0.8029,-0.8197,-0.834,-0.8472,-0.8587,-0.8767,-0.8824,-0.8824,-0.8861,-0.8885,-0.8885,-0.8885,-0.8885,-0.8885,-0.8885,-0.8885,-0.8885,-0.8885,-0.8828,-0.8767,-0.873,-0.8577,-0.8374,-0.834,-0.8187,-0.0929,-0.0548,-0.0303,-0.0051,0.0,0.0051,0.0,0.0,0.0,0.0,0.0,0.0,0.0,0.0,0.0,0.0,0.0,0.0,0.0,0.0,0.0,0.0,0.0,0.0,0.0,0.0,0.0,0.0,0.0,-0.015,-0.0511,-0.0888,-0.1625,-0.2688,-0.3253,-0.3925,-0.4806,-0.544,-0.5834,-0.5993,-0.6186,-0.63,-0.63,-0.63,-0.63,-0.63,-0.6306,-0.6392,-0.6538,-0.6651,-0.6803,-0.691,-0.7045,-0.7095,-0.7095,-0.7095,-0.7095,-0.7119,-0.7319,-0.7422,-0.7431,-0.7719,-0.7818,-0.7848,-0.7944,-0.7988,-0.7988,-0.7988,-0.7988,-0.7988,-0.7988,-0.7988,-0.7988,-0.7988,-0.7988,-0.7988,-0.7988,-0.7988,-0.7988,-0.7988,-0.7988,-0.7988,-0.7988,-0.7988,-0.7988,-0.7988,-0.7988,-0.7992,-0.8002,-0.8187,-0.8337,-0.8344,-0.855,-0.8723,-0.8723,-0.8855,-0.8885,-0.8885,-0.8885,-0.8885,-0.8885,-0.8885,-0.8885,-0.8885,-0.8885,-0.8878,-0.8871,-0.8781,-0.8628,-0.8469,-0.8333,-0.8187,-0.1629,-0.1026,-0.0546,-0.0298,-0.015,0.0152,0.0758,0.1323,0.2,0.0,0.0,0.0,0.0,0.0,0.0,0.0,0.0,0.0,0.0,0.0,0.0,0.0,0.0,0.0,0.0,0.0,0.0,0.0,0.0,0.0,-0.0561,-0.1021,-0.1738,-0.2658,-0.3481,-0.4303,-0.5163,-0.5584,-0.583,-0.5884,-0.6177,-0.63,-0.63,-0.63,-0.63,-0.63,-0.63,-0.6381,-0.6515,-0.6573,-0.6644,-0.6797,-0.6903,-0.696,-0.697,-0.7061,-0.7095,-0.7102,-0.7204,-0.7288,-0.7436,-0.7495,-0.7655,-0.7821,-0.7875,-0.7914,-0.7988,-0.7988,-0.7988,-0.7988,-0.7988,-0.7988,-0.7988,-0.7988,-0.7988,-0.7988,-0.7988,-0.7988,-0.7988,-0.7988,-0.7988,-0.7988,-0.7988,-0.7988,-0.7988,-0.7988,-0.7988,-0.7988,-0.7988,-0.8255,-0.8408,-0.8408,-0.8676,-0.8801,-0.8801,-0.8851,-0.8885,-0.8885,-0.8885,-0.8885,-0.8885,-0.8885,-0.8885,-0.8885,-0.8885,-0.8885,-0.8885,-0.8828,-0.8726,-0.8479,-0.8428,-0.833,-0.2535,-0.1676,-0.0974,-0.0588,-0.0248,0.02,0.1009,0.0,0.2589,0.0,0.0,0.0,0.0,0.0,0.0,0.0,0.0,0.0,0.0,0.0,0.0,0.0,0.0,0.0,0.0,0.0,0.0,0.0,0.0,0.0,-0.0568,-0.108,-0.1853,-0.3046,-0.3953,-0.4749,-0.5474,-0.5681,-0.5827,-0.5881,-0.6177,-0.63,-0.63,-0.63,-0.63,-0.63,-0.63,-0.6354,-0.6446,-0.6494,-0.6573,-0.6637,-0.6793,-0.6839,-0.6896,-0.6991,-0.7055,-0.7095,-0.7095,-0.7207,-0.7302,-0.7398,-0.7539,-0.775,-0.7797,-0.7919,-0.7988,-0.7988,-0.7988,-0.7988,-0.7988,-0.7988,-0.7988,-0.7988,-0.7988,-0.7988,-0.7988,-0.7988,-0.7988,-0.7988,-0.7988,-0.7988,-0.7988,-0.7988,-0.7988,-0.7988,-0.7988,-0.7988,-0.7988,-0.8299,-0.8482,-0.8482,-0.8757,-0.8885,-0.8885,-0.8885,-0.8885,-0.8885,-0.8885,-0.8885,-0.8885,-0.8885,-0.8885,-0.8885,-0.8885,-0.8885,-0.8885,-0.8834,-0.873,-0.8479,-0.8431,-0.836,0.0,0.0,0.0,-0.0927,-0.0392,0.0,0.1005,0.0,0.3356,0.0,0.0,0.0,0.0,0.0,0.0,0.0,0.0,0.0,0.0,0.0,0.0,0.0,0.0,0.0,0.0,0.0,0.0,0.0,0.0,-0.0194,-0.0569,-0.1023,-0.2033,-0.3751,-0.4584,-0.5209,-0.5589,-0.5732,-0.5878,-0.5993,-0.6186,-0.63,-0.63,-0.63,-0.63,-0.63,-0.63,-0.63,-0.631,-0.645,-0.6504,-0.6521,-0.6634,-0.6787,-0.6879,-0.6883,-0.6974,-0.7095,-0.7095,-0.7095,-0.7122,-0.7316,-0.7472,-0.7628,-0.7763,-0.7916,-0.7988,-0.7988,-0.7988,-0.7988,-0.7988,-0.7988,-0.7988,-0.7988,-0.7988,-0.7988,-0.7988,-0.7988,-0.7988,-0.7988,-0.7988,-0.7988,-0.7988,-0.7988,-0.7988,-0.7988,-0.7988,-0.7988,-0.7988,-0.8299,-0.8482,-0.8482,-0.8757,-0.8885,-0.8885,-0.8885,-0.8885,-0.8885,-0.8885,-0.8885,-0.8885,-0.8885,-0.8885,-0.8885,-0.8885,-0.8885,-0.8885,-0.8791,-0.8635,-0.8479,-0.8388,-0.8323,-0.5178,0.0,0.0,0.0,0.0,0.0,0.1279,0.2337,0.3449,0.0,0.0,0.0,0.0,0.0,0.0,0.0,0.0,0.0,0.0,0.0,0.0,0.0,0.0,0.0,0.0,0.0,0.0,0.0,0.0,-0.0157,-0.0584,-0.1796,-0.2981,-0.4066,-0.4696,-0.5209,-0.5589,-0.5732,-0.5878,-0.5993,-0.6186,-0.63,-0.63,-0.63,-0.63,-0.63,-0.63,-0.63,-0.6303,-0.634,-0.6358,-0.6371,-0.6518,-0.6627,-0.6776,-0.6846,-0.6974,-0.7095,-0.7095,-0.7095,-0.7102,-0.7146,-0.7383,-0.7607,-0.7645,-0.7838,-0.7988,-0.7988,-0.7988,-0.7988,-0.7988,-0.7988,-0.7988,-0.7988,-0.7988,-0.7988,-0.7988,-0.7988,-0.7988,-0.7988,-0.7988,-0.7988,-0.7988,-0.7988,-0.7988,-0.7988,-0.7988,-0.7988,-0.7988,-0.8299,-0.8482,-0.8482,-0.8757,-0.8885,-0.8885,-0.8885,-0.8885,-0.8885,-0.8885,-0.8885,-0.8885,-0.8885,-0.8885,-0.8885,-0.8885,-0.8885,-0.8885,-0.8841,-0.874,-0.8479,-0.8388,-0.8378,0.0,0.0,0.0,0.0,0.0,0.0,0.1156,0.2541,0.3889,0.0,0.0,0.0,0.0,0.0,0.0,0.0,0.0,0.0,0.0,0.0,0.0,0.0,0.0,0.0,0.0,0.0,0.0,0.0,-0.0122,-0.0483,-0.1235,-0.2568,-0.368,-0.4433,-0.4935,-0.5393,-0.5772,-0.5793,-0.5911,-0.6129,-0.6255,-0.63,-0.63,-0.63,-0.63,-0.63,-0.63,-0.63,-0.63,-0.63,-0.63,-0.6313,-0.6457,-0.6566,-0.6719,-0.6829,-0.6974,-0.7095,-0.7095,-0.7095,-0.7095,-0.7095,-0.735,-0.76,-0.76,-0.7804,-0.7988,-0.7988,-0.7988,-0.7988,-0.7988,-0.7988,-0.7988,-0.7988,-0.7988,-0.7988,-0.7988,-0.7988,-0.7988,-0.7988,-0.7988,-0.7988,-0.7988,-0.7988,-0.7988,-0.7988,-0.7988,-0.7988,-0.7988,-0.8299,-0.8482,-0.8482,-0.8757,-0.8885,-0.8885,-0.8885,-0.8885,-0.8885,-0.8885,-0.8885,-0.8885,-0.8885,-0.8885,-0.8885,-0.8885,-0.8885,-0.8885,-0.8817,-0.8689,-0.8391,-0.8361,-0.8347,0.0,0.0,0.0,0.0,-0.2519,0.0,0.0753,0.2601,0.4287,0.5228,0.0,0.0,0.0,0.0,0.0,0.0,0.0,0.0,0.0,0.0,0.0,0.0,0.0,0.0,0.0,0.0,0.0,-0.0042,-0.0337,-0.1042,-0.2196,-0.3264,-0.4158,-0.4798,-0.528,-0.5679,-0.599,-0.5895,-0.5973,-0.63,-0.63,-0.63,-0.63,-0.63,-0.63,-0.63,-0.63,-0.63,-0.63,-0.63,-0.63,-0.6313,-0.6457,-0.6566,-0.6719,-0.6829,-0.6974,-0.7095,-0.7095,-0.7095,-0.7095,-0.7095,-0.7336,-0.7577,-0.7594,-0.7794,-0.7968,-0.7985,-0.7988,-0.7988,-0.7988,-0.7988,-0.7988,-0.7988,-0.7988,-0.7988,-0.7988,-0.7988,-0.7988,-0.7988,-0.7988,-0.7988,-0.7988,-0.7988,-0.7988,-0.7988,-0.7988,-0.7988,-0.7988,-0.8286,-0.8465,-0.8479,-0.874,-0.8865,-0.8881,-0.8885,-0.8885,-0.8885,-0.8885,-0.8885,-0.8885,-0.8885,-0.8885,-0.8885,-0.8885,-0.8885,-0.8885,-0.8784,-0.8574,-0.8319,-0.8354,-0.837,0.0,0.0,0.0,0.0,0.0,0.0,0.0045,0.1789,0.3339,0.0,0.0,0.0,0.0,0.0,0.0,0.0,0.0,0.0,0.0,0.0,0.0,0.0,0.0,0.0,0.0,0.0,-0.0086,-0.0303,-0.102,-0.183,-0.2721,-0.3634,-0.442,-0.502,-0.5439,-0.5774,-0.5993,-0.5963,-0.6078,-0.63,-0.63,-0.63,-0.63,-0.63,-0.63,-0.63,-0.63,-0.63,-0.63,-0.63,-0.63,-0.6313,-0.6457,-0.6566,-0.6719,-0.6829,-0.6974,-0.7095,-0.7095,-0.7095,-0.7095,-0.7095,-0.7265,-0.7438,-0.7563,-0.7719,-0.7882,-0.7955,-0.7988,-0.7988,-0.7988,-0.7988,-0.7988,-0.7988,-0.7988,-0.7988,-0.7988,-0.7988,-0.7988,-0.7988,-0.7988,-0.7988,-0.7988,-0.7988,-0.7988,-0.7988,-0.7988,-0.7988,-0.7988,-0.8201,-0.8357,-0.8469,-0.8645,-0.8804,-0.8871,-0.8885,-0.8885,-0.8885,-0.8885,-0.8885,-0.8885,-0.8885,-0.8885,-0.8885,-0.8885,-0.8885,-0.8885,-0.8784,-0.8679,-0.8621,-0.8499,-0.8523,0.0,0.0,0.0,-0.7139,0.0,0.0,0.0,0.044,0.2146,0.3441,0.4461,0.0,0.0,0.0,0.0,0.0,0.0,0.0,0.0,0.0,0.0,0.0,0.0,0.0,0.0,0.0,-0.0265,-0.0839,-0.1601,-0.2493,-0.3551,-0.4281,-0.4944,-0.5495,-0.5726,-0.5952,-0.6142,-0.6067,-0.6108,-0.63,-0.63,-0.63,-0.63,-0.63,-0.63,-0.63,-0.63,-0.63,-0.63,-0.63,-0.63,-0.632,-0.6542,-0.6634,-0.6725,-0.691,-0.7034,-0.7095,-0.7095,-0.7095,-0.7095,-0.7095,-0.7244,-0.7433,-0.7461,-0.7638,-0.7841,-0.7944,-0.7988,-0.7988,-0.7988,-0.7988,-0.7988,-0.7988,-0.7988,-0.7988,-0.7988,-0.7988,-0.7988,-0.7988,-0.7988,-0.7988,-0.7988,-0.7988,-0.7988,-0.7988,-0.7988,-0.7988,-0.7988,-0.8174,-0.8347,-0.837,-0.8577,-0.8743,-0.8818,-0.8841,-0.8885,-0.8885,-0.8885,-0.8885,-0.8885,-0.8885,-0.8885,-0.8885,-0.8885,-0.8885,-0.8885,-0.8807,-0.8784,-0.871,-0.8632,-0.8635,0.0,0.0,0.0,0.0,0.0,-0.484,0.0,0.0,0.0,0.1675,0.2841,0.0,0.0,0.0,0.0,0.0,0.0,0.0,0.0,0.0,0.0,0.0,0.0,0.0,0.0,-0.0135,-0.0584,-0.1436,-0.2248,-0.3197,-0.4353,-0.4997,-0.5528,-0.5947,-0.6035,-0.6135,-0.6296,-0.6135,-0.6135,-0.63,-0.63,-0.63,-0.63,-0.63,-0.63,-0.63,-0.63,-0.63,-0.63,-0.63,-0.63,-0.633,-0.6586,-0.6702,-0.6736,-0.6987,-0.7095,-0.7095,-0.7095,-0.7095,-0.7095,-0.7095,-0.7244,-0.7422,-0.7453,-0.76,-0.7841,-0.7944,-0.7988,-0.7988,-0.7988,-0.7988,-0.7988,-0.7988,-0.7988,-0.7988,-0.7988,-0.7988,-0.7988,-0.7988,-0.7988,-0.7988,-0.7988,-0.7988,-0.7988,-0.7988,-0.7988,-0.7988,-0.7988,-0.8147,-0.8238,-0.832,-0.8482,-0.8648,-0.8706,-0.8825,-0.8851,-0.8881,-0.8885,-0.8885,-0.8885,-0.8885,-0.8885,-0.8885,-0.8885,-0.8885,-0.8885,-0.8885,-0.8821,-0.8754,-0.8754,-0.8754,0.0,0.0,0.0,0.0,-0.8339,0.0,0.0,0.0,-0.197,-0.0839,0.0,0.0,0.0,0.0,0.0,0.0,0.0,0.0,0.0,0.0,0.0,0.0,0.0,0.0,0.0,0.0,-0.1211,-0.1705,-0.2994,-0.4018,-0.4708,-0.5493,-0.599,-0.6178,-0.6234,-0.6282,-0.63,-0.6282,-0.6282,-0.63,-0.63,-0.63,-0.63,-0.63,-0.63,-0.63,-0.63,-0.63,-0.63,-0.63,-0.63,-0.633,-0.6586,-0.6702,-0.6736,-0.6987,-0.7095,-0.7095,-0.7095,-0.7095,-0.7095,-0.7095,-0.7244,-0.7443,-0.7533,-0.7685,-0.7841,-0.7944,-0.7988,-0.7988,-0.7988,-0.7988,-0.7988,-0.7988,-0.7988,-0.7988,-0.7988,-0.7988,-0.7988,-0.7988,-0.7988,-0.7988,-0.7988,-0.7988,-0.7988,-0.7988,-0.7988,-0.7988,-0.7988,-0.8005,-0.8116,-0.8255,-0.835,-0.8428,-0.8686,-0.8726,-0.8794,-0.8875,-0.8885,-0.8885,-0.8885,-0.8885,-0.8885,-0.8885,-0.8885,-0.8885,-0.8885,-0.8885,-0.8875,-0.8858,-0.8858,-0.8858,0.0,0.0,0.0,0.0,0.0,0.0,-0.7675,0.0,-0.4725,0.0,0.0,0.0,0.0,0.0,0.0,0.0,0.2215,0.0,0.0,0.0,0.0,0.0,0.0,0.0,0.0,0.0,0.0,0.0,0.0,-0.4435,-0.5163,-0.5813,-0.622,-0.6361,-0.6335,-0.63,-0.63,-0.63,-0.63,-0.63,-0.63,-0.63,-0.63,-0.63,-0.63,-0.63,-0.63,-0.63,-0.63,-0.63,-0.63,-0.633,-0.6586,-0.6702,-0.6736,-0.6987,-0.7095,-0.7095,-0.7095,-0.7095,-0.7095,-0.7095,-0.7139,-0.7282,-0.7526,-0.7641,-0.7736,-0.7924,-0.7988,-0.7988,-0.7988,-0.7988,-0.7988,-0.7988,-0.7988,-0.7988,-0.7988,-0.7988,-0.7988,-0.7988,-0.7988,-0.7988,-0.7988,-0.7988,-0.7988,-0.7988,-0.7988,-0.7988,-0.7988,-0.7988,-0.8015,-0.813,-0.8218,-0.8371,-0.8445,-0.8611,-0.8737,-0.8801,-0.8834,-0.8885,-0.8885,-0.8885,-0.8885,-0.8885,-0.8885,-0.8885,-0.8885,-0.8885,-0.8885,-0.8885,-0.8885,-0.8885,-1.4078,0.0,0.0,0.0,0.0,0.0,0.0,0.0,0.0,0.0,0.0,0.0,0.0,0.0,0.0,0.0,0.0,0.0546,0.0,0.0,0.0,0.0,0.0,0.0,0.0,0.0,0.0,-0.231,-0.3714,-0.4847,-0.5605,-0.6169,-0.6488,-0.6539,-0.6433,-0.6337,-0.63,-0.63,-0.63,-0.63,-0.63,-0.63,-0.63,-0.63,-0.63,-0.63,-0.63,-0.63,-0.63,-0.63,-0.63,-0.633,-0.6586,-0.6702,-0.6736,-0.6987,-0.7095,-0.7095,-0.7095,-0.7095,-0.7095,-0.7095,-0.7095,-0.7152,-0.7506,-0.76,-0.7662,-0.7907,-0.7988,-0.7988,-0.7988,-0.7988,-0.7988,-0.7988,-0.7988,-0.7988,-0.7988,-0.7988,-0.7988,-0.7988,-0.7988,-0.7988,-0.7988,-0.7988,-0.7988,-0.7988,-0.7988,-0.7988,-0.7988,-0.7988,-0.7988,-0.7988,-0.814,-0.8225,-0.832,-0.8503,-0.8682,-0.8767,-0.8821,-0.8885,-0.8885,-0.8885,-0.8885,-0.8885,-0.8885,-0.8885,-0.8885,-0.8885,-0.8885,-0.8885,-0.8885,-0.8885,0.0,0.0,0.0,-1.376,0.0,0.0,0.0,0.0,-1.0162,0.0,0.0,0.0,0.0,0.0,0.0,-0.2234,0.0,0.0,0.0,0.0,0.0,0.0,0.0,0.0,0.0,0.0,0.0,-0.2773,-0.4166,-0.5319,-0.6033,-0.661,-0.6809,-0.6698,-0.6546,-0.6439,-0.6303,-0.63,-0.63,-0.63,-0.63,-0.63,-0.63,-0.63,-0.63,-0.63,-0.63,-0.63,-0.63,-0.63,-0.63,-0.633,-0.6586,-0.6702,-0.6736,-0.6987,-0.7095,-0.7095,-0.7095,-0.7095,-0.7095,-0.7095,-0.7095,-0.7152,-0.7506,-0.76,-0.7662,-0.7907,-0.7988,-0.7988,-0.7988,-0.7988,-0.7988,-0.7988,-0.7988,-0.7988,-0.7988,-0.7988,-0.7988,-0.7988,-0.7988,-0.7988,-0.7988,-0.7988,-0.7988,-0.7988,-0.7988,-0.7988,-0.7988,-0.7988,-0.7988,-0.7988,-0.7995,-0.8106,-0.8258,-0.8404,-0.8615,-0.8858,-0.8881,-0.8885,-0.8885,-0.8885,-0.8885,-0.8885,-0.8885,-0.8885,-0.8885,-0.8885,-0.8885,-0.8885,-0.8885,-0.8885,0.0,0.0,-1.5267,-1.484,0.0,0.0,0.0,0.0,0.0,0.0,0.0,0.0,0.0,0.0,-0.5975,-0.501,-0.4546,0.0,0.0,0.0,0.0,0.0,0.0,0.0,0.0,0.0,0.0,-0.3061,-0.4472,-0.5502,0.0,-0.6616,-0.6862,-0.6854,-0.6607,-0.6491,-0.6443,-0.6347,-0.63,-0.63,-0.63,-0.63,-0.63,-0.63,-0.63,-0.63,-0.63,-0.63,-0.63,-0.63,-0.6354,-0.646,-0.662,-0.6763,-0.6875,-0.7024,-0.7095,-0.7095,-0.7095,-0.7095,-0.7095,-0.7095,-0.7095,-0.7136,-0.7387,-0.7519,-0.7641,-0.7834,-0.7914,-0.7988,-0.7988,-0.7988,-0.7988,-0.7988,-0.7988,-0.7988,-0.7988,-0.7988,-0.7988,-0.7988,-0.7988,-0.7988,-0.7988,-0.7988,-0.7988,-0.7988,-0.7988,-0.7988,-0.7988,-0.7988,-0.7988,-0.7988,-0.7988,-0.8012,-0.8113,-0.8343,-0.8611,-0.8865,-0.8885,-0.8885,-0.8885,-0.8885,-0.8885,-0.8885,-0.8885,-0.8885,-0.8885,-0.8885,-0.8885,-0.8885,-0.8885,-0.8885,-1.6193,-1.6307,0.0,-1.5912,-1.5868,0.0,-1.5223,0.0,0.0,0.0,0.0,0.0,0.0,0.0,0.0,-0.7903,-0.7511,0.0,0.0,-0.4111,0.0,0.0,0.0,0.0,0.0,0.0,-0.2353,-0.3715,-0.4879,-0.5772,0.0,0.0,-0.694,-0.6886,-0.6685,-0.6566,-0.6511,-0.6371,-0.63,-0.63,-0.63,-0.63,-0.63,-0.63,-0.63,-0.63,-0.63,-0.63,-0.63,-0.63,-0.6381,-0.6528,-0.6641,-0.6793,-0.6903,-0.7045,-0.7095,-0.7095,-0.7095,-0.7095,-0.7095,-0.7095,-0.7095,-0.7125,-0.7326,-0.7478,-0.7631,-0.777,-0.7874,-0.7988,-0.7988,-0.7988,-0.7988,-0.7988,-0.7988,-0.7988,-0.7988,-0.7988,-0.7988,-0.7988,-0.7988,-0.7988,-0.7988,-0.7988,-0.7988,-0.7988,-0.7988,-0.7988,-0.7988,-0.7988,-0.8012,-0.8116,-0.8022,-0.8032,-0.8187,-0.8421,-0.8669,-0.8868,-0.8885,-0.8885,-0.8885,-0.8885,-0.8885,-0.8885,-0.8885,-0.8885,-0.8885,-0.8885,-0.8885,-0.8885,-0.8885,-0.8885]},{"header":{"parameterUnit":"m.s-1","parameterCategory":1,"la1":30.6,"la2":29.2853,"lo1":-89.7004,"lo2":-87.6739,"dy":0.0162,"dx":0.0183,"nx":112,"ny":82,"refTime":"2023-10-22T12:00:00:Z","depth":0,"parameterNumber":3,"parameterNumberName":"V-component_of_WINDS"},"data":[0.0,0.0,0.0,0.0,0.0,0.0,0.0,0.0,0.0,0.0,0.0,0.0,0.0,0.0,0.0,0.0,0.0,0.0,0.0,0.0,0.0,0.0,0.0,0.0,0.0,0.0,0.0,0.0,0.0,0.0,0.0,0.0,0.0,0.0,0.0,0.0,0.0,0.0,0.0,0.0,0.0,0.0,0.0,0.0,0.0,0.0,0.0,0.0,0.0,0.0,0.0,0.0,0.0,0.0,0.0,0.0,0.0,0.0,0.0,0.0,0.0,0.0,0.0,0.0,0.0,0.0,0.0,0.0,0.0,0.0,0.0,0.0,0.0,0.0,0.0,0.0,0.0,0.0,0.0,0.0,0.0,0.0,0.0,0.0,0.0,0.0,0.0,0.0,0.0,0.0,1.1655,0.7516,0.3157,0.0571,0.0673,0.2783,0.5506,0.8814,0.0,0.0,0.0,0.0,0.0,0.0,0.0,0.0,0.0,0.0,0.0,0.0,0.0,0.0,0.0,0.0,0.0,0.0,0.0,0.0,0.0,0.0,0.0,0.0,0.0,0.0,0.0,0.0,0.0,0.0,0.0,0.0,0.0,0.0,0.0,0.0,0.0,0.0,0.0,0.0,0.0,0.0,0.0,0.0,0.0,0.0,0.0,0.0,0.0,0.0,0.0,0.0,0.0,0.0,0.0,0.0,0.0,0.0,0.0,0.0,0.0,0.0,0.0,0.0,0.0,0.0,0.0,0.0,0.0,0.0,0.0,0.0,0.0,0.0,0.0,0.0,0.0,0.0,0.0,0.0,0.0,0.0,0.0,0.0,0.0,0.0,0.0,0.0,0.0,0.0,0.0,0.0,0.0,0.0,0.0,0.0,0.0,0.0,0.0,0.0,0.0,0.0,0.0,0.0,1.0558,0.4536,0.1951,0.1027,0.1857,0.4069,0.6845,1.0187,0.0,0.0,0.0,0.0,0.0,0.0,0.0,0.0,0.0,0.0,0.0,0.0,0.0,0.0,0.0,0.0,0.0,0.0,0.0,0.0,0.0,0.0,0.0,0.0,0.0,0.0,0.0,0.0,0.0,0.0,0.0,0.0,0.0,0.0,0.0,0.0,0.0,0.0,0.0,0.0,0.0,0.0,0.0,0.0,0.0,0.0,0.0,0.0,0.0,0.0,0.0,0.0,0.0,0.0,0.0,0.0,0.0,0.0,0.0,0.0,0.0,0.0,0.0,0.0,0.0,0.0,0.0,0.0,0.0,0.0,0.0,0.0,0.0,0.0,0.0,0.0,0.0,0.0,0.0,0.0,0.0,0.0,0.0,0.0,0.0,0.0,0.0,0.0,0.0,0.0,0.0,0.0,0.0,0.0,0.0,0.0,0.0,0.0,0.0,0.0,0.0,0.0,0.0,1.2421,0.8439,0.3964,0.2369,0.2015,0.2923,0.5454,0.8314,1.1356,1.4227,0.0,0.0,0.0,0.0,0.0,0.0,0.0,0.0,0.0,0.0,0.0,0.0,0.0,0.0,0.0,0.0,0.0,0.0,0.0,0.0,0.0,0.0,0.0,0.0,0.0,0.0,0.0,0.0,0.0,0.0,0.0,0.0,0.0,0.0,0.0,0.0,0.0,0.0,0.0,0.0,0.0,0.0,0.0,0.0,0.0,0.0,0.0,0.0,0.0,0.0,0.0,0.0,0.0,0.0,0.0,0.0,0.0,0.0,0.0,0.0,0.0,0.0,0.0,0.0,0.0,0.0,0.0,0.0,0.0,0.0,0.0,0.0,0.0,0.0,0.0,0.0,0.0,0.0,0.0,0.0,0.0,0.0,0.0,0.0,0.0,0.0,0.0,0.0,0.0,0.0,0.0,0.0,0.0,0.0,0.0,0.0,0.0,0.0,0.0,0.0,0.0,0.0,1.0188,0.725,0.4648,0.3556,0.3453,0.4489,0.7119,0.9963,1.2834,1.6138,0.0,0.0,0.0,0.0,0.0,0.0,0.0,0.0,0.0,0.0,0.0,0.0,0.0,0.0,0.0,0.0,0.0,0.0,0.0,0.0,0.0,0.0,0.0,0.0,0.0,0.0,0.0,0.0,0.0,0.0,0.0,0.0,0.0,0.0,0.0,0.0,0.0,0.0,0.0,0.0,0.0,0.0,0.0,0.0,0.0,0.0,0.0,0.0,0.0,0.0,0.0,0.0,0.0,0.0,0.0,0.0,0.0,0.0,0.0,0.0,0.0,0.0,0.0,0.0,0.0,0.0,0.0,0.0,0.0,0.0,0.0,0.0,0.0,0.0,0.0,0.0,0.0,0.0,0.0,0.0,0.0,0.0,0.0,0.0,0.0,0.0,0.0,0.0,0.0,0.0,0.0,0.0,0.0,0.0,0.0,0.0,0.0,0.0,0.0,0.0,0.0,0.0,1.1168,0.8541,0.6503,0.548,0.5518,0.7016,0.9266,1.1885,1.4881,1.7431,0.0,0.0,0.0,0.0,0.0,0.0,0.0,0.0,0.0,0.0,0.0,0.0,0.0,0.0,0.0,0.0,0.0,0.0,0.0,0.0,0.0,0.0,0.0,0.0,0.0,0.0,0.0,0.0,0.0,0.0,0.0,0.0,0.0,0.0,0.0,0.0,0.0,0.0,0.0,0.0,0.0,0.0,0.0,0.0,0.0,0.0,0.0,0.0,0.0,0.0,0.0,0.0,0.0,0.0,0.0,0.0,0.0,0.0,0.0,0.0,0.0,0.0,0.0,0.0,0.0,0.0,0.0,0.0,0.0,0.0,0.0,0.0,0.0,0.0,0.0,0.0,0.0,0.0,0.0,0.0,0.0,0.0,0.0,0.0,0.0,0.0,0.0,0.0,0.0,0.0,0.0,0.0,0.0,0.0,0.0,0.0,0.0,0.0,0.0,0.0,0.0,0.0,1.2311,0.9944,0.0,0.7246,0.7377,0.8566,1.0867,1.3259,1.5716,0.0,0.0,0.0,0.0,0.0,0.0,0.0,0.0,0.0,0.0,0.0,0.0,0.0,0.0,0.0,0.0,0.0,0.0,0.0,0.0,0.0,0.0,0.0,0.0,0.0,0.0,0.0,0.0,0.0,0.0,0.0,0.0,0.0,0.0,0.0,0.0,0.0,0.0,0.0,0.0,0.0,0.0,0.0,0.0,0.0,0.0,0.0,0.0,0.0,0.0,0.0,0.0,0.0,0.0,0.0,0.0,0.0,0.0,0.0,0.0,0.0,0.0,0.0,0.0,0.0,0.0,0.0,0.0,0.0,0.0,0.0,0.0,0.0,0.0,0.0,0.0,0.0,0.0,0.0,0.0,0.0,0.0,0.0,0.0,0.0,0.0,0.0,0.0,0.0,0.0,0.0,0.0,0.0,0.0,0.0,0.0,0.0,0.0,0.0,0.0,0.0,0.0,1.592,1.355,1.1442,0.0,0.9162,0.9276,1.0324,1.2389,1.4552,1.6703,0.0,0.0,0.0,0.0,0.0,0.0,0.0,0.0,0.0,0.0,0.0,0.0,0.0,0.0,0.0,0.0,0.0,0.0,0.0,0.0,0.0,0.0,0.0,0.0,0.0,0.0,0.0,0.0,0.0,0.0,0.0,0.0,0.0,0.0,0.0,0.0,0.0,0.0,0.0,0.0,0.0,0.0,0.0,0.0,0.0,0.0,0.0,0.0,0.0,0.0,0.0,0.0,0.0,0.0,0.0,0.0,0.0,0.0,0.0,0.0,0.0,0.0,0.0,0.0,0.0,0.0,0.0,0.0,0.0,0.0,0.0,0.0,0.0,0.0,0.0,0.0,0.0,0.0,0.0,0.0,0.0,0.0,0.0,0.0,0.0,0.0,0.0,0.0,0.0,0.0,0.0,0.0,0.0,0.0,0.0,0.0,0.0,0.0,0.0,0.0,0.0,0.0,1.7098,1.4816,1.3077,1.2134,1.1242,1.1225,1.2509,1.3958,1.5794,0.0,0.0,0.0,0.0,0.0,0.0,0.0,0.0,0.0,0.0,0.0,0.0,0.0,0.0,0.0,0.0,0.0,0.0,0.0,0.0,0.0,0.0,0.0,0.0,0.0,0.0,0.0,0.0,0.0,0.0,0.0,0.0,0.0,0.0,0.0,0.0,0.0,0.0,0.0,0.0,0.0,0.0,0.0,0.0,0.0,0.0,0.0,0.0,0.0,0.0,0.0,0.0,0.0,0.0,0.0,0.0,0.0,0.0,0.0,0.0,0.0,0.0,0.0,0.0,0.0,0.0,0.0,0.0,0.0,0.0,0.0,0.0,0.0,0.0,0.0,0.0,0.0,0.0,0.0,0.0,0.0,0.0,0.0,0.0,0.0,0.0,0.0,0.0,0.0,0.0,0.0,0.0,0.0,0.0,0.0,0.0,0.0,0.0,0.0,0.0,0.0,0.0,0.0,1.8218,1.6354,1.4717,1.3345,1.287,1.2928,1.3531,1.506,1.6679,1.8305,0.0,0.0,0.0,0.0,0.0,0.0,0.0,0.0,0.0,0.0,0.0,0.0,0.0,0.0,0.0,0.0,0.0,0.0,0.0,0.0,0.0,0.0,0.0,0.0,0.0,0.0,0.0,0.0,0.0,0.0,0.0,0.0,0.0,0.0,0.0,0.0,0.0,0.0,0.0,0.0,0.0,0.0,0.0,0.0,0.0,0.0,0.0,0.0,0.0,0.0,0.0,0.0,0.0,0.0,0.0,0.0,0.0,0.0,0.0,0.0,0.0,0.0,0.0,0.0,0.0,0.0,0.0,0.0,0.0,0.0,0.0,0.0,0.0,0.0,0.0,0.0,0.0,0.0,0.0,0.0,0.0,0.0,0.0,0.0,0.0,0.0,0.0,0.0,0.0,0.0,0.0,0.0,0.0,0.0,0.0,0.0,0.0,0.0,0.0,0.0,0.0,0.0,1.9775,1.8086,1.6554,1.5144,1.4637,1.453,1.4887,1.6105,1.7343,1.8415,0.0,0.0,0.0,0.0,0.0,0.0,0.0,0.0,0.0,0.0,0.0,0.0,0.0,0.0,0.0,0.0,0.0,0.0,0.0,0.0,0.0,0.0,0.0,0.0,0.0,0.0,0.0,0.0,0.0,0.0,0.0,0.0,0.0,0.0,0.0,0.0,0.0,0.0,0.0,0.0,0.0,0.0,0.0,0.0,0.0,0.0,0.0,0.0,0.0,0.0,0.0,0.0,0.0,0.0,0.0,0.0,0.0,0.0,0.0,0.0,0.0,0.0,0.0,0.0,0.0,0.0,0.0,0.0,0.0,0.0,0.0,0.0,0.0,0.0,0.0,0.0,0.0,0.0,0.0,0.0,0.0,0.0,0.0,0.0,0.0,0.0,0.0,0.0,0.0,0.0,0.0,0.0,0.0,0.0,0.0,0.0,0.0,0.0,0.0,0.0,0.0,0.0,2.1528,1.9905,1.8443,1.721,1.6402,1.6088,1.6437,1.7164,1.7884,1.8615,0.0,0.0,0.0,0.0,0.0,0.0,0.0,0.0,0.0,0.0,0.0,0.0,0.0,0.0,0.0,0.0,0.0,0.0,0.0,0.0,0.0,0.0,0.0,0.0,0.0,0.0,0.0,0.0,0.0,0.0,0.0,0.0,0.0,0.0,0.0,0.0,0.0,0.0,0.0,0.0,0.0,0.0,0.0,0.0,0.0,0.0,0.0,0.0,0.0,0.0,0.0,0.0,0.0,0.0,0.0,0.0,0.0,0.0,0.0,0.0,3.0689,0.0,0.0,0.0,0.0,0.0,0.0,0.0,0.0,0.0,0.0,0.0,0.0,0.0,0.0,0.0,0.0,0.0,0.0,0.0,0.0,0.0,0.0,0.0,0.0,0.0,0.0,0.0,0.0,0.0,0.0,0.0,0.0,0.0,0.0,0.0,0.0,0.0,0.0,0.0,0.0,0.0,2.2614,2.1241,1.9872,1.8486,1.793,1.7692,1.7794,1.8479,1.9158,1.9727,2.0677,0.0,0.0,0.0,0.0,0.0,0.0,0.0,0.0,0.0,0.0,0.0,0.0,0.0,0.0,0.0,0.0,0.0,0.0,0.0,0.0,0.0,0.0,0.0,0.0,0.0,0.0,0.0,0.0,0.0,0.0,0.0,0.0,0.0,0.0,0.0,0.0,0.0,0.0,0.0,0.0,0.0,0.0,0.0,0.0,0.0,0.0,0.0,0.0,0.0,0.0,0.0,0.0,0.0,0.0,0.0,0.0,0.0,0.0,0.0,0.0,3.3352,0.0,0.0,0.0,0.0,0.0,0.0,0.0,0.0,0.0,0.0,0.0,0.0,0.0,0.0,0.0,0.0,0.0,0.0,0.0,0.0,0.0,0.0,0.0,0.0,0.0,0.0,0.0,0.0,0.0,0.0,0.0,0.0,0.0,0.0,0.0,0.0,0.0,0.0,0.0,0.0,2.4318,2.3143,2.1903,2.0344,1.976,1.9411,1.9356,1.9607,1.9954,2.0308,2.1168,0.0,0.0,0.0,0.0,0.0,0.0,0.0,0.0,0.0,0.0,0.0,0.0,0.0,0.0,0.0,0.0,0.0,0.0,0.0,0.0,0.0,0.0,0.0,0.0,0.0,0.0,0.0,0.0,0.0,0.0,0.0,0.0,0.0,0.0,0.0,0.0,0.0,0.0,0.0,0.0,0.0,0.0,0.0,0.0,0.0,0.0,0.0,0.0,0.0,0.0,0.0,0.0,0.0,4.1233,4.1568,4.2149,4.2787,4.3145,4.3046,3.9266,3.7307,3.6795,0.0,0.0,0.0,0.0,0.0,0.0,0.0,0.0,0.0,0.0,0.0,0.0,0.0,0.0,0.0,0.0,0.0,0.0,0.0,0.0,0.0,0.0,0.0,0.0,0.0,3.4718,3.4075,0.0,0.0,0.0,0.0,0.0,0.0,0.0,0.0,0.0,0.0,0.0,0.0,2.6122,2.5128,2.3958,2.2334,2.1588,2.1172,2.1057,2.0867,2.0823,2.1016,2.1766,2.2356,0.0,0.0,0.0,0.0,0.0,0.0,0.0,0.0,0.0,0.0,0.0,0.0,0.0,0.0,0.0,0.0,0.0,0.0,0.0,0.0,0.0,0.0,0.0,0.0,0.0,0.0,0.0,0.0,0.0,0.0,0.0,0.0,3.1785,3.2632,0.0,0.0,0.0,0.0,0.0,0.0,0.0,0.0,0.0,0.0,0.0,0.0,0.0,0.0,4.2138,4.3008,4.3843,4.4588,4.4588,4.4919,4.5552,4.5647,4.6064,4.6621,4.6013,0.0,4.1462,4.0973,0.0,0.0,0.0,0.0,0.0,0.0,0.0,0.0,0.0,0.0,0.0,0.0,0.0,0.0,0.0,0.0,0.0,0.0,0.0,0.0,0.0,0.0,3.8154,3.811,3.777,3.7425,0.0,3.5202,3.3291,3.3469,0.0,0.0,0.0,0.0,0.0,0.0,0.0,0.0,2.751,2.6536,2.5445,2.3891,2.3152,2.2804,2.2774,2.2579,2.2555,2.2765,2.293,2.3285,2.377,2.4719,0.0,0.0,0.0,0.0,0.0,0.0,0.0,0.0,0.0,0.0,0.0,0.0,0.0,0.0,0.0,0.0,0.0,0.0,0.0,0.0,0.0,0.0,0.0,0.0,0.0,0.0,0.0,0.0,0.0,3.3264,3.4172,3.5305,3.5487,3.5466,0.0,0.0,0.0,0.0,0.0,0.0,0.0,0.0,0.0,4.1691,4.2699,4.3814,4.5033,4.5506,4.6061,4.6763,4.6763,4.6977,4.7339,4.7765,4.8211,4.866,4.9088,4.8287,4.6562,4.5072,4.3819,4.2758,0.0,0.0,0.0,0.0,0.0,4.1787,4.1425,4.1278,0.0,0.0,0.0,0.0,0.0,0.0,0.0,0.0,0.0,0.0,0.0,0.0,0.0,3.9551,3.9325,3.9149,3.9246,3.8187,3.6987,0.0,3.5582,3.5249,3.5174,0.0,0.0,0.0,0.0,3.0811,2.8865,2.8211,2.7315,2.5702,2.5093,2.4714,2.4412,2.414,2.3995,2.4008,2.4258,2.4654,2.5105,2.6139,2.6942,0.0,0.0,0.0,0.0,0.0,0.0,0.0,0.0,0.0,0.0,0.0,0.0,0.0,0.0,0.0,0.0,0.0,0.0,0.0,0.0,0.0,0.0,0.0,0.0,0.0,0.0,0.0,0.0,3.5926,3.6908,3.8534,3.8723,3.8677,0.0,0.0,0.0,0.0,0.0,0.0,4.1292,4.2022,4.3096,4.4567,4.5207,4.6216,4.7615,4.7661,4.7845,4.8216,4.84,4.8329,4.8068,4.8841,4.9335,4.9537,5.0096,5.0167,4.9776,4.8264,4.6979,4.5893,4.5681,4.5249,4.4766,4.4902,4.4976,4.4891,4.4288,4.3922,4.3669,4.3111,0.0,4.2287,4.1285,0.0,0.0,0.0,0.0,4.1157,4.1047,4.0861,4.0683,4.0587,4.0441,4.0302,4.0302,4.0302,3.9884,0.0,3.7985,3.7663,3.7075,0.0,0.0,0.0,0.0,3.2487,3.06,2.9932,2.9057,2.755,2.6919,2.6409,2.6026,2.5713,2.5536,2.5633,2.5965,2.6432,2.6967,2.7964,2.8581,2.8768,0.0,0.0,0.0,0.0,0.0,0.0,0.0,0.0,0.0,0.0,0.0,0.0,0.0,0.0,0.0,0.0,0.0,0.0,0.0,0.0,0.0,0.0,0.0,0.0,0.0,0.0,0.0,0.0,0.0,4.2533,4.2088,0.0,0.0,0.0,0.0,4.1598,4.1846,4.2583,4.4018,4.445,4.5626,4.7789,4.8201,4.8775,4.9551,4.9698,4.9412,4.8776,4.9481,4.9051,4.7657,4.859,4.8992,4.8946,4.9104,4.9308,4.9552,4.9889,4.9158,4.7874,4.7982,4.7637,4.7033,4.7061,4.7061,4.7044,4.701,4.6503,4.586,4.5946,4.4872,4.3471,4.3151,4.2587,0.0,0.0,4.23,4.2136,4.2115,4.1835,4.1538,4.152,4.1323,4.1123,4.1123,4.1123,4.0896,0.0,3.931,3.8821,3.8787,0.0,3.7235,3.6322,3.581,3.4816,3.2878,3.1552,3.042,2.9385,2.8287,2.7595,2.7585,2.7333,2.7458,2.8077,2.8252,2.8734,2.9565,3.0284,3.0441,3.0022,3.0684,0.0,0.0,0.0,0.0,0.0,0.0,0.0,0.0,0.0,0.0,0.0,0.0,0.0,0.0,0.0,0.0,0.0,0.0,0.0,0.0,0.0,0.0,0.0,0.0,0.0,0.0,0.0,0.0,4.4897,4.4552,0.0,4.4511,4.3951,4.3681,4.3905,4.3992,4.4338,4.5022,4.5669,4.6404,4.7313,4.7879,4.8332,4.8609,4.8637,4.8543,4.8293,4.8543,4.8479,4.8119,4.8451,4.8785,4.9103,4.9129,4.933,4.9588,4.9829,4.9493,4.8793,4.8828,4.8806,4.8753,4.8753,4.8753,4.8682,4.8151,4.778,4.7391,4.6442,4.5404,4.4453,4.3832,4.3185,4.2673,4.2786,4.2729,4.2634,4.2537,4.2436,4.2295,4.2249,4.2169,4.2107,4.2107,4.2107,4.2026,4.1717,4.0976,4.0341,4.0253,3.9611,3.8786,3.7729,3.7046,3.5999,3.4135,3.3062,3.205,3.0988,3.0079,2.9444,2.9076,2.9443,2.9667,2.9649,3.0265,3.0838,3.1254,3.1754,3.205,3.2084,3.2579,3.2769,0.0,0.0,0.0,0.0,0.0,0.0,0.0,0.0,0.0,0.0,0.0,0.0,0.0,0.0,0.0,0.0,0.0,0.0,0.0,0.0,0.0,0.0,0.0,0.0,0.0,0.0,4.5652,4.723,4.6766,4.6405,4.6581,4.5935,4.5596,4.5825,4.5825,4.59,4.6074,4.6582,4.6923,4.7015,4.7465,4.7729,4.7729,4.7729,4.7588,4.7342,4.7869,4.7953,4.7632,4.8194,4.8519,4.8637,4.8683,4.882,4.9005,4.9089,4.9023,4.8902,4.9303,4.9588,4.9726,4.9726,4.9726,4.9563,4.8505,4.7947,4.7515,4.626,4.5387,4.4706,4.4258,4.3648,4.3068,4.3105,4.3087,4.305,4.2957,4.2882,4.2824,4.2785,4.2528,4.2311,4.2311,4.2075,4.1895,4.1895,4.154,4.1235,4.1152,4.0498,3.9645,3.8692,3.807,3.7162,3.5594,3.4621,3.3727,3.2933,3.212,3.1502,3.1145,3.1551,3.1841,3.1829,3.2412,3.2904,3.3311,3.3667,3.3828,3.3807,3.3887,3.4145,3.4564,0.0,0.0,0.0,0.0,0.0,0.0,0.0,0.0,0.0,0.0,0.0,0.0,0.0,0.0,0.0,0.0,0.0,0.0,0.0,0.0,0.0,0.0,0.0,4.6178,4.6803,4.7945,4.9625,4.8729,4.8181,4.8735,4.766,4.7022,4.7244,4.7284,4.7248,4.715,4.715,4.7128,4.7124,4.7124,4.7164,4.7146,4.7146,4.6769,4.6015,4.7577,4.7527,4.6154,4.7753,4.8125,4.746,4.7585,4.7692,4.7741,4.7741,4.7881,4.8259,4.9477,4.9923,4.9905,4.9905,4.9886,4.9655,4.8098,4.7026,4.6266,4.5608,4.4848,4.425,4.4474,4.4016,4.3429,4.348,4.3464,4.3412,4.3412,4.3269,4.3104,4.3068,4.2377,4.1705,4.1687,4.1071,4.051,4.051,4.096,4.137,4.1369,4.0666,3.9857,3.9121,3.8831,0.0,3.7336,3.6236,3.5436,3.5183,3.4312,3.3765,3.3765,3.3665,3.3888,3.4593,3.4686,3.5006,3.573,3.6032,3.5851,3.517,3.4634,3.4904,3.6033,0.0,0.0,0.0,0.0,0.0,0.0,0.0,0.0,0.0,0.0,0.0,0.0,0.0,0.0,0.0,0.0,0.0,0.0,0.0,0.0,0.0,0.0,4.8432,4.77,4.8912,5.0055,5.0464,4.9792,4.9096,4.8698,4.7939,4.7277,4.6762,4.6708,4.6473,4.5856,4.5838,4.5841,4.5884,4.5884,4.5947,4.6032,4.6032,4.5923,4.5724,4.6159,4.6157,4.5754,4.621,4.6361,4.6258,4.6315,4.6355,4.6413,4.6413,4.6469,4.6672,4.8126,4.8362,4.791,4.791,4.7526,4.696,4.6503,4.621,4.5918,4.5132,4.473,4.4473,4.3959,4.3646,4.348,4.3479,4.3497,4.3463,4.3463,4.3428,4.3246,4.2661,4.2315,4.1987,4.1384,4.1092,4.0946,4.0946,4.0602,4.041,4.0691,4.0546,4.0113,3.9336,3.9157,0.0,3.7899,3.6986,3.6416,3.6274,3.5509,3.4994,3.4942,3.5385,3.5738,3.5894,3.6423,3.6848,3.7152,3.7777,3.8334,3.875,3.8149,3.8277,0.0,0.0,0.0,0.0,0.0,0.0,0.0,0.0,0.0,0.0,0.0,0.0,0.0,0.0,0.0,0.0,0.0,0.0,0.0,0.0,0.0,0.0,4.8789,4.991,4.9159,5.0337,5.1288,5.1292,5.0028,4.9019,4.8687,4.7706,4.6942,4.6487,4.645,4.6102,4.5297,4.526,4.5114,4.482,4.4837,4.489,4.4976,4.4992,4.5009,4.5009,4.5325,4.5474,4.5477,4.5773,4.5938,0.0,4.5957,4.5957,4.5993,4.5993,4.5993,0.0,0.0,0.0,0.0,0.0,4.6104,4.5406,4.5406,4.5186,4.4819,4.4342,4.4195,4.4103,4.3626,4.3515,4.3515,4.3515,4.3515,4.3515,4.3515,4.3515,4.3313,4.2488,4.2047,4.1589,4.0781,4.0341,4.0086,4.0086,0.0,0.0,3.9717,3.9739,3.9592,3.9117,3.8993,3.8778,3.8274,3.7754,3.7398,3.7366,3.6898,3.6576,3.6526,3.6924,0.0,0.0,0.0,3.8456,3.8905,3.9356,0.0,0.0,0.0,4.0306,4.1246,0.0,0.0,0.0,4.1814,4.2456,0.0,0.0,0.0,0.0,0.0,0.0,0.0,0.0,0.0,0.0,0.0,0.0,0.0,0.0,0.0,0.0,4.9804,5.1177,5.0544,5.1121,5.1627,5.1665,4.9729,4.8403,4.8472,4.7174,4.6318,4.6292,4.629,4.5937,4.5133,0.0,0.0,0.0,0.0,4.4151,4.4181,4.4254,4.4279,4.4298,4.4939,4.5248,4.5221,4.5809,4.6079,4.6064,4.5929,4.5859,4.5859,4.5859,4.5859,4.5878,4.5827,4.5791,4.5755,4.5681,4.5204,0.0,4.458,0.0,0.0,4.3515,4.3532,4.3532,4.3515,4.3532,4.3532,4.3532,4.3532,4.3549,4.3531,4.3549,4.331,4.2428,4.1658,4.0887,3.9971,3.9218,3.8723,3.8707,3.8707,3.8707,3.8707,3.8707,3.8707,3.8707,3.8609,3.8525,3.8525,3.8419,3.834,3.834,0.0,0.0,3.8186,3.8186,3.8513,3.9328,3.9364,3.9746,4.0634,4.058,4.065,4.0917,4.1001,4.1568,4.2606,4.2831,4.344,4.4374,4.3388,4.3459,0.0,0.0,0.0,0.0,0.0,0.0,0.0,0.0,0.0,0.0,0.0,0.0,0.0,0.0,0.0,4.9253,5.0496,5.1485,5.1983,5.1064,5.0169,4.9713,4.9235,4.8433,4.7143,4.6733,4.6267,4.5646,4.559,4.5236,4.4446,4.439,0.0,4.4318,4.4332,4.4476,4.4739,4.4751,4.4764,4.4783,0.0,0.0,4.459,4.4716,4.4673,4.4513,4.4498,4.4453,4.4408,4.4408,4.4438,4.4525,4.4983,4.5105,4.4925,4.4281,4.3951,4.3804,4.3804,4.378,4.3719,4.3617,4.3651,4.3719,4.3599,4.3669,0.0,4.3754,4.3754,4.3753,4.38,4.3816,4.3446,4.2001,4.1554,4.0972,3.9359,3.8887,3.8762,3.8723,3.8707,3.8707,3.8707,3.8707,3.8707,3.8707,3.8673,3.8658,3.8658,3.8627,3.8611,3.8611,3.8596,3.8596,3.8596,3.8596,3.8925,3.9729,3.9768,4.0166,4.1038,4.0467,4.0804,4.2274,4.2431,4.2969,4.393,4.4231,4.4556,4.4864,4.4486,4.4518,0.0,0.0,0.0,0.0,0.0,0.0,0.0,0.0,0.0,0.0,0.0,4.7754,0.0,0.0,4.9708,5.0608,5.1116,5.1262,5.0811,5.0411,5.0,4.9594,4.8442,4.7368,4.6519,4.61,4.5685,4.5283,4.5264,4.5076,4.4674,4.4655,4.4675,4.4739,4.4777,4.4881,4.5057,4.5091,4.5103,4.5103,4.5068,4.496,4.4789,4.4707,4.4602,4.4481,4.4322,4.4236,4.4192,4.4192,4.4283,4.4426,4.474,4.4693,4.4399,4.3962,4.3798,4.3798,4.3798,4.383,4.3881,4.3814,4.3849,4.3897,4.386,4.3894,4.3961,4.3989,4.4005,4.402,4.4033,4.4048,4.3751,4.2538,4.2229,4.1739,4.0032,3.9575,3.9483,3.946,3.9403,3.9485,3.989,3.9601,3.9166,3.8762,3.8707,3.8707,3.8707,3.8707,3.8704,3.875,3.875,3.878,3.8837,3.922,3.9611,3.9986,4.0375,4.0812,4.1277,4.0954,4.1427,4.2865,4.3039,4.3613,4.4655,4.4895,4.508,4.5192,4.4715,4.4753,0.0,0.0,0.0,0.0,0.0,0.0,0.0,0.0,4.8365,4.8614,4.9649,5.0685,5.1363,5.1001,5.0715,5.1109,5.1136,5.0551,4.904,4.9296,4.9587,4.9425,4.7586,4.6275,4.6123,4.5517,4.5148,4.5148,4.5148,4.5148,4.5148,4.5148,4.5148,4.5159,4.5203,4.5246,4.5267,4.5309,4.5329,4.5329,4.5288,4.5256,4.5224,4.508,4.4979,4.4943,4.4662,4.4538,4.4538,4.4552,4.4655,4.4815,4.4815,4.4595,4.4279,4.4155,4.4079,4.4079,4.4079,4.4109,4.4124,4.4094,4.4109,4.414,4.4151,4.4181,4.4244,4.4283,4.4298,4.4294,4.4322,4.4336,4.413,4.3306,4.3063,4.26,4.1115,4.0635,4.0507,4.0477,4.0396,4.0511,4.1141,4.067,3.9908,3.9056,3.8814,3.8719,3.8719,3.8735,3.878,3.8837,3.8848,3.8921,3.905,3.9806,4.0226,4.0167,4.0781,4.1178,4.1219,4.1307,4.1763,4.2672,4.2987,4.3604,4.4543,4.4685,4.482,4.4921,4.4334,4.4469,4.2428,4.3303,4.418,4.4595,4.6108,4.7597,0.0,0.0,5.0862,5.108,5.1878,5.2407,5.1866,5.1685,5.1207,4.9855,4.9644,4.9298,4.8337,4.7664,4.7271,4.7261,4.6786,4.6192,4.5485,4.5343,4.5286,4.5286,4.5286,4.5286,4.5286,4.5286,4.5307,4.5359,4.5369,4.5409,4.5467,4.5476,4.5476,4.5476,4.5467,4.5438,4.5388,4.5348,4.5286,4.5159,4.5061,4.5026,4.5026,4.5084,4.5117,4.5148,4.5148,4.5125,4.5007,4.4525,4.436,4.436,4.436,4.4481,4.46,4.4421,4.4481,4.46,4.4421,4.4495,4.4627,4.464,4.464,4.4667,4.4796,4.4833,4.4606,4.3748,4.3491,4.3146,4.2057,4.1729,4.1605,4.1549,4.1481,4.1431,4.1467,4.1381,4.0972,3.9929,3.9225,3.8792,3.8792,3.8896,3.8983,3.8983,3.9073,3.9183,3.9259,3.9991,4.0435,4.0365,4.0514,4.0579,4.0593,4.0723,4.0929,4.1232,4.2067,4.2639,4.2954,4.3082,4.3205,4.3269,4.3244,4.3667,4.326,4.4758,4.6111,4.6301,4.7852,4.9365,4.9543,5.0626,5.1619,5.1718,5.2459,5.2978,5.2672,5.1826,5.0952,0.0,4.9317,4.8355,4.7528,4.7096,4.6721,4.6201,4.6032,4.5832,4.5506,4.5467,4.5467,4.5467,4.5467,4.5467,4.5467,4.5467,4.5496,4.5524,4.5524,4.5523,4.5559,4.5559,4.5559,4.5559,4.5559,4.5541,4.5524,4.5467,4.54,4.5317,4.5286,4.5256,4.5286,4.5307,4.5319,4.532,4.532,4.5329,4.5286,4.4929,4.4808,4.4808,4.4808,4.4864,4.4919,4.4833,4.4864,4.4919,4.4869,4.4924,4.4991,4.5045,4.5057,4.5049,4.5125,4.5136,4.5041,4.469,4.4517,4.4177,4.3253,4.2938,4.283,4.2754,4.2634,4.2679,4.3104,4.2733,4.2221,4.1765,4.0496,3.9457,3.9034,3.9064,3.9156,3.9272,3.9489,3.9587,3.9551,3.99,4.0107,3.9996,4.0021,4.0046,4.0083,4.0215,4.0598,4.1214,4.1681,4.223,4.288,4.2917,4.2989,4.3052,4.2577,4.2511,4.4344,4.6041,4.7548,4.7934,4.9304,5.0593,5.0674,5.1397,5.2039,5.2053,5.2526,5.2858,5.2618,5.1347,5.0192,4.9721,4.8586,4.749,4.6663,4.6547,4.6317,4.5691,4.5594,4.5594,4.5594,4.5622,4.5631,4.5631,4.5637,4.5646,4.5629,4.5646,4.5657,4.5631,4.5631,4.5622,4.5594,4.5594,4.5594,4.5594,4.5594,4.5594,4.5594,4.5559,4.5505,4.5448,4.5448,4.5448,4.5448,4.5448,4.5458,4.5467,4.5467,4.5467,4.5438,4.5298,4.5205,4.5181,4.5181,4.5173,4.5184,4.5192,4.5173,4.5194,4.5235,4.5256,4.5277,4.5319,4.5329,4.5329,4.535,4.535,4.535,4.535,4.5267,4.5009,4.4339,4.4079,4.398,4.3954,4.3813,4.3886,4.4444,4.3974,4.3422,4.3156,4.1978,4.0849,4.0001,3.981,3.9721,3.967,3.9832,3.9927,3.9832,3.9927,3.9927,3.981,3.984,3.9851,3.9884,4.0008,4.0414,4.1113,4.1236,4.1632,4.2305,4.2305,4.2341,4.2374,4.1739,4.145,4.6004,4.7272,4.8319,4.9361,5.0312,5.1015,5.1148,5.1793,5.2396,5.2474,5.2349,5.1973,5.1131,5.0131,4.8913,4.7278,4.6962,4.6624,4.5768,4.5633,4.5633,4.5594,4.5594,4.5594,0.0,4.5657,4.5701,4.5701,4.5754,4.5765,4.5708,4.5758,4.5762,4.5701,4.5701,4.5676,4.5594,4.5594,4.5594,4.5594,4.5594,4.5594,4.5594,4.5594,4.5605,4.5586,4.5586,4.5586,4.5586,4.5586,4.5586,4.5586,4.5586,4.5586,4.5586,4.5586,4.5505,4.5398,4.5398,4.539,4.539,4.5399,4.539,4.539,4.5399,4.54,4.54,4.54,4.54,4.541,4.5485,4.5495,4.5495,4.5495,4.5438,4.5369,4.5269,4.5098,4.4984,4.5053,4.4988,4.4936,4.4895,4.4864,4.4512,4.3536,4.3446,4.3113,4.2064,4.1409,4.08,4.0138,4.0091,4.0129,4.0187,4.0196,4.0158,4.0091,4.0148,4.0148,4.0091,4.0224,4.0325,4.0435,4.0496,4.0545,4.0573,4.0573,4.0573,4.0573,4.0554,4.0535,4.6414,4.7675,4.8665,4.964,5.0159,5.0414,5.0466,5.0199,4.994,4.9913,4.9786,4.9567,4.9235,4.8396,4.7567,4.6981,4.6413,4.5932,4.5633,4.5594,4.5594,4.5594,4.5594,0.0,0.0,0.0,0.0,4.5703,4.5761,4.5812,4.5826,4.5852,4.5838,4.5769,4.5758,4.573,4.5676,4.5676,4.564,4.5594,4.5594,4.5594,4.5594,4.5594,4.5594,4.5594,4.5594,4.5594,4.5594,4.5594,4.5594,4.5594,4.5594,4.5594,4.5594,4.5594,4.5559,4.5542,4.5542,4.5532,4.5522,4.5523,4.5532,4.5522,4.5523,4.5532,4.5522,4.5522,4.5522,4.555,4.5568,4.5568,4.5568,4.5568,4.5523,4.5467,4.5448,4.5331,4.527,4.5291,4.5269,4.5265,4.5243,4.5192,4.5074,4.477,4.3672,4.2758,4.2503,4.2328,4.1934,4.1179,4.1148,4.0945,4.0382,4.037,4.037,4.0307,4.0316,4.0316,4.0298,4.0388,4.0449,4.0466,4.0487,4.05,4.0496,4.0496,4.0496,4.0496,4.0496,4.0496,4.6702,4.7673,4.8396,4.9315,4.9588,4.9648,4.9648,4.9171,4.8718,4.8656,4.8282,4.7939,4.789,4.7086,4.6432,4.6432,4.5988,4.564,4.564,4.5665,4.5662,4.5662,4.5679,4.5684,0.0,0.0,0.0,4.5771,4.5867,4.5923,4.5966,4.5969,4.5927,4.5848,4.5847,4.5795,4.5706,4.5709,4.5676,4.5594,4.5594,4.5594,4.5594,4.5594,4.5594,4.5594,4.5594,4.5594,4.5594,4.5594,4.5594,4.5594,4.5594,4.5594,4.5594,4.5594,4.5594,4.5594,4.5594,4.5594,4.5594,4.5594,4.5594,4.5594,4.5594,4.5594,4.5594,4.5594,4.5594,4.5594,4.5594,4.5594,4.5594,4.5594,4.5559,4.5504,4.5504,4.5438,4.541,4.5429,4.5448,4.5438,4.5438,4.538,4.536,4.5438,4.4382,4.35,4.3302,4.3302,4.3023,4.2207,4.2164,4.1978,4.1407,4.1124,4.0952,4.0899,4.0611,4.0438,4.0438,4.0471,4.0641,4.0968,4.0954,4.095,4.095,4.095,4.0804,4.0496,4.0496,4.0496,4.6894,4.7395,4.7592,4.8472,4.871,4.8718,4.872,4.869,4.8637,4.8577,4.7801,4.7101,0.0,0.0,4.5614,4.5614,4.5657,4.5709,4.5709,4.5762,4.5815,0.0,0.0,0.0,0.0,0.0,0.0,4.591,0.0,4.6102,4.6102,4.6103,4.6041,4.5917,4.5922,4.5854,4.5704,4.5706,4.5676,4.5614,4.5594,4.5594,4.5594,4.5594,4.5594,4.5594,4.5594,4.5594,4.5594,4.5594,4.5594,4.5594,4.5594,4.5594,4.5594,4.5594,4.5594,4.5594,4.5594,4.5594,4.5594,4.5594,4.5594,4.5594,4.5594,4.5594,4.5594,4.5594,4.5594,4.5594,4.5594,4.5594,4.5594,4.5594,4.5559,4.5504,4.5504,4.5467,4.5429,4.5495,4.5504,4.5504,4.5504,4.5448,4.5429,4.5495,4.5504,4.5235,4.4467,4.4371,4.4062,4.325,4.3162,4.3143,4.3104,4.2335,4.1865,4.1865,4.1085,4.0631,4.0631,4.0631,4.1008,4.1846,4.1865,4.1865,4.1865,4.1808,4.1373,4.0573,4.0516,4.0496,4.6801,4.7252,4.7451,4.828,4.8044,4.7637,4.7736,4.7253,4.6788,4.6765,4.6479,4.6215,0.0,0.0,0.0,4.5665,4.573,0.0,4.5776,4.5819,0.0,4.5867,0.0,4.5886,4.5933,4.5972,0.0,0.0,4.6111,4.6118,4.6164,4.6164,4.6156,4.6126,4.6087,4.5988,4.5861,4.575,4.5693,4.5665,4.5631,4.5594,4.5594,4.5594,4.5594,4.5594,4.5594,4.5594,4.5594,4.5594,4.5594,4.5594,4.5594,4.5594,4.5594,4.5594,4.5594,4.5594,4.5594,4.5594,4.5594,4.5594,4.5594,4.5594,4.5594,4.5594,4.5594,4.5594,4.5594,4.5594,4.5594,4.5594,4.5594,4.5594,4.5586,4.5577,4.5577,4.5568,4.5559,4.5568,4.5577,4.5577,4.5577,4.5568,4.554,4.5577,4.5577,4.55,4.5288,4.5269,4.4942,4.4085,4.3989,4.3758,4.3143,4.2893,4.2777,4.2777,4.2566,4.2431,4.2431,4.2431,4.2547,4.2758,4.2777,4.2777,4.2777,4.2124,4.17,4.145,4.0804,4.0496,4.6282,4.6494,4.6621,4.7083,4.6894,4.6623,4.675,4.6431,4.6082,4.605,4.5949,4.5845,4.577,4.6004,4.6249,0.0,0.0,0.0,4.6468,4.6496,4.642,0.0,4.6008,0.0,4.6076,4.6096,4.6115,0.0,4.6172,4.6175,4.6238,4.6246,4.622,4.6206,4.6161,4.6072,4.5891,4.5805,4.5727,4.5706,4.5665,4.5631,4.5594,4.5594,4.5594,4.5594,0.0,4.5594,4.5594,4.5594,4.5594,4.5594,4.5594,4.5594,4.5594,4.5594,4.5594,4.5594,4.5594,4.5594,4.5594,4.5594,4.5594,4.5594,4.5594,4.5594,4.5594,4.5594,4.5594,4.5594,4.5594,4.5594,4.5594,4.5594,4.5594,4.5594,4.5594,4.5594,4.5594,4.5594,4.5594,4.5594,4.5594,4.5594,4.5594,4.5594,4.5594,4.5594,4.5594,4.5594,4.5421,4.4913,4.4874,4.4682,4.4239,4.3855,4.3624,4.3624,4.3297,4.3104,4.3104,4.3104,4.3278,4.3624,4.3624,4.3624,4.3624,4.2777,4.2181,4.1769,4.0912,4.0496,4.5576,4.5533,4.5535,4.5605,4.5694,4.5797,4.5942,4.6047,4.6088,4.6006,4.5896,4.5783,4.5706,4.626,4.6805,4.697,0.0,4.8108,4.7489,4.741,4.7122,4.6388,4.6237,4.6194,4.6216,4.6206,4.6216,4.6207,4.6207,4.6233,4.6302,4.6306,4.6262,4.6214,4.6197,4.6118,4.5928,4.5848,4.5793,4.5731,4.5714,4.5665,4.5603,4.5594,4.5594,4.5594,0.0,0.0,4.5594,4.5594,4.5594,4.5594,4.5594,4.5594,4.5594,4.5594,4.5594,4.5594,4.5594,4.5594,4.5594,4.5594,4.5594,4.5594,4.5594,4.5594,4.5594,4.5594,4.5594,4.5594,4.5594,4.5594,4.5594,4.5594,4.5594,4.5594,4.5594,4.5594,4.5594,4.5594,4.5594,4.5594,4.5594,4.5594,4.5594,4.5594,4.5594,4.5594,4.5594,4.5594,4.5594,4.5594,4.5594,4.5594,4.5594,4.4921,4.447,4.447,4.3816,4.3431,4.3431,4.3431,4.3758,4.4451,4.447,4.4412,4.4297,4.3489,4.2643,4.1769,4.0912,4.0554,4.5165,4.5099,4.512,4.5263,4.5419,4.5622,4.5852,4.6013,0.0,4.5939,4.5848,4.5773,4.5717,4.5803,4.6167,4.6946,4.7327,4.7732,4.8346,4.7889,4.7437,0.0,4.6626,4.622,4.6287,4.6288,0.0,0.0,0.0,4.6286,4.6306,4.6308,4.6288,4.6278,4.623,4.6167,4.6076,4.5944,4.588,4.5866,4.5746,4.5695,4.5684,4.5631,4.5594,4.5594,4.5594,0.0,4.5594,4.5594,4.5594,4.5594,4.5594,4.5594,4.5594,4.5594,4.5594,4.5594,4.5594,4.5594,4.5594,4.5594,4.5594,4.5594,4.5594,4.5594,4.5594,4.5594,4.5594,4.5594,4.5594,4.5594,4.5594,4.5594,4.5594,4.5594,4.5594,4.5594,4.5594,4.5594,4.5594,4.5594,4.5594,4.5594,4.5594,4.5594,4.5594,4.5594,4.5594,4.5594,4.5594,4.5594,4.5594,4.5594,4.5594,4.546,4.5364,4.5364,4.5248,4.5171,4.5171,4.5171,4.5229,4.5364,4.5364,4.5017,4.4297,4.3489,4.2643,4.1769,4.0912,4.0893,4.4875,4.482,4.4875,4.5041,4.53,4.544,4.5231,0.0,0.0,4.5198,4.5088,4.5158,4.558,4.6045,4.6542,4.7018,4.7971,4.8662,4.8697,4.8423,4.8062,4.7606,4.6789,4.6264,0.0,4.6305,0.0,0.0,0.0,4.6308,4.6308,4.6308,4.6307,4.6301,4.6262,4.6211,4.6154,4.6054,4.5961,4.5906,4.5798,4.5727,4.5701,4.5631,4.5594,4.5594,4.5594,0.0,4.5594,4.5594,4.5594,4.5594,4.5594,4.5594,4.5594,4.5594,4.5594,4.5594,4.5594,4.5594,4.5594,4.5594,4.5594,4.5594,4.5594,4.5594,4.5594,4.5594,4.5594,4.5594,4.5594,4.5594,4.5594,4.5594,4.5594,4.5594,4.5594,4.5594,4.5594,4.5594,4.5594,4.5594,4.5594,4.5594,4.5594,4.5594,4.5594,4.5594,4.5594,4.5594,4.5594,4.5594,4.5594,4.5594,4.5594,4.5594,4.5594,4.5594,4.5594,4.5594,4.5594,4.5594,4.5594,4.5594,4.5152,4.472,4.4297,4.3047,4.222,4.1788,4.1373,4.1393,4.4608,4.456,4.4687,4.4908,4.5222,4.5281,4.4646,4.4532,4.4545,4.4462,4.4344,4.4538,4.5423,4.6194,4.6804,0.0,4.8357,4.9186,4.8769,4.8658,4.8371,0.0,4.6836,0.0,4.6308,0.0,0.0,0.0,0.0,0.0,4.6308,4.6308,4.6306,4.6303,4.6294,4.6273,4.6195,4.6142,4.6042,4.5929,4.584,4.5758,4.569,4.564,4.5594,4.5594,4.5594,0.0,0.0,4.5594,4.5594,4.5594,4.5594,4.5594,4.5594,4.5594,4.5594,4.5594,4.5594,4.5594,4.5594,4.5594,4.5594,4.5594,4.5594,4.5594,4.5594,4.5594,4.5594,4.5594,4.5594,4.5594,4.5594,4.5594,4.5594,4.5594,4.5594,4.5594,4.5594,4.5594,4.5594,4.5594,4.5594,4.5594,4.5594,4.5594,4.5594,4.5594,4.5594,4.5594,4.5594,4.5594,4.5594,4.5594,4.5594,4.5594,4.5594,4.5594,4.5594,4.5594,4.5594,4.5594,4.5594,4.5594,4.494,4.4489,4.4297,4.2797,4.2085,4.2058,4.1885,4.1981,4.4336,4.4331,4.45,4.4827,4.5131,4.5176,4.4628,0.0,4.446,4.4281,4.4224,4.4475,4.5359,4.568,4.6097,4.6953,0.0,4.7806,4.8594,4.8125,4.7684,4.7615,0.0,0.0,4.6308,0.0,0.0,0.0,0.0,0.0,4.6308,4.6308,4.6308,4.6307,4.6303,4.6272,4.6204,4.618,4.6111,4.5991,4.5867,4.5757,4.57,4.5629,4.5594,4.5594,4.5594,0.0,0.0,4.5594,4.5594,4.5594,4.5594,4.5594,4.5594,4.5594,4.5594,4.5594,4.5594,4.5594,4.5594,4.5594,4.5594,4.5594,4.5594,4.5594,4.5594,4.5594,4.5594,4.5594,4.5594,4.5594,4.5594,4.5594,4.5594,4.5594,4.5594,4.5594,4.5594,4.5594,4.5594,4.5594,4.5594,4.5594,4.5594,4.5594,4.5594,4.5594,4.5594,4.5594,4.5594,4.5594,4.5594,4.5594,4.5594,4.5594,4.5594,4.5594,4.5594,4.5594,4.5594,4.5594,4.5594,4.5594,4.5518,4.5094,4.4297,4.3412,4.2989,4.297,4.2181,4.2624,4.4467,4.4449,4.4589,4.49,4.4769,4.4419,4.3796,0.0,4.2703,4.2554,4.2939,4.3589,4.4546,4.5213,4.5778,4.624,4.6849,0.0,4.7855,4.7704,4.7542,4.7595,4.6836,0.0,0.0,0.0,0.0,0.0,0.0,0.0,4.6308,4.6308,4.6308,4.6305,4.63,4.6264,4.6203,4.6153,4.6075,4.5947,4.5834,4.5765,4.5706,4.562,4.5594,4.5594,4.5594,0.0,0.0,4.5594,4.5594,4.5594,4.5594,4.5594,4.5594,4.5594,4.5594,4.5594,4.5594,4.5594,4.5594,4.5594,4.5594,4.5594,4.5594,4.5594,4.5594,4.5594,4.5594,4.5594,4.5594,4.5594,4.5594,4.5594,4.5594,4.5594,4.5594,4.5594,4.5594,4.5594,4.5594,4.5594,4.5594,4.5594,4.5594,4.5594,4.5594,4.5594,4.5594,4.5594,4.5594,4.5594,4.5594,4.5594,4.5594,4.5594,4.5594,4.5594,4.5594,4.5594,4.5594,4.5594,4.5594,4.5594,4.5075,4.4643,4.4297,4.3489,4.3104,4.3104,4.3239,4.3662,4.4681,4.4726,4.4832,4.5054,4.4619,4.3931,4.3181,0.0,4.1474,4.1298,4.2022,4.2943,4.3963,4.4929,4.5612,4.5754,4.637,4.6854,4.6971,4.7059,4.7144,4.7201,0.0,0.0,0.0,0.0,0.0,0.0,0.0,0.0,0.0,4.6308,4.6308,4.6304,4.6297,4.6278,4.6192,4.6107,4.6017,4.5905,4.5812,4.5754,4.5701,4.5631,4.5594,4.5594,0.0,0.0,0.0,4.5594,4.5594,4.5594,4.5594,4.5594,4.5594,4.5594,4.5594,4.5594,4.5594,4.5594,4.5594,4.5594,4.5594,4.5594,4.5594,4.5594,4.5594,4.5594,4.5594,4.5594,4.5594,4.5594,4.5594,4.5594,4.5594,4.5594,4.5594,4.5594,4.5594,4.5594,4.5594,4.5594,4.5594,4.5594,4.5594,4.5594,4.5594,4.5594,4.5594,4.5594,4.5594,4.5594,4.5594,4.5594,4.5594,4.5594,4.5594,4.5594,4.5594,4.5594,4.5594,4.5594,4.5594,4.5594,4.4998,4.4682,4.4682,4.3855,4.3585,4.3855,4.4162,4.4432,4.4911,4.5141,4.5229,4.5357,4.4791,4.3952,4.3014,4.2033,4.1246,4.1059,4.1795,4.2808,4.3824,4.4825,4.5531,4.5684,4.5822,4.5938,4.6011,4.6121,4.6234,0.0,0.0,0.0,0.0,0.0,0.0,0.0,0.0,0.0,0.0,4.6308,4.6308,4.6307,4.63,4.6262,4.6206,4.606,4.5963,4.5905,4.5764,4.5703,4.5701,4.5631,4.5594,0.0,0.0,0.0,0.0,4.5594,4.5594,4.5594,4.5594,4.5594,4.5594,4.5594,4.5594,4.5594,4.5594,4.5594,4.5594,4.5594,4.5594,4.5594,4.5594,4.5594,4.5594,4.5594,4.5594,4.5594,4.5594,4.5594,4.5594,4.5594,4.5594,4.5594,4.5594,4.5594,4.5594,4.5594,4.5594,4.5594,4.5594,4.5594,4.5594,4.5594,4.5594,4.5594,4.5594,4.5594,4.5594,4.5594,4.5594,4.5594,4.5594,4.5594,4.5594,4.5594,4.5594,4.5594,4.5594,4.5594,4.5594,4.5594,4.5594,4.5594,4.5575,4.4701,4.472,4.5556,4.4701,4.4759,4.5089,4.5318,4.5347,4.5391,4.4248,4.3022,4.2676,4.1292,4.0047,3.9921,4.0709,4.1737,4.2778,4.3827,4.4777,4.5518,4.5739,4.5867,0.0,0.0,0.0,4.6291,4.6306,0.0,0.0,0.0,0.0,0.0,0.0,0.0,0.0,4.6308,4.6308,4.6307,4.63,4.6262,4.6209,4.608,4.5963,4.5905,4.5764,4.5703,4.5701,4.5631,0.0,0.0,0.0,0.0,0.0,4.5594,4.5594,4.5594,4.5594,4.5594,4.5594,4.5594,4.5594,4.5594,4.5594,4.5594,4.5594,4.5594,4.5594,4.5594,4.5594,4.5594,4.5594,4.5594,4.5594,4.5594,4.5594,4.5594,4.5594,4.5594,4.5594,4.5594,4.5594,4.5594,4.5594,4.5594,4.5594,4.5594,4.5594,4.5594,4.5594,4.5594,4.5594,4.5594,4.5594,4.5594,4.5594,4.5594,4.5594,4.5594,4.5594,4.5594,4.5594,4.5594,4.5594,4.5594,4.5594,4.5594,4.5594,4.5594,4.5594,4.5594,4.5594,4.5325,4.5325,4.5594,4.5325,4.5344,4.4955,4.5311,4.5205,4.4902,4.3632,0.0,4.1944,4.0552,3.9337,3.9285,4.0345,4.1519,4.2314,4.3601,4.4738,4.5445,4.5688,4.5848,0.0,0.0,0.0,4.6281,0.0,0.0,0.0,0.0,0.0,0.0,0.0,0.0,0.0,4.5508,4.5312,4.5312,4.5969,4.6264,4.6197,4.6064,4.5963,4.5905,4.5764,4.5703,4.5701,4.5631,0.0,0.0,0.0,0.0,0.0,4.5594,4.5594,4.5594,4.5594,4.5594,4.5594,4.5594,4.5594,4.5594,4.5594,4.5594,4.5594,4.5594,4.5594,4.5594,4.5594,4.5594,4.5594,4.5594,4.5594,4.5594,4.5594,4.5594,4.5594,4.5594,4.5594,4.5594,4.5594,4.5594,4.5594,4.5594,4.5594,4.5594,4.5594,4.5594,4.5594,4.5594,4.5594,4.5594,4.5594,4.5594,4.5594,4.5594,4.5594,4.5594,4.5594,4.5594,4.5594,4.5594,4.5594,4.5594,4.5594,4.5594,4.5594,4.5594,4.5594,4.5594,4.5594,4.5594,4.5594,4.5594,4.5594,4.5594,0.0,4.5028,4.4866,4.4054,4.2991,4.1922,4.0988,3.9892,0.0,3.9101,4.0541,4.1931,4.2314,4.3879,4.5206,4.5457,4.5673,4.5834,0.0,4.6084,0.0,0.0,0.0,0.0,0.0,0.0,0.0,0.0,0.0,0.0,0.0,4.4141,4.3691,4.3691,4.5267,4.6111,4.611,4.6057,4.5973,4.5917,4.5771,4.5692,4.5701,4.5631,0.0,0.0,0.0,0.0,0.0,4.5594,4.5594,4.5594,4.5594,4.5594,4.5594,4.5594,4.5594,4.5594,4.5594,4.5594,4.5594,4.5594,4.5594,4.5594,4.5594,4.5594,4.5594,4.5594,4.5594,4.5594,4.5594,4.5594,4.5594,4.5594,4.5594,4.5594,4.5594,4.5594,4.5594,4.5594,4.5594,4.5594,4.5594,4.5594,4.5614,4.5691,4.5691,4.5691,4.5691,4.5691,4.5671,4.5614,4.5594,4.5594,4.5594,4.5594,4.5594,4.5594,4.5594,4.5594,4.5594,4.5594,4.5594,4.5594,4.5594,4.5594,4.5594,4.5594,4.5594,4.5594,4.5594,4.5594,4.2632,0.0,4.4451,4.3631,4.2616,4.1591,0.0,3.9723,3.8993,3.9142,4.0139,4.1261,4.216,4.3401,4.4555,4.5361,4.5673,4.5828,4.5964,0.0,0.0,0.0,0.0,0.0,0.0,0.0,0.0,0.0,0.0,0.0,0.0,4.3808,4.3691,4.3691,4.41,4.4621,4.5272,4.5866,4.6084,4.5973,4.5841,4.5742,4.5711,4.5629,0.0,0.0,0.0,0.0,4.5594,4.5594,4.5594,4.5594,4.5594,4.5594,4.5594,4.5594,4.5594,4.5594,4.5594,4.5594,4.5594,4.5594,4.5594,4.5594,4.5594,4.5594,4.5594,4.5594,4.5594,4.5594,4.5594,4.5594,4.5594,4.5594,4.5594,4.5594,4.5594,4.5594,4.5594,4.5594,4.5594,4.5594,4.5594,4.5594,4.5825,4.649,4.6586,4.6586,4.6586,4.6586,4.6336,4.5671,4.5594,4.5594,4.5594,4.5594,4.5594,4.5594,4.5594,4.5594,4.5594,4.5594,4.5594,4.5594,4.5594,4.5594,4.5594,4.5594,4.5594,4.5594,4.5594,4.5594,4.1899,4.2959,4.3367,4.266,4.1973,4.1171,4.0038,3.9326,3.895,3.9156,4.0328,4.1506,4.2264,4.3596,4.4796,4.5444,4.5708,0.0,0.0,0.0,4.63,0.0,0.0,0.0,0.0,0.0,0.0,0.0,0.0,0.0,0.0,4.2754,4.2558,4.2558,4.291,4.3512,4.4397,4.4794,4.4968,4.4851,4.5124,4.5199,4.5113,4.5456,4.5594,0.0,0.0,0.0,4.5594,4.5594,4.5594,4.5594,4.5594,4.5594,4.5594,4.5594,4.5594,4.5594,4.5594,4.5594,4.5594,4.5594,4.5594,4.5594,4.5594,4.5594,4.5594,4.5594,4.5594,4.5594,4.5594,4.5594,4.5594,4.5594,4.5594,4.5594,4.5594,4.5594,4.5594,4.5594,4.5594,4.5594,4.5594,4.5594,4.5893,4.6778,4.6904,4.7019,4.7413,4.7451,4.7124,4.6297,4.6201,4.6028,4.5633,4.5594,4.5594,4.5594,4.5594,4.5594,4.5594,4.5594,4.5594,4.5594,4.5594,4.5594,4.5594,4.5594,4.5594,4.5594,4.5594,4.5594,4.1235,4.1952,4.2117,4.1724,4.1406,4.0833,3.9412,3.9028,3.9073,3.9386,4.0858,4.2215,0.0,4.4275,0.0,0.0,0.0,0.0,4.637,4.6344,0.0,0.0,0.0,0.0,0.0,0.0,0.0,0.0,0.0,0.0,0.0,4.1562,4.1191,4.1191,4.1855,4.2556,4.3304,4.3515,4.3581,4.3523,4.4261,4.4543,4.4446,4.5244,4.5594,0.0,0.0,0.0,4.5594,4.5594,4.5518,4.5402,4.5402,4.5402,4.5402,4.5402,4.5498,4.5594,4.5594,4.5594,4.5594,4.5594,4.5594,4.5594,4.5594,4.5594,4.5594,4.5594,4.5594,4.5594,4.5594,4.5594,4.5594,4.5594,4.5594,4.5594,4.5594,4.5594,4.5594,4.5594,4.5594,4.5594,4.5594,4.5594,4.5932,4.6932,4.7077,4.7375,4.8202,4.8298,4.799,4.7173,4.6962,4.6605,4.5864,4.5691,4.5594,4.5594,4.5594,4.5594,4.5594,4.5594,4.5594,4.5594,4.5594,4.5594,4.5594,4.5594,4.5594,4.5594,4.5594,4.5594,3.9071,4.0431,4.1578,4.2073,4.1687,4.0977,4.0189,3.9617,3.953,4.0528,4.1628,4.2726,0.0,4.5395,4.6708,0.0,0.0,0.0,0.0,0.0,0.0,0.0,0.0,0.0,0.0,0.0,0.0,0.0,0.0,0.0,0.0,4.1269,4.1172,4.1112,4.1248,4.1363,4.1508,4.2944,4.3656,4.3587,4.4266,4.4563,4.4503,4.5261,4.5594,0.0,0.0,4.5594,4.5594,4.5594,4.5171,4.4489,4.4489,4.4489,4.4489,4.4489,4.4979,4.5594,4.5594,4.5594,4.5594,4.5594,4.5594,4.5594,4.5594,4.5594,4.5594,4.5594,4.5594,4.5594,4.5594,4.5594,4.5594,4.5594,4.5594,4.5594,4.5594,4.5594,4.5594,4.5594,4.5594,4.5594,4.5594,4.5594,4.6133,4.7682,4.7932,4.824,4.9086,4.9202,4.8875,4.8009,4.7317,4.6846,4.6721,4.6009,4.5594,4.5594,4.5594,4.5594,4.5594,4.5594,4.5594,4.5594,4.5594,4.5594,4.5594,4.5594,4.5594,4.5594,4.5594,4.5594,3.8669,3.9946,4.1167,4.2372,4.2363,4.1897,4.1225,4.0904,4.096,4.1661,4.261,4.3503,0.0,0.0,4.7224,4.786,0.0,0.0,0.0,0.0,0.0,0.0,0.0,0.0,0.0,0.0,0.0,0.0,0.0,0.0,0.0,0.0,4.1132,4.111,4.1107,4.1101,4.1106,4.1853,4.2212,4.2151,4.2888,4.3434,4.3824,4.4559,4.5152,4.5575,0.0,4.4893,4.4855,4.4432,4.4008,4.3643,4.3643,4.3643,4.3701,4.4143,4.4855,4.5594,4.5594,4.5594,4.5594,4.5594,4.5594,4.5594,4.5594,4.5594,4.5594,4.5594,4.5594,4.5594,4.5594,4.5594,4.5594,4.5594,4.5594,4.5594,4.5594,4.5594,4.5594,4.5594,4.5594,4.5594,4.5594,4.599,4.6701,4.7913,4.8509,4.9125,4.999,5.0087,4.976,4.8894,4.8471,4.7875,4.6981,4.6528,4.6105,4.5633,4.5594,4.5594,4.5594,4.5594,4.5594,4.5594,4.5594,4.5594,4.5594,4.5594,4.5594,4.5594,4.5594,4.5594,3.8258,3.9531,4.072,4.2235,4.274,4.2775,4.2263,4.2156,4.2289,4.2756,0.0,0.0,0.0,4.6086,0.0,4.8554,0.0,0.0,0.0,0.0,0.0,0.0,0.0,0.0,0.0,0.0,0.0,0.0,0.0,0.0,0.0,0.0,4.0719,4.0499,4.0687,4.079,4.0767,4.0719,4.0763,4.0914,4.1703,4.2376,4.2941,4.3684,4.4374,4.4979,4.4316,4.4028,4.397,4.3355,4.2989,4.2797,4.2797,4.2912,4.3201,4.3989,4.4855,4.5594,4.5594,4.5594,4.5594,4.5594,4.5594,4.5594,4.5594,4.5594,4.5594,4.5594,4.5594,4.5594,4.5594,4.5594,4.5594,4.5594,4.5594,4.5594,4.5594,4.5768,4.5893,4.5893,4.6047,4.6191,4.6191,4.674,4.7471,4.8279,4.8971,4.9702,5.0596,5.0712,5.0442,4.9779,4.951,4.8721,4.7038,4.6904,4.6528,4.5671,4.5594,4.5594,4.5594,4.5594,4.5594,4.5594,4.5594,4.5594,4.5594,4.5594,4.5594,4.5594,4.5594,4.5594,3.6909,3.865,4.0184,4.1161,4.23,4.3176,4.3192,4.2865,4.2824,4.3789,0.0,0.0,0.0,4.6711,4.7765,4.8647,0.0,0.0,0.0,0.0,0.0,0.0,0.0,0.0,0.0,0.0,0.0,0.0,0.0,0.0,0.0,0.0,0.0,3.8711,3.9476,3.9858,3.9809,3.9789,4.0163,4.0914,4.1643,4.2035,4.2116,4.2853,4.322,4.3278,4.3201,4.3181,4.3181,4.3124,4.2624,4.1885,4.1885,4.2393,4.3201,4.3989,4.4855,4.5594,4.5594,4.5594,4.5594,4.5594,4.5594,4.5594,4.5594,4.5594,4.5594,4.5594,4.5594,4.5594,4.5594,4.5594,4.5594,4.5594,4.5594,4.5594,4.5594,4.624,4.6817,4.6817,4.7413,4.7913,4.7913,4.7971,4.8317,4.9183,4.9356,4.9702,5.0596,5.0712,5.0673,5.0616,4.9875,4.8721,4.7038,4.6904,4.6528,4.5671,4.5594,4.5594,4.5594,4.5594,4.5594,4.5594,4.5594,4.5594,4.5594,4.5594,4.5594,4.5594,4.5594,4.5594,3.6774,3.8365,3.9815,4.181,4.3101,4.3873,4.3798,4.4074,4.4508,4.5038,4.5264,0.0,0.0,0.0,4.7843,0.0,0.0,0.0,0.0,0.0,0.0,0.0,0.0,0.0,0.0,0.0,0.0,0.0,0.0,0.0,0.0,0.0,0.0,3.8505,3.8775,3.8896,3.8835,3.933,3.9717,3.9976,4.0808,4.1454,4.1943,4.2175,4.2585,4.3066,4.2527,4.2297,4.2258,4.17,4.1277,4.0989,4.0989,4.1527,4.2393,4.3239,4.4085,4.4874,4.5421,4.5594,4.5594,4.5594,4.5594,4.5594,4.5594,4.5594,4.5594,4.5594,4.5594,4.5594,4.5594,4.5594,4.5594,4.5594,4.5594,4.5594,4.5594,4.6278,4.6904,4.6904,4.7548,4.8105,4.8105,4.8548,4.9029,4.9356,4.9856,5.0327,5.0654,5.0712,5.0712,5.0712,4.9913,4.9144,4.8509,4.7971,4.7509,4.7182,4.6191,4.5594,4.5594,4.5594,4.5594,4.5594,4.5594,4.5594,4.5594,4.5594,4.5594,4.5594,4.5594,4.5594,3.6966,3.855,4.0016,4.2124,4.3536,4.4421,4.4345,4.4954,4.5587,4.5789,4.5925,4.6236,4.6977,0.0,0.0,0.0,0.0,0.0,0.0,0.0,0.0,0.0,0.0,0.0,0.0,0.0,0.0,0.0,0.0,0.0,0.0,0.0,0.0,0.0,3.7855,3.7933,3.787,3.838,3.8896,3.9373,3.9979,4.0686,4.1493,4.1408,4.172,4.2239,4.1643,4.1393,4.1335,4.0746,4.0496,4.0496,4.0496,4.1027,4.1904,4.2777,4.3605,4.4412,4.5306,4.5594,4.5594,4.5594,4.5594,4.5594,4.5594,4.5594,4.5594,4.5594,4.5594,4.5594,4.5594,4.5594,4.5594,4.5594,4.5594,4.5594,4.5594,4.6278,4.6981,4.7231,4.7952,4.8606,4.8875,4.9413,4.9798,4.9798,5.0327,5.0712,5.0712,5.0712,5.0712,5.0712,5.0173,4.9702,4.9413,4.8856,4.8394,4.8125,4.7028,4.6394,4.6394,4.6144,4.6009,4.6009,4.5748,4.5594,4.5594,4.5594,4.5594,4.5594,4.5594,4.5594,3.7384,3.9223,4.0851,4.186,4.3416,4.4715,4.4795,4.5322,4.5822,4.5889,4.6064,4.6223,4.6299,0.0,0.0,0.0,0.0,0.0,0.0,0.0,0.0,0.0,0.0,0.0,0.0,0.0,0.0,0.0,0.0,0.0,0.0,0.0,0.0,0.0,3.6604,3.6963,3.6884,3.6825,3.7636,3.929,3.929,3.976,4.0607,4.0531,4.0496,4.0496,4.0496,4.0496,4.0496,4.0496,4.0496,4.0496,4.0496,4.1027,4.1885,4.2777,4.3605,4.4412,4.5287,4.5594,4.5594,4.5594,4.5594,4.5594,4.5594,4.5594,4.5594,4.5594,4.5594,4.5594,4.5594,4.5594,4.5594,4.5594,4.5594,4.5594,4.5594,4.6278,4.7135,4.7932,4.8798,4.9663,5.0539,5.0693,5.0712,5.0712,5.0712,5.0712,5.0712,5.0712,5.0712,5.0712,5.0712,5.0346,4.949,4.9413,4.9048,4.8182,4.8125,4.8125,4.8105,4.7336,4.6904,4.6904,4.6047,4.5614,4.5594,4.5594,4.5594,4.5594,4.5594,4.5594,3.8999,4.0181,4.1253,4.3386,4.4389,4.5005,4.5634,4.5889,4.6037,0.0,4.6197,4.6284,4.6308,0.0,0.0,0.0,0.0,0.0,0.0,0.0,0.0,0.0,0.0,0.0,0.0,0.0,0.0,0.0,0.0,0.0,0.0,0.0,0.0,0.0,3.6028,3.6042,3.5985,3.6473,3.7286,3.8387,3.9011,3.9723,4.0531,4.0504,4.0496,4.0496,4.0496,4.0496,4.0496,4.0496,4.0496,4.0496,4.0496,4.0669,4.0989,4.1854,4.272,4.3566,4.4393,4.5094,4.5594,4.5594,4.5594,4.5594,4.5594,4.5594,4.5594,4.5594,4.5594,4.5594,4.5594,4.5594,4.5594,4.5594,4.5594,4.5594,4.5594,4.6278,4.6962,4.7212,4.8413,4.9471,4.974,5.0289,5.0712,5.0712,5.0712,5.0712,5.0712,5.0712,5.0712,5.0712,5.0712,5.0596,5.0346,5.0308,5.0202,4.9952,4.9933,4.9375,4.8144,4.7875,4.749,4.6904,4.6644,4.6201,4.5594,4.5594,4.5594,4.5594,4.5594,4.5594,4.0492,4.1686,4.2737,4.4379,4.5094,4.556,4.6119,0.0,0.0,0.0,4.6265,4.6191,4.5852,0.0,0.0,0.0,0.0,0.0,0.0,0.0,0.0,0.0,0.0,0.0,0.0,0.0,0.0,0.0,0.0,0.0,0.0,0.0,0.0,0.0,3.5722,3.5621,3.5565,3.6009,3.6654,3.7488,3.8027,3.87,3.9534,4.0208,4.0496,4.0496,4.0496,4.0496,4.0496,4.0496,4.0496,4.0496,4.0496,4.0496,4.0612,4.1489,4.2354,4.322,4.4028,4.4874,4.5594,4.5594,4.5594,4.5594,4.5594,4.5594,4.5594,4.5594,4.5594,4.5594,4.5594,4.5594,4.5594,4.5594,4.5594,4.5594,4.5594,4.6009,4.649,4.6827,4.7721,4.8509,4.8836,4.9317,4.9779,5.0125,5.0481,5.0712,5.0712,5.0712,5.0712,5.0712,5.0712,5.0712,5.0712,5.0712,5.0712,5.0712,5.0712,5.0231,4.9183,4.8798,4.824,4.7394,4.7058,4.6471,4.5594,4.5594,4.5594,4.5594,4.5594,4.5594,4.1957,4.3458,4.4763,4.4968,4.5621,0.0,4.6285,4.6244,4.618,4.6185,0.0,4.5914,4.5046,0.0,0.0,0.0,0.0,0.0,0.0,0.0,0.0,0.0,0.0,0.0,0.0,0.0,0.0,0.0,0.0,0.0,0.0,0.0,0.0,0.0,3.5684,3.5587,3.5515,3.5508,3.5911,0.0,3.6692,3.7161,3.8046,3.9592,4.0323,4.04,4.0477,4.0496,4.0496,4.0496,4.0496,4.0496,4.0496,4.0496,4.0593,4.1393,4.2239,4.3104,4.3912,4.4759,4.5498,4.5575,4.5594,4.5594,4.5594,4.5594,4.5594,4.5594,4.5594,4.5594,4.5594,4.5594,4.5594,4.5594,4.5594,4.5594,4.5594,4.5594,4.5825,4.6624,4.6855,4.7135,4.7855,4.8048,4.8394,4.926,5.0067,5.0616,5.0693,5.0712,5.0712,5.0712,5.0712,5.0712,5.0712,5.0712,5.0712,5.0712,5.0712,5.0712,5.0712,4.9933,4.9106,4.824,4.7432,4.6586,4.5729,4.5633,4.5594,4.5594,4.5594,4.5594,4.3662,4.4482,4.5027,4.5738,4.611,4.6285,4.6308,4.5761,4.5273,4.5273,4.5289,4.5005,0.0,0.0,0.0,0.0,0.0,0.0,0.0,0.0,0.0,0.0,0.0,0.0,0.0,0.0,0.0,0.0,0.0,0.0,0.0,0.0,0.0,3.5799,3.5723,3.566,3.5585,3.5534,3.59,0.0,3.6692,3.7161,3.8007,3.8373,3.8911,3.9592,4.0227,4.0496,4.0496,4.0496,4.0496,4.0496,4.0496,4.0496,4.0516,4.0708,4.1335,4.22,4.3066,4.3893,4.4682,4.5383,4.5594,4.5594,4.5594,4.5594,4.5594,4.5594,4.5594,4.5594,4.5594,4.5594,4.5594,4.5594,4.5594,4.5594,4.5594,4.5594,4.5671,4.5845,4.6432,4.6942,4.7135,4.7682,4.8394,4.926,4.9548,4.9933,5.0616,5.0712,5.0712,5.0712,5.0712,5.0712,5.0712,5.0712,5.0712,5.0712,5.0712,5.0712,5.0712,5.0519,5.001,4.9144,4.8279,4.7451,4.6624,4.5932,4.5594,4.5594,4.5594,4.5594,4.4923,4.5471,4.5645,4.6129,0.0,4.6308,4.6308,4.5625,4.4883,4.445,4.4385,0.0,0.0,0.0,0.0,0.0,0.0,0.0,0.0,0.0,0.0,0.0,0.0,0.0,0.0,0.0,0.0,0.0,0.0,0.0,0.0,3.5314,3.5058,3.4559,3.4488,3.4618,3.493,3.4892,3.5309,3.6135,3.6135,3.6365,3.6834,3.7623,3.8257,3.8719,3.9554,3.9938,3.9958,4.0342,4.0496,4.0496,4.0496,4.0496,4.0496,4.0496,4.1046,4.1923,4.2797,4.3624,4.4432,4.5325,4.5594,4.5594,4.5594,4.5594,4.5594,4.5594,4.5594,4.5594,4.5594,4.5594,4.5594,4.5594,4.5594,4.5594,4.5594,4.5594,4.5594,4.5594,4.597,4.6278,4.6278,4.6971,4.7682,4.8125,4.8529,4.9086,4.9971,5.0067,5.025,5.0654,5.0712,5.0712,5.0712,5.0712,5.0712,5.0712,5.0712,5.0712,5.0712,5.0712,5.0289,4.9413,4.8952,4.8125,4.6904,4.6432,4.6009,4.5594,4.5594,4.5594,4.5511,4.6099,4.6225,4.6286,4.6308,0.0,4.6308,4.5508,4.457,4.3843,0.0,0.0,0.0,0.0,0.0,0.0,0.0,0.0,0.0,0.0,0.0,0.0,0.0,0.0,0.0,0.0,0.0,0.0,0.0,0.0,3.4748,3.4499,3.4032,3.3235,3.3146,3.339,3.3981,3.4135,3.4578,3.5269,3.5423,3.55,3.5558,3.6949,3.7642,3.7815,3.87,3.9169,3.9361,4.0015,4.0362,4.0496,4.0496,4.0496,4.0496,4.0496,4.095,4.172,4.2758,4.3547,4.4259,4.5267,4.5594,4.5594,4.5594,4.5594,4.5594,4.5594,4.5594,4.5594,4.5594,4.5594,4.5594,4.5594,4.5594,4.5594,4.5594,4.5594,4.5594,4.5594,4.5594,4.5594,4.5594,4.6201,4.674,4.6885,4.7471,4.8202,4.9067,4.9183,4.9452,5.0164,5.0385,5.0481,5.0481,5.0616,5.0712,5.0712,5.0712,5.0712,5.0712,5.0712,5.0366,4.9644,4.9471,4.8721,4.7336,4.7038,4.6528,4.5825,4.5671,4.5594,4.4804,4.5662,4.6286,4.6308,4.6308,4.6308,0.0,0.0,4.3845,0.0,0.0,0.0,0.0,0.0,0.0,0.0,0.0,0.0,0.0,0.0,0.0,0.0,0.0,0.0,0.0,0.0,0.0,0.0,0.0,0.0,3.4715,3.3989,3.3456,3.3202,3.3192,3.3171,3.3155,3.3901,3.4314,3.4379,3.5135,3.55,3.5519,3.5731,3.6212,3.6923,3.7796,3.8604,3.9304,3.9419,3.9881,4.0496,4.0496,4.0496,4.0496,4.0496,4.0573,4.092,4.2547,4.3162,4.3528,4.5094,4.5594,4.5594,4.5594,4.5594,4.5594,4.5594,4.5594,4.5594,4.5594,4.5594,4.5594,4.5594,4.5594,4.5594,4.5594,4.5594,4.5594,4.5594,4.5594,4.5594,4.5594,4.571,4.6028,4.6797,4.6981,4.7355,4.8163,4.8279,4.8317,4.8432,4.9125,4.9567,4.9567,5.0269,5.0712,5.0712,5.0712,5.0712,5.0712,5.0712,5.0654,5.0539,4.9779,4.9279,4.9067,4.7605,4.6827,4.6721,4.5951,4.5594,4.5301,4.599,4.6308,4.6308,4.6308,4.6308,4.6308,4.4959,4.3705,0.0,0.0,0.0,0.0,0.0,0.0,0.0,0.0,0.0,0.0,0.0,0.0,0.0,0.0,0.0,0.0,0.0,0.0,0.0,0.0,3.449,3.3994,3.3155,3.2391,3.1825,3.1767,3.1917,3.2268,3.2656,3.33,3.4205,3.5084,3.55,3.55,3.55,3.5692,3.6077,3.6904,3.7777,3.8604,3.9111,3.9765,4.0496,4.0496,4.0496,4.0496,4.0496,4.0496,4.0689,4.1931,4.2701,4.3297,4.4489,4.521,4.5594,4.5594,4.5594,4.5594,4.5594,4.5594,4.5594,4.5594,4.5594,4.5594,4.5594,4.5594,4.5594,4.5594,4.5594,4.5594,4.5594,4.5594,4.5594,4.5594,4.5594,4.5729,4.6105,4.6163,4.6471,4.7317,4.7817,4.8298,4.8779,4.9606,5.0125,5.0125,5.0481,5.0712,5.0712,5.0712,5.0712,5.0712,5.0712,5.0712,5.0712,5.0327,4.9894,4.9394,4.8663,4.7817,4.6885,4.6509,4.6067,4.5532,4.613,4.6308,4.6308,4.6308,4.6308,0.0,0.0,4.3697,0.0,0.0,0.0,0.0,0.0,0.0,0.0,0.0,0.0,0.0,0.0,0.0,0.0,0.0,0.0,0.0,0.0,0.0,0.0,0.0,3.4316,3.345,3.2575,3.1662,3.0724,3.0634,3.0863,3.14,3.181,3.2743,3.4205,3.5084,3.55,3.55,3.55,3.55,3.5538,3.6135,3.6885,3.7738,3.8604,3.9457,4.0227,4.0419,4.0496,4.0496,4.0496,4.0496,4.0631,4.1508,4.2239,4.2931,4.397,4.4739,4.5306,4.5537,4.5594,4.5594,4.5594,4.5594,4.5594,4.5594,4.5594,4.5594,4.5594,4.5594,4.5594,4.5594,4.5594,4.5594,4.5594,4.5594,4.5594,4.5594,4.5594,4.5594,4.5594,4.5594,4.5825,4.649,4.7298,4.8048,4.8702,4.9721,5.0366,5.0366,5.0577,5.0712,5.0712,5.0712,5.0712,5.0712,5.0712,5.0712,5.0712,5.0712,5.0385,4.9721,4.951,4.8644,4.7192,4.7,4.6432,4.4814,4.5661,4.6307,4.6308,4.6308,4.6308,0.0,0.0,0.0,0.0,0.0,0.0,0.0,0.0,0.0,0.0,0.0,0.0,0.0,0.0,0.0,0.0,0.0,0.0,0.0,0.0,0.0,0.0,0.0,3.4316,3.3453,3.2566,3.1677,3.0722,3.0628,3.0589,3.0562,3.2081,3.3301,3.4205,3.5084,3.55,3.55,3.55,3.55,3.55,3.5538,3.6019,3.6846,3.7719,3.8584,3.9438,4.0208,4.0496,4.0496,4.0496,4.0496,4.0631,4.1508,4.1827,4.2143,4.3778,4.4335,4.4509,4.5344,4.5594,4.5594,4.5594,4.5594,4.5594,4.5594,4.5594,4.5594,4.5594,4.5594,4.5594,4.5594,4.5594,4.5594,4.5594,4.5594,4.5594,4.5594,4.5594,4.5594,4.5594,4.5594,4.5614,4.5671,4.6432,4.6981,4.7019,4.849,4.9471,4.9471,5.0221,5.0712,5.0712,5.0712,5.0712,5.0712,5.0712,5.0712,5.0712,5.0712,5.0673,5.0635,4.9798,4.8933,4.8029,4.7259,4.6432,4.3915,4.4793,4.5465,4.5468,4.5898,4.6308,4.6302,4.4922,4.3626,0.0,0.0,0.0,0.0,0.0,0.0,0.0,0.0,0.0,0.0,0.0,0.0,0.0,0.0,0.0,0.0,0.0,0.0,0.0,0.0,0.0,3.4253,3.3402,3.2493,3.1568,3.1468,3.111,3.0444,3.2076,3.3064,3.3372,3.4808,3.55,3.55,3.55,3.55,3.55,3.55,3.5962,3.6712,3.7038,3.768,3.8546,3.94,3.9727,3.9785,4.0304,4.0496,4.0535,4.0854,4.1335,4.1904,4.2508,4.3412,4.4355,4.4662,4.5171,4.5594,4.5594,4.5594,4.5594,4.5594,4.5594,4.5594,4.5594,4.5594,4.5594,4.5594,4.5594,4.5594,4.5594,4.5594,4.5594,4.5594,4.5594,4.5594,4.5594,4.5594,4.5594,4.5594,4.6817,4.7682,4.7682,4.9202,5.0231,5.0231,5.0519,5.0712,5.0712,5.0712,5.0712,5.0712,5.0712,5.0712,5.0712,5.0712,5.0712,5.0712,5.0385,4.949,4.8086,4.7798,4.724,4.2992,4.3874,4.4638,4.4937,4.5448,4.5937,4.6239,0.0,4.3908,0.0,0.0,0.0,0.0,0.0,0.0,0.0,0.0,0.0,0.0,0.0,0.0,0.0,0.0,0.0,0.0,0.0,0.0,0.0,0.0,0.0,3.4722,3.4143,3.3269,3.2004,3.1904,3.1539,3.0846,3.2218,3.3045,3.3353,3.4808,3.55,3.55,3.55,3.55,3.55,3.55,3.5808,3.6327,3.6596,3.7038,3.7642,3.8527,3.9034,3.9361,3.99,4.0265,4.0496,4.0496,4.0873,4.1412,4.1692,4.2758,4.3951,4.422,4.4913,4.5594,4.5594,4.5594,4.5594,4.5594,4.5594,4.5594,4.5594,4.5594,4.5594,4.5594,4.5594,4.5594,4.5594,4.5594,4.5594,4.5594,4.5594,4.5594,4.5594,4.5594,4.5594,4.5594,4.7067,4.8105,4.8105,4.9663,5.0712,5.0712,5.0712,5.0712,5.0712,5.0712,5.0712,5.0712,5.0712,5.0712,5.0712,5.0712,5.0712,5.0712,5.0423,4.951,4.8086,4.7817,4.7413,0.0,0.0,0.0,4.4717,4.494,0.0,4.6063,0.0,4.4502,0.0,0.0,0.0,0.0,0.0,0.0,0.0,0.0,0.0,0.0,0.0,0.0,0.0,0.0,0.0,0.0,0.0,0.0,0.0,0.0,3.5624,3.478,3.4711,3.3845,3.1988,3.1859,3.1763,3.1698,3.2506,3.3333,3.4205,3.5084,3.55,3.55,3.55,3.55,3.55,3.55,3.55,3.5558,3.6346,3.6654,3.675,3.7623,3.8488,3.9265,3.9284,3.9804,4.0496,4.0496,4.0496,4.065,4.1489,4.2374,4.3258,4.4028,4.4893,4.5594,4.5594,4.5594,4.5594,4.5594,4.5594,4.5594,4.5594,4.5594,4.5594,4.5594,4.5594,4.5594,4.5594,4.5594,4.5594,4.5594,4.5594,4.5594,4.5594,4.5594,4.5594,4.5594,4.7067,4.8105,4.8105,4.9663,5.0712,5.0712,5.0712,5.0712,5.0712,5.0712,5.0712,5.0712,5.0712,5.0712,5.0712,5.0712,5.0712,5.0712,4.9856,4.8971,4.8086,4.7269,4.6904,4.1061,0.0,0.0,0.0,0.0,0.0,4.5099,4.4587,4.3829,0.0,0.0,0.0,0.0,0.0,0.0,0.0,0.0,0.0,0.0,0.0,0.0,0.0,0.0,0.0,0.0,0.0,0.0,0.0,3.6367,3.5898,3.5659,3.4993,3.4069,3.2815,3.2139,3.1763,3.1698,3.2506,3.3333,3.4205,3.5084,3.55,3.55,3.55,3.55,3.55,3.55,3.55,3.5519,3.5731,3.5827,3.5904,3.6731,3.7584,3.843,3.9073,3.9804,4.0496,4.0496,4.0496,4.0535,4.0785,4.1873,4.3143,4.3355,4.4451,4.5594,4.5594,4.5594,4.5594,4.5594,4.5594,4.5594,4.5594,4.5594,4.5594,4.5594,4.5594,4.5594,4.5594,4.5594,4.5594,4.5594,4.5594,4.5594,4.5594,4.5594,4.5594,4.5594,4.7067,4.8105,4.8105,4.9663,5.0712,5.0712,5.0712,5.0712,5.0712,5.0712,5.0712,5.0712,5.0712,5.0712,5.0712,5.0712,5.0712,5.0712,5.0462,4.9567,4.8086,4.7269,4.7212,0.0,0.0,0.0,0.0,0.0,0.0,4.4164,4.3911,4.3361,0.0,0.0,0.0,0.0,0.0,0.0,0.0,0.0,0.0,0.0,0.0,0.0,0.0,0.0,0.0,0.0,0.0,0.0,3.7832,3.7363,3.6911,3.6522,3.5611,3.4649,3.3674,3.2775,3.2445,3.2737,3.2852,3.3526,3.4757,3.525,3.55,3.55,3.55,3.55,3.55,3.55,3.55,3.55,3.55,3.55,3.5577,3.6385,3.7238,3.8104,3.8977,3.9804,4.0496,4.0496,4.0496,4.0496,4.0496,4.1681,4.3104,4.3104,4.4259,4.5594,4.5594,4.5594,4.5594,4.5594,4.5594,4.5594,4.5594,4.5594,4.5594,4.5594,4.5594,4.5594,4.5594,4.5594,4.5594,4.5594,4.5594,4.5594,4.5594,4.5594,4.5594,4.5594,4.7067,4.8105,4.8105,4.9663,5.0712,5.0712,5.0712,5.0712,5.0712,5.0712,5.0712,5.0712,5.0712,5.0712,5.0712,5.0712,5.0712,5.0712,5.0327,4.9279,4.7586,4.7115,4.7336,0.0,0.0,0.0,0.0,4.1936,0.0,4.3118,4.3301,4.3049,4.2197,0.0,0.0,0.0,0.0,0.0,0.0,0.0,0.0,0.0,0.0,0.0,0.0,0.0,0.0,0.0,3.9258,3.873,3.873,3.8651,3.8189,3.724,3.6397,3.546,3.4413,3.3572,3.3487,3.4186,3.343,3.3872,3.55,3.55,3.55,3.55,3.55,3.55,3.55,3.55,3.55,3.55,3.55,3.55,3.5577,3.6385,3.7238,3.8104,3.8977,3.9804,4.0496,4.0496,4.0496,4.0496,4.0496,4.1604,4.297,4.3066,4.4201,4.5479,4.5575,4.5594,4.5594,4.5594,4.5594,4.5594,4.5594,4.5594,4.5594,4.5594,4.5594,4.5594,4.5594,4.5594,4.5594,4.5594,4.5594,4.5594,4.5594,4.5594,4.5594,4.5594,4.699,4.8009,4.8086,4.9567,5.0596,5.0693,5.0712,5.0712,5.0712,5.0712,5.0712,5.0712,5.0712,5.0712,5.0712,5.0712,5.0712,5.0712,4.9817,4.8625,4.7182,4.7077,4.7471,0.0,0.0,0.0,0.0,0.0,0.0,4.1308,4.2032,4.2427,0.0,0.0,0.0,0.0,0.0,0.0,0.0,0.0,0.0,0.0,0.0,0.0,0.0,0.0,0.0,0.0,4.0156,3.9648,3.9647,3.8951,3.8101,3.7166,3.6892,3.5999,3.4362,3.41,3.4045,3.4205,3.4032,3.4468,3.55,3.55,3.55,3.55,3.55,3.55,3.55,3.55,3.55,3.55,3.55,3.55,3.5577,3.6385,3.7238,3.8104,3.8977,3.9804,4.0496,4.0496,4.0496,4.0496,4.0496,4.12,4.2181,4.2893,4.3778,4.4701,4.5402,4.5594,4.5594,4.5594,4.5594,4.5594,4.5594,4.5594,4.5594,4.5594,4.5594,4.5594,4.5594,4.5594,4.5594,4.5594,4.5594,4.5594,4.5594,4.5594,4.5594,4.5594,4.6509,4.7394,4.8029,4.9029,4.9933,5.0635,5.0712,5.0712,5.0712,5.0712,5.0712,5.0712,5.0712,5.0712,5.0712,5.0712,5.0712,5.0712,4.9817,4.9221,4.8894,4.8202,4.8336,0.0,0.0,0.0,3.8285,0.0,0.0,0.0,4.029,4.094,4.0871,4.1146,0.0,0.0,0.0,0.0,0.0,0.0,0.0,0.0,0.0,0.0,0.0,0.0,0.0,0.0,4.0801,4.0526,4.0499,3.9636,3.8689,3.7743,3.7215,3.6325,3.4942,3.4449,3.4411,3.4834,3.441,3.4641,3.55,3.55,3.55,3.55,3.55,3.55,3.55,3.55,3.55,3.55,3.55,3.55,3.5615,3.6865,3.7623,3.8142,3.9438,4.015,4.0496,4.0496,4.0496,4.0496,4.0496,4.1085,4.1885,4.2316,4.3316,4.447,4.5344,4.5594,4.5594,4.5594,4.5594,4.5594,4.5594,4.5594,4.5594,4.5594,4.5594,4.5594,4.5594,4.5594,4.5594,4.5594,4.5594,4.5594,4.5594,4.5594,4.5594,4.5594,4.6355,4.7038,4.7471,4.8644,4.9586,5.001,5.0462,5.0712,5.0712,5.0712,5.0712,5.0712,5.0712,5.0712,5.0712,5.0712,5.0712,5.0712,5.0269,4.9817,4.9394,4.8952,4.8971,0.0,0.0,0.0,0.0,0.0,3.7718,0.0,0.0,0.0,3.9359,3.9997,0.0,0.0,0.0,0.0,0.0,0.0,0.0,0.0,0.0,0.0,0.0,0.0,0.0,0.0,4.1289,4.1168,4.1108,4.0367,3.9519,3.8583,3.7638,3.6715,3.5779,3.4892,3.4795,3.5481,3.4795,3.4795,3.55,3.55,3.55,3.55,3.55,3.55,3.55,3.55,3.55,3.55,3.55,3.55,3.5673,3.7353,3.8007,3.82,3.9881,4.0496,4.0496,4.0496,4.0496,4.0496,4.0496,4.1085,4.1827,4.2,4.3104,4.447,4.5344,4.5594,4.5594,4.5594,4.5594,4.5594,4.5594,4.5594,4.5594,4.5594,4.5594,4.5594,4.5594,4.5594,4.5594,4.5594,4.5594,4.5594,4.5594,4.5594,4.5594,4.5594,4.6201,4.6721,4.6885,4.8105,4.9048,4.9375,5.0048,5.0519,5.0693,5.0712,5.0712,5.0712,5.0712,5.0712,5.0712,5.0712,5.0712,5.0712,5.0712,5.0346,4.9644,4.9644,4.9644,0.0,0.0,0.0,0.0,3.6301,0.0,0.0,0.0,3.8387,3.8448,0.0,0.0,0.0,0.0,0.0,0.0,0.0,0.0,0.0,0.0,0.0,0.0,0.0,0.0,0.0,0.0,4.1115,4.1097,4.0887,4.0347,3.9407,3.8477,3.7553,3.6671,3.5809,3.5404,3.55,3.5404,3.5404,3.55,3.55,3.55,3.55,3.55,3.55,3.55,3.55,3.55,3.55,3.55,3.55,3.5673,3.7353,3.8007,3.82,3.9881,4.0496,4.0496,4.0496,4.0496,4.0496,4.0496,4.1085,4.1942,4.272,4.3585,4.447,4.5344,4.5594,4.5594,4.5594,4.5594,4.5594,4.5594,4.5594,4.5594,4.5594,4.5594,4.5594,4.5594,4.5594,4.5594,4.5594,4.5594,4.5594,4.5594,4.5594,4.5594,4.5594,4.5691,4.6028,4.6817,4.7058,4.7798,4.926,4.949,4.9875,5.0654,5.0712,5.0712,5.0712,5.0712,5.0712,5.0712,5.0712,5.0712,5.0712,5.0712,5.0654,5.0558,5.0558,5.0558,0.0,0.0,0.0,0.0,0.0,0.0,3.5348,0.0,3.7142,0.0,0.0,0.0,0.0,0.0,0.0,0.0,4.1406,0.0,0.0,0.0,0.0,0.0,0.0,0.0,0.0,0.0,0.0,0.0,0.0,4.05,3.9547,3.8608,3.7674,3.6778,3.593,3.55,3.55,3.55,3.55,3.55,3.55,3.55,3.55,3.55,3.55,3.55,3.55,3.55,3.55,3.55,3.55,3.5673,3.7353,3.8007,3.82,3.9881,4.0496,4.0496,4.0496,4.0496,4.0496,4.0496,4.0746,4.1296,4.2681,4.3335,4.3874,4.5229,4.5594,4.5594,4.5594,4.5594,4.5594,4.5594,4.5594,4.5594,4.5594,4.5594,4.5594,4.5594,4.5594,4.5594,4.5594,4.5594,4.5594,4.5594,4.5594,4.5594,4.5594,4.5594,4.5748,4.6105,4.6605,4.7173,4.7894,4.8836,4.9548,4.9913,5.0423,5.0712,5.0712,5.0712,5.0712,5.0712,5.0712,5.0712,5.0712,5.0712,5.0712,5.0712,5.0712,5.0712,3.3065,0.0,0.0,0.0,0.0,0.0,0.0,0.0,0.0,0.0,0.0,0.0,0.0,0.0,0.0,0.0,0.0,4.1676,0.0,0.0,0.0,0.0,0.0,0.0,0.0,0.0,0.0,4.232,4.1416,4.0571,3.9881,3.8948,3.8005,3.7084,3.625,3.5712,3.55,3.55,3.55,3.55,3.55,3.55,3.55,3.55,3.55,3.55,3.55,3.55,3.55,3.55,3.55,3.5673,3.7353,3.8007,3.82,3.9881,4.0496,4.0496,4.0496,4.0496,4.0496,4.0496,4.0496,4.0823,4.2566,4.3104,4.3451,4.5133,4.5594,4.5594,4.5594,4.5594,4.5594,4.5594,4.5594,4.5594,4.5594,4.5594,4.5594,4.5594,4.5594,4.5594,4.5594,4.5594,4.5594,4.5594,4.5594,4.5594,4.5594,4.5594,4.5594,4.5594,4.6163,4.6644,4.6885,4.8221,4.924,4.9721,5.0346,5.0712,5.0712,5.0712,5.0712,5.0712,5.0712,5.0712,5.0712,5.0712,5.0712,5.0712,5.0712,5.0712,0.0,0.0,0.0,3.322,0.0,0.0,0.0,0.0,3.4308,0.0,0.0,0.0,0.0,0.0,0.0,3.9351,0.0,0.0,0.0,0.0,0.0,0.0,0.0,0.0,0.0,0.0,0.0,4.2311,4.1373,4.0748,4.0668,3.9767,3.8861,3.7988,3.7123,3.6288,3.5519,3.55,3.55,3.55,3.55,3.55,3.55,3.55,3.55,3.55,3.55,3.55,3.55,3.55,3.55,3.5673,3.7353,3.8007,3.82,3.9881,4.0496,4.0496,4.0496,4.0496,4.0496,4.0496,4.0496,4.0823,4.2566,4.3104,4.3451,4.5133,4.5594,4.5594,4.5594,4.5594,4.5594,4.5594,4.5594,4.5594,4.5594,4.5594,4.5594,4.5594,4.5594,4.5594,4.5594,4.5594,4.5594,4.5594,4.5594,4.5594,4.5594,4.5594,4.5594,4.5594,4.5633,4.597,4.6836,4.7663,4.8856,5.0558,5.0693,5.0712,5.0712,5.0712,5.0712,5.0712,5.0712,5.0712,5.0712,5.0712,5.0712,5.0712,5.0712,5.0712,0.0,0.0,3.2555,3.2752,0.0,0.0,0.0,0.0,0.0,0.0,0.0,0.0,0.0,0.0,3.6942,3.742,3.805,0.0,0.0,0.0,0.0,0.0,0.0,0.0,0.0,0.0,0.0,4.3094,4.1675,4.0763,0.0,3.9805,3.9169,3.8873,3.7469,3.6577,3.6308,3.5769,3.55,3.55,3.55,3.55,3.55,3.55,3.55,3.55,3.55,3.55,3.55,3.55,3.5808,3.6404,3.7546,3.8354,3.8988,4.0092,4.0496,4.0496,4.0496,4.0496,4.0496,4.0496,4.0496,4.0727,4.1893,4.2643,4.3335,4.4432,4.5171,4.5594,4.5594,4.5594,4.5594,4.5594,4.5594,4.5594,4.5594,4.5594,4.5594,4.5594,4.5594,4.5594,4.5594,4.5594,4.5594,4.5594,4.5594,4.5594,4.5594,4.5594,4.5594,4.5594,4.5594,4.5729,4.6009,4.7317,4.8836,5.0596,5.0712,5.0712,5.0712,5.0712,5.0712,5.0712,5.0712,5.0712,5.0712,5.0712,5.0712,5.0712,5.0712,5.0712,3.2126,3.209,0.0,3.2266,3.2266,0.0,3.2554,0.0,0.0,0.0,0.0,0.0,0.0,0.0,0.0,3.6018,3.6919,0.0,0.0,4.0829,0.0,0.0,0.0,0.0,0.0,0.0,4.31,4.3004,4.1609,4.0745,0.0,0.0,3.9611,3.9304,3.7911,3.7,3.6692,3.5904,3.55,3.55,3.55,3.55,3.55,3.55,3.55,3.55,3.55,3.55,3.55,3.55,3.5962,3.6788,3.7661,3.8527,3.94,4.0208,4.0496,4.0496,4.0496,4.0496,4.0496,4.0496,4.0496,4.0669,4.1546,4.2412,4.3278,4.4066,4.494,4.5594,4.5594,4.5594,4.5594,4.5594,4.5594,4.5594,4.5594,4.5594,4.5594,4.5594,4.5594,4.5594,4.5594,4.5594,4.5594,4.5594,4.5594,4.5594,4.5594,4.5594,4.5729,4.6028,4.5787,4.5845,4.6432,4.7759,4.9163,5.0616,5.0712,5.0712,5.0712,5.0712,5.0712,5.0712,5.0712,5.0712,5.0712,5.0712,5.0712,5.0712,5.0712,5.0712]}]]